<?xml version="1.0" encoding="UTF-8" standalone="no" ?>
<gpx xmlns="http://www.topografix.com/GPX/1/1" xmlns:xsi="http://www.w3.org/2001/XMLSchema-instance" xsi:schemaLocation="http://www.topografix.com/GPX/1/1 http://www.topografix.com/GPX/1/1/gpx.xsd" version="1.1" creator="VisuGPX - https://www.visugpx.com">
  <metadata>
    <name>J8 Tolmin - Gorizia</name>
  </metadata>
  <trk>
    <name><![CDATA[J8 Tolmin - Gorizia]]></name>
    <trkseg>
      <trkpt lat="46.14833" lon="13.75745">
        <ele>183.15822</ele>
        <time>2026-07-14T06:39:53.000Z</time>
      </trkpt>
      <trkpt lat="46.14833" lon="13.75745">
        <ele>183.15822</ele>
        <time>2026-07-14T06:40:23.000Z</time>
      </trkpt>
      <trkpt lat="46.1483" lon="13.75749">
        <ele>183.15822</ele>
        <time>2026-07-14T06:40:24.000Z</time>
      </trkpt>
      <trkpt lat="46.1483" lon="13.75748">
        <ele>183.15822</ele>
        <time>2026-07-14T06:40:25.000Z</time>
      </trkpt>
      <trkpt lat="46.14818" lon="13.75783">
        <ele>183.15822</ele>
        <time>2026-07-14T06:40:35.000Z</time>
      </trkpt>
      <trkpt lat="46.14818" lon="13.75784">
        <ele>183.15822</ele>
        <time>2026-07-14T06:40:36.000Z</time>
      </trkpt>
      <trkpt lat="46.14817" lon="13.75789">
        <ele>183.15822</ele>
        <time>2026-07-14T06:40:38.000Z</time>
      </trkpt>
      <trkpt lat="46.1481" lon="13.75798">
        <ele>183.15822</ele>
        <time>2026-07-14T06:40:44.000Z</time>
      </trkpt>
      <trkpt lat="46.1481" lon="13.75798">
        <ele>183.15822</ele>
        <time>2026-07-14T06:40:46.000Z</time>
      </trkpt>
      <trkpt lat="46.14775" lon="13.75808">
        <ele>183.15822</ele>
        <time>2026-07-14T06:42:35.000Z</time>
      </trkpt>
      <trkpt lat="46.14776" lon="13.75805">
        <ele>183.15822</ele>
        <time>2026-07-14T06:42:36.000Z</time>
      </trkpt>
      <trkpt lat="46.14777" lon="13.75801">
        <ele>183.15822</ele>
        <time>2026-07-14T06:42:37.000Z</time>
      </trkpt>
      <trkpt lat="46.14781" lon="13.75792">
        <ele>183.030632</ele>
        <time>2026-07-14T06:42:40.000Z</time>
      </trkpt>
      <trkpt lat="46.14781" lon="13.75785">
        <ele>182.90526</ele>
        <time>2026-07-14T06:42:42.000Z</time>
      </trkpt>
      <trkpt lat="46.14783" lon="13.75765">
        <ele>182.5253</ele>
        <time>2026-07-14T06:42:47.000Z</time>
      </trkpt>
      <trkpt lat="46.14783" lon="13.75741">
        <ele>182.063572</ele>
        <time>2026-07-14T06:42:52.000Z</time>
      </trkpt>
      <trkpt lat="46.14779" lon="13.75712">
        <ele>181.496815</ele>
        <time>2026-07-14T06:42:57.000Z</time>
      </trkpt>
      <trkpt lat="46.14771" lon="13.75668">
        <ele>180.64211</ele>
        <time>2026-07-14T06:43:03.000Z</time>
      </trkpt>
      <trkpt lat="46.14771" lon="13.7566">
        <ele>180.487634</ele>
        <time>2026-07-14T06:43:04.000Z</time>
      </trkpt>
      <trkpt lat="46.14773" lon="13.75637">
        <ele>180.035292</ele>
        <time>2026-07-14T06:43:06.000Z</time>
      </trkpt>
      <trkpt lat="46.14776" lon="13.75622">
        <ele>179.741585</ele>
        <time>2026-07-14T06:43:09.000Z</time>
      </trkpt>
      <trkpt lat="46.14781" lon="13.75594">
        <ele>179.199363</ele>
        <time>2026-07-14T06:43:13.000Z</time>
      </trkpt>
      <trkpt lat="46.14782" lon="13.75586">
        <ele>179.03265</ele>
        <time>2026-07-14T06:43:15.000Z</time>
      </trkpt>
      <trkpt lat="46.14786" lon="13.75566">
        <ele>178.638487</ele>
        <time>2026-07-14T06:43:20.000Z</time>
      </trkpt>
      <trkpt lat="46.14796" lon="13.75534">
        <ele>177.690662</ele>
        <time>2026-07-14T06:43:25.000Z</time>
      </trkpt>
      <trkpt lat="46.14813" lon="13.75488">
        <ele>175.622425</ele>
        <time>2026-07-14T06:43:31.000Z</time>
      </trkpt>
      <trkpt lat="46.14819" lon="13.75475">
        <ele>174.97961</ele>
        <time>2026-07-14T06:43:33.000Z</time>
      </trkpt>
      <trkpt lat="46.14831" lon="13.75457">
        <ele>173.972023</ele>
        <time>2026-07-14T06:43:36.000Z</time>
      </trkpt>
      <trkpt lat="46.14843" lon="13.75441">
        <ele>173.004005</ele>
        <time>2026-07-14T06:43:39.000Z</time>
      </trkpt>
      <trkpt lat="46.14854" lon="13.75422">
        <ele>172.027098</ele>
        <time>2026-07-14T06:43:42.000Z</time>
      </trkpt>
      <trkpt lat="46.14859" lon="13.75408">
        <ele>171.379648</ele>
        <time>2026-07-14T06:43:44.000Z</time>
      </trkpt>
      <trkpt lat="46.14862" lon="13.75392">
        <ele>170.716933</ele>
        <time>2026-07-14T06:43:46.000Z</time>
      </trkpt>
      <trkpt lat="46.14865" lon="13.75352">
        <ele>169.090819</ele>
        <time>2026-07-14T06:43:51.000Z</time>
      </trkpt>
      <trkpt lat="46.14867" lon="13.75336">
        <ele>168.428525</ele>
        <time>2026-07-14T06:43:53.000Z</time>
      </trkpt>
      <trkpt lat="46.14869" lon="13.75328">
        <ele>168.098508</ele>
        <time>2026-07-14T06:43:54.000Z</time>
      </trkpt>
      <trkpt lat="46.14873" lon="13.75313">
        <ele>167.575583</ele>
        <time>2026-07-14T06:43:56.000Z</time>
      </trkpt>
      <trkpt lat="46.14889" lon="13.75284">
        <ele>166.69918</ele>
        <time>2026-07-14T06:44:01.000Z</time>
      </trkpt>
      <trkpt lat="46.14896" lon="13.75272">
        <ele>166.324806</ele>
        <time>2026-07-14T06:44:03.000Z</time>
      </trkpt>
      <trkpt lat="46.14905" lon="13.75254">
        <ele>165.801082</ele>
        <time>2026-07-14T06:44:06.000Z</time>
      </trkpt>
      <trkpt lat="46.14925" lon="13.75203">
        <ele>164.400884</ele>
        <time>2026-07-14T06:44:14.000Z</time>
      </trkpt>
      <trkpt lat="46.14943" lon="13.7516">
        <ele>163.221022</ele>
        <time>2026-07-14T06:44:20.000Z</time>
      </trkpt>
      <trkpt lat="46.1497" lon="13.75091">
        <ele>161.793439</ele>
        <time>2026-07-14T06:44:29.000Z</time>
      </trkpt>
      <trkpt lat="46.14982" lon="13.75045">
        <ele>162.552867</ele>
        <time>2026-07-14T06:44:35.000Z</time>
      </trkpt>
      <trkpt lat="46.14984" lon="13.75038">
        <ele>162.661294</ele>
        <time>2026-07-14T06:44:36.000Z</time>
      </trkpt>
      <trkpt lat="46.14987" lon="13.75025">
        <ele>162.864465</ele>
        <time>2026-07-14T06:44:38.000Z</time>
      </trkpt>
      <trkpt lat="46.14994" lon="13.75002">
        <ele>163.255767</ele>
        <time>2026-07-14T06:44:42.000Z</time>
      </trkpt>
      <trkpt lat="46.15" lon="13.74985">
        <ele>163.545046</ele>
        <time>2026-07-14T06:44:45.000Z</time>
      </trkpt>
      <trkpt lat="46.15005" lon="13.74967">
        <ele>163.831255</ele>
        <time>2026-07-14T06:44:48.000Z</time>
      </trkpt>
      <trkpt lat="46.15013" lon="13.74944">
        <ele>164.223918</ele>
        <time>2026-07-14T06:44:52.000Z</time>
      </trkpt>
      <trkpt lat="46.15016" lon="13.74927">
        <ele>164.495677</ele>
        <time>2026-07-14T06:44:55.000Z</time>
      </trkpt>
      <trkpt lat="46.15017" lon="13.74921">
        <ele>164.581064</ele>
        <time>2026-07-14T06:44:56.000Z</time>
      </trkpt>
      <trkpt lat="46.15018" lon="13.74916">
        <ele>164.665245</ele>
        <time>2026-07-14T06:44:57.000Z</time>
      </trkpt>
      <trkpt lat="46.15025" lon="13.7489">
        <ele>165.08311</ele>
        <time>2026-07-14T06:45:01.000Z</time>
      </trkpt>
      <trkpt lat="46.15031" lon="13.74856">
        <ele>165.596499</ele>
        <time>2026-07-14T06:45:09.000Z</time>
      </trkpt>
      <trkpt lat="46.15032" lon="13.74851">
        <ele>165.641092</ele>
        <time>2026-07-14T06:45:10.000Z</time>
      </trkpt>
      <trkpt lat="46.15033" lon="13.74815">
        <ele>165.932368</ele>
        <time>2026-07-14T06:45:16.000Z</time>
      </trkpt>
      <trkpt lat="46.15031" lon="13.74753">
        <ele>166.449637</ele>
        <time>2026-07-14T06:45:26.000Z</time>
      </trkpt>
      <trkpt lat="46.15025" lon="13.74723">
        <ele>166.701927</ele>
        <time>2026-07-14T06:45:31.000Z</time>
      </trkpt>
      <trkpt lat="46.15023" lon="13.74711">
        <ele>166.80336</ele>
        <time>2026-07-14T06:45:33.000Z</time>
      </trkpt>
      <trkpt lat="46.15018" lon="13.74674">
        <ele>167.117234</ele>
        <time>2026-07-14T06:45:40.000Z</time>
      </trkpt>
      <trkpt lat="46.1501" lon="13.74652">
        <ele>167.320771</ele>
        <time>2026-07-14T06:45:45.000Z</time>
      </trkpt>
      <trkpt lat="46.15008" lon="13.74635">
        <ele>167.458056</ele>
        <time>2026-07-14T06:45:48.000Z</time>
      </trkpt>
      <trkpt lat="46.15008" lon="13.74625">
        <ele>167.538761</ele>
        <time>2026-07-14T06:45:50.000Z</time>
      </trkpt>
      <trkpt lat="46.15009" lon="13.7457">
        <ele>168.203654</ele>
        <time>2026-07-14T06:46:01.000Z</time>
      </trkpt>
      <trkpt lat="46.15009" lon="13.74561">
        <ele>168.322047</ele>
        <time>2026-07-14T06:46:03.000Z</time>
      </trkpt>
      <trkpt lat="46.15009" lon="13.74553">
        <ele>168.435395</ele>
        <time>2026-07-14T06:46:05.000Z</time>
      </trkpt>
      <trkpt lat="46.1501" lon="13.74525">
        <ele>168.825898</ele>
        <time>2026-07-14T06:46:11.000Z</time>
      </trkpt>
      <trkpt lat="46.15013" lon="13.74504">
        <ele>169.133188</ele>
        <time>2026-07-14T06:46:17.000Z</time>
      </trkpt>
      <trkpt lat="46.15015" lon="13.74496">
        <ele>169.251623</ele>
        <time>2026-07-14T06:46:19.000Z</time>
      </trkpt>
      <trkpt lat="46.1502" lon="13.74483">
        <ele>169.45583</ele>
        <time>2026-07-14T06:46:22.000Z</time>
      </trkpt>
      <trkpt lat="46.15026" lon="13.74471">
        <ele>169.651448</ele>
        <time>2026-07-14T06:46:25.000Z</time>
      </trkpt>
      <trkpt lat="46.15034" lon="13.74457">
        <ele>169.916438</ele>
        <time>2026-07-14T06:46:29.000Z</time>
      </trkpt>
      <trkpt lat="46.15039" lon="13.74448">
        <ele>170.076618</ele>
        <time>2026-07-14T06:46:32.000Z</time>
      </trkpt>
      <trkpt lat="46.15043" lon="13.74438">
        <ele>170.232554</ele>
        <time>2026-07-14T06:46:35.000Z</time>
      </trkpt>
      <trkpt lat="46.15044" lon="13.74433">
        <ele>170.311376</ele>
        <time>2026-07-14T06:46:37.000Z</time>
      </trkpt>
      <trkpt lat="46.15046" lon="13.74431">
        <ele>170.348401</ele>
        <time>2026-07-14T06:46:38.000Z</time>
      </trkpt>
      <trkpt lat="46.15047" lon="13.7443">
        <ele>170.3911</ele>
        <time>2026-07-14T06:46:39.000Z</time>
      </trkpt>
      <trkpt lat="46.1505" lon="13.74423">
        <ele>170.498096</ele>
        <time>2026-07-14T06:46:43.000Z</time>
      </trkpt>
      <trkpt lat="46.15056" lon="13.74418">
        <ele>170.628445</ele>
        <time>2026-07-14T06:46:46.000Z</time>
      </trkpt>
      <trkpt lat="46.15069" lon="13.74409">
        <ele>170.93243</ele>
        <time>2026-07-14T06:46:52.000Z</time>
      </trkpt>
      <trkpt lat="46.15074" lon="13.74408">
        <ele>171.02201</ele>
        <time>2026-07-14T06:46:54.000Z</time>
      </trkpt>
      <trkpt lat="46.15081" lon="13.74412">
        <ele>171.176229</ele>
        <time>2026-07-14T06:46:57.000Z</time>
      </trkpt>
      <trkpt lat="46.15096" lon="13.74415">
        <ele>171.79159</ele>
        <time>2026-07-14T06:47:04.000Z</time>
      </trkpt>
      <trkpt lat="46.15108" lon="13.74397">
        <ele>172.94679</ele>
        <time>2026-07-14T06:47:10.000Z</time>
      </trkpt>
      <trkpt lat="46.15109" lon="13.74389">
        <ele>173.322599</ele>
        <time>2026-07-14T06:47:12.000Z</time>
      </trkpt>
      <trkpt lat="46.15112" lon="13.74368">
        <ele>174.254326</ele>
        <time>2026-07-14T06:47:17.000Z</time>
      </trkpt>
      <trkpt lat="46.15115" lon="13.74348">
        <ele>175.183473</ele>
        <time>2026-07-14T06:47:22.000Z</time>
      </trkpt>
      <trkpt lat="46.15116" lon="13.74331">
        <ele>175.975053</ele>
        <time>2026-07-14T06:47:26.000Z</time>
      </trkpt>
      <trkpt lat="46.1511" lon="13.74321">
        <ele>176.602479</ele>
        <time>2026-07-14T06:47:30.000Z</time>
      </trkpt>
      <trkpt lat="46.15102" lon="13.74313">
        <ele>177.232214</ele>
        <time>2026-07-14T06:47:35.000Z</time>
      </trkpt>
      <trkpt lat="46.15098" lon="13.74308">
        <ele>177.561016</ele>
        <time>2026-07-14T06:47:38.000Z</time>
      </trkpt>
      <trkpt lat="46.15094" lon="13.74302">
        <ele>177.950645</ele>
        <time>2026-07-14T06:47:41.000Z</time>
      </trkpt>
      <trkpt lat="46.15093" lon="13.743">
        <ele>178.068233</ele>
        <time>2026-07-14T06:47:42.000Z</time>
      </trkpt>
      <trkpt lat="46.15092" lon="13.74282">
        <ele>178.880904</ele>
        <time>2026-07-14T06:47:49.000Z</time>
      </trkpt>
      <trkpt lat="46.15094" lon="13.74264">
        <ele>179.70037</ele>
        <time>2026-07-14T06:47:56.000Z</time>
      </trkpt>
      <trkpt lat="46.15092" lon="13.74246">
        <ele>180.501876</ele>
        <time>2026-07-14T06:48:03.000Z</time>
      </trkpt>
      <trkpt lat="46.15091" lon="13.7423">
        <ele>181.262046</ele>
        <time>2026-07-14T06:48:09.000Z</time>
      </trkpt>
      <trkpt lat="46.15085" lon="13.74216">
        <ele>182.009119</ele>
        <time>2026-07-14T06:48:16.000Z</time>
      </trkpt>
      <trkpt lat="46.15084" lon="13.74214">
        <ele>182.099991</ele>
        <time>2026-07-14T06:48:17.000Z</time>
      </trkpt>
      <trkpt lat="46.15079" lon="13.74211">
        <ele>182.462472</ele>
        <time>2026-07-14T06:48:20.000Z</time>
      </trkpt>
      <trkpt lat="46.15077" lon="13.74211">
        <ele>182.561253</ele>
        <time>2026-07-14T06:48:21.000Z</time>
      </trkpt>
      <trkpt lat="46.15069" lon="13.74219">
        <ele>183.38618</ele>
        <time>2026-07-14T06:48:27.000Z</time>
      </trkpt>
      <trkpt lat="46.1506" lon="13.74236">
        <ele>185.42556</ele>
        <time>2026-07-14T06:48:37.000Z</time>
      </trkpt>
      <trkpt lat="46.15052" lon="13.74248">
        <ele>187.016452</ele>
        <time>2026-07-14T06:48:44.000Z</time>
      </trkpt>
      <trkpt lat="46.15049" lon="13.74256">
        <ele>187.945797</ele>
        <time>2026-07-14T06:48:50.000Z</time>
      </trkpt>
      <trkpt lat="46.15048" lon="13.74259">
        <ele>188.238265</ele>
        <time>2026-07-14T06:48:52.000Z</time>
      </trkpt>
      <trkpt lat="46.15047" lon="13.74263">
        <ele>188.604656</ele>
        <time>2026-07-14T06:48:54.000Z</time>
      </trkpt>
      <trkpt lat="46.15046" lon="13.74264">
        <ele>188.795473</ele>
        <time>2026-07-14T06:48:55.000Z</time>
      </trkpt>
      <trkpt lat="46.15043" lon="13.74267">
        <ele>189.266212</ele>
        <time>2026-07-14T06:48:58.000Z</time>
      </trkpt>
      <trkpt lat="46.15035" lon="13.74267">
        <ele>190.466208</ele>
        <time>2026-07-14T06:49:05.000Z</time>
      </trkpt>
      <trkpt lat="46.15033" lon="13.74267">
        <ele>190.678488</ele>
        <time>2026-07-14T06:49:06.000Z</time>
      </trkpt>
      <trkpt lat="46.15022" lon="13.74265">
        <ele>192.271586</ele>
        <time>2026-07-14T06:49:13.000Z</time>
      </trkpt>
      <trkpt lat="46.15015" lon="13.74261">
        <ele>193.251392</ele>
        <time>2026-07-14T06:49:18.000Z</time>
      </trkpt>
      <trkpt lat="46.15009" lon="13.74243">
        <ele>195.224422</ele>
        <time>2026-07-14T06:49:27.000Z</time>
      </trkpt>
      <trkpt lat="46.15005" lon="13.74233">
        <ele>196.279699</ele>
        <time>2026-07-14T06:49:32.000Z</time>
      </trkpt>
      <trkpt lat="46.15004" lon="13.74229">
        <ele>196.664321</ele>
        <time>2026-07-14T06:49:34.000Z</time>
      </trkpt>
      <trkpt lat="46.15001" lon="13.74216">
        <ele>197.986722</ele>
        <time>2026-07-14T06:49:41.000Z</time>
      </trkpt>
      <trkpt lat="46.15" lon="13.7421">
        <ele>198.574121</ele>
        <time>2026-07-14T06:49:44.000Z</time>
      </trkpt>
      <trkpt lat="46.15" lon="13.74209">
        <ele>198.67355</ele>
        <time>2026-07-14T06:49:47.000Z</time>
      </trkpt>
      <trkpt lat="46.1496" lon="13.7412">
        <ele>208.596406</ele>
        <time>2026-07-14T06:51:32.000Z</time>
      </trkpt>
      <trkpt lat="46.14956" lon="13.74122">
        <ele>208.967544</ele>
        <time>2026-07-14T06:51:34.000Z</time>
      </trkpt>
      <trkpt lat="46.14955" lon="13.74123">
        <ele>209.120308</ele>
        <time>2026-07-14T06:51:35.000Z</time>
      </trkpt>
      <trkpt lat="46.14946" lon="13.74126">
        <ele>210.107604</ele>
        <time>2026-07-14T06:51:42.000Z</time>
      </trkpt>
      <trkpt lat="46.14935" lon="13.74128">
        <ele>211.302983</ele>
        <time>2026-07-14T06:51:49.000Z</time>
      </trkpt>
      <trkpt lat="46.14922" lon="13.74131">
        <ele>212.68156</ele>
        <time>2026-07-14T06:51:57.000Z</time>
      </trkpt>
      <trkpt lat="46.14904" lon="13.74134">
        <ele>214.555538</ele>
        <time>2026-07-14T06:52:07.000Z</time>
      </trkpt>
      <trkpt lat="46.14903" lon="13.74134">
        <ele>214.735607</ele>
        <time>2026-07-14T06:52:08.000Z</time>
      </trkpt>
      <trkpt lat="46.14899" lon="13.74134">
        <ele>215.149747</ele>
        <time>2026-07-14T06:52:10.000Z</time>
      </trkpt>
      <trkpt lat="46.14897" lon="13.74134">
        <ele>215.352201</ele>
        <time>2026-07-14T06:52:11.000Z</time>
      </trkpt>
      <trkpt lat="46.14884" lon="13.74132">
        <ele>216.707073</ele>
        <time>2026-07-14T06:52:19.000Z</time>
      </trkpt>
      <trkpt lat="46.14877" lon="13.74129">
        <ele>217.470891</ele>
        <time>2026-07-14T06:52:23.000Z</time>
      </trkpt>
      <trkpt lat="46.14874" lon="13.74128">
        <ele>217.832072</ele>
        <time>2026-07-14T06:52:25.000Z</time>
      </trkpt>
      <trkpt lat="46.1487" lon="13.74127">
        <ele>218.291308</ele>
        <time>2026-07-14T06:52:27.000Z</time>
      </trkpt>
      <trkpt lat="46.14854" lon="13.74118">
        <ele>220.017937</ele>
        <time>2026-07-14T06:52:36.000Z</time>
      </trkpt>
      <trkpt lat="46.14847" lon="13.74112">
        <ele>220.931992</ele>
        <time>2026-07-14T06:52:41.000Z</time>
      </trkpt>
      <trkpt lat="46.14842" lon="13.74101">
        <ele>221.904674</ele>
        <time>2026-07-14T06:52:46.000Z</time>
      </trkpt>
      <trkpt lat="46.14837" lon="13.74086">
        <ele>223.104544</ele>
        <time>2026-07-14T06:52:52.000Z</time>
      </trkpt>
      <trkpt lat="46.1483" lon="13.74066">
        <ele>224.796862</ele>
        <time>2026-07-14T06:53:00.000Z</time>
      </trkpt>
      <trkpt lat="46.14826" lon="13.74044">
        <ele>226.403802</ele>
        <time>2026-07-14T06:53:08.000Z</time>
      </trkpt>
      <trkpt lat="46.14821" lon="13.74027">
        <ele>227.564464</ele>
        <time>2026-07-14T06:53:15.000Z</time>
      </trkpt>
      <trkpt lat="46.14819" lon="13.74017">
        <ele>228.124819</ele>
        <time>2026-07-14T06:53:19.000Z</time>
      </trkpt>
      <trkpt lat="46.14816" lon="13.74007">
        <ele>228.704512</ele>
        <time>2026-07-14T06:53:23.000Z</time>
      </trkpt>
      <trkpt lat="46.14813" lon="13.73985">
        <ele>229.877587</ele>
        <time>2026-07-14T06:53:31.000Z</time>
      </trkpt>
      <trkpt lat="46.1481" lon="13.73969">
        <ele>230.778611</ele>
        <time>2026-07-14T06:53:37.000Z</time>
      </trkpt>
      <trkpt lat="46.14806" lon="13.73956">
        <ele>231.570313</ele>
        <time>2026-07-14T06:53:43.000Z</time>
      </trkpt>
      <trkpt lat="46.14788" lon="13.73949">
        <ele>232.93892</ele>
        <time>2026-07-14T06:53:50.000Z</time>
      </trkpt>
      <trkpt lat="46.14786" lon="13.73947">
        <ele>233.112828</ele>
        <time>2026-07-14T06:53:51.000Z</time>
      </trkpt>
      <trkpt lat="46.14774" lon="13.73942">
        <ele>234.088029</ele>
        <time>2026-07-14T06:53:56.000Z</time>
      </trkpt>
      <trkpt lat="46.14772" lon="13.73942">
        <ele>234.288865</ele>
        <time>2026-07-14T06:53:57.000Z</time>
      </trkpt>
      <trkpt lat="46.14761" lon="13.73941">
        <ele>235.136121</ele>
        <time>2026-07-14T06:54:02.000Z</time>
      </trkpt>
      <trkpt lat="46.14755" lon="13.7394">
        <ele>235.577632</ele>
        <time>2026-07-14T06:54:05.000Z</time>
      </trkpt>
      <trkpt lat="46.14738" lon="13.73943">
        <ele>236.925713</ele>
        <time>2026-07-14T06:54:13.000Z</time>
      </trkpt>
      <trkpt lat="46.14735" lon="13.73943">
        <ele>237.118505</ele>
        <time>2026-07-14T06:54:14.000Z</time>
      </trkpt>
      <trkpt lat="46.14722" lon="13.73943">
        <ele>238.088925</ele>
        <time>2026-07-14T06:54:20.000Z</time>
      </trkpt>
      <trkpt lat="46.1472" lon="13.73942">
        <ele>238.299108</ele>
        <time>2026-07-14T06:54:22.000Z</time>
      </trkpt>
      <trkpt lat="46.1471" lon="13.7394">
        <ele>239.035559</ele>
        <time>2026-07-14T06:54:28.000Z</time>
      </trkpt>
      <trkpt lat="46.14705" lon="13.73938">
        <ele>239.452799</ele>
        <time>2026-07-14T06:54:31.000Z</time>
      </trkpt>
      <trkpt lat="46.14701" lon="13.73937">
        <ele>239.81592</ele>
        <time>2026-07-14T06:54:33.000Z</time>
      </trkpt>
      <trkpt lat="46.14699" lon="13.73937">
        <ele>239.949508</ele>
        <time>2026-07-14T06:54:34.000Z</time>
      </trkpt>
      <trkpt lat="46.14684" lon="13.73935">
        <ele>240.647429</ele>
        <time>2026-07-14T06:54:44.000Z</time>
      </trkpt>
      <trkpt lat="46.14672" lon="13.73931">
        <ele>240.331527</ele>
        <time>2026-07-14T06:54:51.000Z</time>
      </trkpt>
      <trkpt lat="46.14657" lon="13.73925">
        <ele>239.903458</ele>
        <time>2026-07-14T06:55:00.000Z</time>
      </trkpt>
      <trkpt lat="46.14649" lon="13.73921">
        <ele>239.647119</ele>
        <time>2026-07-14T06:55:07.000Z</time>
      </trkpt>
      <trkpt lat="46.14649" lon="13.73921">
        <ele>239.647119</ele>
        <time>2026-07-14T06:55:08.000Z</time>
      </trkpt>
      <trkpt lat="46.14645" lon="13.73916">
        <ele>239.515173</ele>
        <time>2026-07-14T06:55:18.000Z</time>
      </trkpt>
      <trkpt lat="46.14643" lon="13.73914">
        <ele>239.431768</ele>
        <time>2026-07-14T06:55:19.000Z</time>
      </trkpt>
      <trkpt lat="46.14625" lon="13.73906">
        <ele>238.919463</ele>
        <time>2026-07-14T06:55:23.000Z</time>
      </trkpt>
      <trkpt lat="46.14604" lon="13.73899">
        <ele>238.343637</ele>
        <time>2026-07-14T06:55:27.000Z</time>
      </trkpt>
      <trkpt lat="46.14599" lon="13.73896">
        <ele>238.174804</ele>
        <time>2026-07-14T06:55:28.000Z</time>
      </trkpt>
      <trkpt lat="46.14566" lon="13.73882">
        <ele>237.234979</ele>
        <time>2026-07-14T06:55:34.000Z</time>
      </trkpt>
      <trkpt lat="46.14555" lon="13.73877">
        <ele>236.917891</ele>
        <time>2026-07-14T06:55:37.000Z</time>
      </trkpt>
      <trkpt lat="46.14545" lon="13.73874">
        <ele>236.650878</ele>
        <time>2026-07-14T06:55:41.000Z</time>
      </trkpt>
      <trkpt lat="46.14532" lon="13.73875">
        <ele>236.284585</ele>
        <time>2026-07-14T06:55:47.000Z</time>
      </trkpt>
      <trkpt lat="46.14521" lon="13.73886">
        <ele>235.912463</ele>
        <time>2026-07-14T06:55:52.000Z</time>
      </trkpt>
      <trkpt lat="46.14506" lon="13.7391">
        <ele>235.826266</ele>
        <time>2026-07-14T06:55:57.000Z</time>
      </trkpt>
      <trkpt lat="46.14493" lon="13.73929">
        <ele>235.818258</ele>
        <time>2026-07-14T06:56:00.000Z</time>
      </trkpt>
      <trkpt lat="46.14485" lon="13.73938">
        <ele>235.813532</ele>
        <time>2026-07-14T06:56:02.000Z</time>
      </trkpt>
      <trkpt lat="46.14451" lon="13.73954">
        <ele>235.797881</ele>
        <time>2026-07-14T06:56:08.000Z</time>
      </trkpt>
      <trkpt lat="46.14445" lon="13.73957">
        <ele>235.795242</ele>
        <time>2026-07-14T06:56:09.000Z</time>
      </trkpt>
      <trkpt lat="46.14433" lon="13.73956">
        <ele>235.790037</ele>
        <time>2026-07-14T06:56:11.000Z</time>
      </trkpt>
      <trkpt lat="46.1443" lon="13.73954">
        <ele>235.788422</ele>
        <time>2026-07-14T06:56:12.000Z</time>
      </trkpt>
      <trkpt lat="46.14426" lon="13.73951">
        <ele>235.786322</ele>
        <time>2026-07-14T06:56:13.000Z</time>
      </trkpt>
      <trkpt lat="46.1442" lon="13.73942">
        <ele>235.782515</ele>
        <time>2026-07-14T06:56:16.000Z</time>
      </trkpt>
      <trkpt lat="46.14415" lon="13.7392">
        <ele>235.775491</ele>
        <time>2026-07-14T06:56:22.000Z</time>
      </trkpt>
      <trkpt lat="46.14412" lon="13.73908">
        <ele>235.771585</ele>
        <time>2026-07-14T06:56:25.000Z</time>
      </trkpt>
      <trkpt lat="46.14411" lon="13.73897">
        <ele>235.768219</ele>
        <time>2026-07-14T06:56:29.000Z</time>
      </trkpt>
      <trkpt lat="46.14408" lon="13.7387">
        <ele>235.759983</ele>
        <time>2026-07-14T06:56:35.000Z</time>
      </trkpt>
      <trkpt lat="46.14402" lon="13.73823">
        <ele>235.343221</ele>
        <time>2026-07-14T06:56:42.000Z</time>
      </trkpt>
      <trkpt lat="46.14397" lon="13.73809">
        <ele>235.153673</ele>
        <time>2026-07-14T06:56:44.000Z</time>
      </trkpt>
      <trkpt lat="46.14393" lon="13.73794">
        <ele>234.959745</ele>
        <time>2026-07-14T06:56:46.000Z</time>
      </trkpt>
      <trkpt lat="46.14385" lon="13.73774">
        <ele>234.676192</ele>
        <time>2026-07-14T06:56:49.000Z</time>
      </trkpt>
      <trkpt lat="46.14358" lon="13.73714">
        <ele>233.820469</ele>
        <time>2026-07-14T06:56:57.000Z</time>
      </trkpt>
      <trkpt lat="46.14342" lon="13.73682">
        <ele>233.334498</ele>
        <time>2026-07-14T06:57:01.000Z</time>
      </trkpt>
      <trkpt lat="46.1433" lon="13.73658">
        <ele>232.982794</ele>
        <time>2026-07-14T06:57:04.000Z</time>
      </trkpt>
      <trkpt lat="46.14301" lon="13.73625">
        <ele>231.917954</ele>
        <time>2026-07-14T06:57:09.000Z</time>
      </trkpt>
      <trkpt lat="46.14294" lon="13.73609">
        <ele>231.335295</ele>
        <time>2026-07-14T06:57:11.000Z</time>
      </trkpt>
      <trkpt lat="46.14285" lon="13.7359">
        <ele>230.639665</ele>
        <time>2026-07-14T06:57:13.000Z</time>
      </trkpt>
      <trkpt lat="46.14274" lon="13.73575">
        <ele>229.959645</ele>
        <time>2026-07-14T06:57:15.000Z</time>
      </trkpt>
      <trkpt lat="46.14263" lon="13.73561">
        <ele>229.329638</ele>
        <time>2026-07-14T06:57:17.000Z</time>
      </trkpt>
      <trkpt lat="46.14259" lon="13.73554">
        <ele>229.055538</ele>
        <time>2026-07-14T06:57:18.000Z</time>
      </trkpt>
      <trkpt lat="46.14257" lon="13.73546">
        <ele>228.79479</ele>
        <time>2026-07-14T06:57:19.000Z</time>
      </trkpt>
      <trkpt lat="46.14254" lon="13.73531">
        <ele>228.29837</ele>
        <time>2026-07-14T06:57:21.000Z</time>
      </trkpt>
      <trkpt lat="46.14252" lon="13.73524">
        <ele>228.060478</ele>
        <time>2026-07-14T06:57:22.000Z</time>
      </trkpt>
      <trkpt lat="46.14248" lon="13.73518">
        <ele>227.824065</ele>
        <time>2026-07-14T06:57:23.000Z</time>
      </trkpt>
      <trkpt lat="46.14237" lon="13.73513">
        <ele>227.309471</ele>
        <time>2026-07-14T06:57:25.000Z</time>
      </trkpt>
      <trkpt lat="46.14226" lon="13.73511">
        <ele>226.826036</ele>
        <time>2026-07-14T06:57:27.000Z</time>
      </trkpt>
      <trkpt lat="46.14218" lon="13.73502">
        <ele>226.374985</ele>
        <time>2026-07-14T06:57:29.000Z</time>
      </trkpt>
      <trkpt lat="46.14212" lon="13.73483">
        <ele>225.733335</ele>
        <time>2026-07-14T06:57:31.000Z</time>
      </trkpt>
      <trkpt lat="46.14209" lon="13.73471">
        <ele>225.350493</ele>
        <time>2026-07-14T06:57:32.000Z</time>
      </trkpt>
      <trkpt lat="46.14207" lon="13.73459">
        <ele>224.972186</ele>
        <time>2026-07-14T06:57:33.000Z</time>
      </trkpt>
      <trkpt lat="46.14197" lon="13.73436">
        <ele>224.323867</ele>
        <time>2026-07-14T06:57:36.000Z</time>
      </trkpt>
      <trkpt lat="46.14191" lon="13.73427">
        <ele>224.088465</ele>
        <time>2026-07-14T06:57:39.000Z</time>
      </trkpt>
      <trkpt lat="46.14191" lon="13.73423">
        <ele>224.005614</ele>
        <time>2026-07-14T06:57:43.000Z</time>
      </trkpt>
      <trkpt lat="46.14187" lon="13.73417">
        <ele>223.841948</ele>
        <time>2026-07-14T06:57:46.000Z</time>
      </trkpt>
      <trkpt lat="46.14185" lon="13.73409">
        <ele>223.680229</ele>
        <time>2026-07-14T06:57:48.000Z</time>
      </trkpt>
      <trkpt lat="46.1418" lon="13.73396">
        <ele>223.388376</ele>
        <time>2026-07-14T06:57:51.000Z</time>
      </trkpt>
      <trkpt lat="46.14172" lon="13.73385">
        <ele>223.066839</ele>
        <time>2026-07-14T06:57:54.000Z</time>
      </trkpt>
      <trkpt lat="46.14157" lon="13.73363">
        <ele>222.457184</ele>
        <time>2026-07-14T06:57:59.000Z</time>
      </trkpt>
      <trkpt lat="46.14155" lon="13.73357">
        <ele>222.314662</ele>
        <time>2026-07-14T06:58:00.000Z</time>
      </trkpt>
      <trkpt lat="46.14146" lon="13.73339">
        <ele>221.879542</ele>
        <time>2026-07-14T06:58:03.000Z</time>
      </trkpt>
      <trkpt lat="46.14141" lon="13.7333">
        <ele>221.653672</ele>
        <time>2026-07-14T06:58:04.000Z</time>
      </trkpt>
      <trkpt lat="46.14128" lon="13.73306">
        <ele>221.035631</ele>
        <time>2026-07-14T06:58:07.000Z</time>
      </trkpt>
      <trkpt lat="46.14114" lon="13.73282">
        <ele>220.429966</ele>
        <time>2026-07-14T06:58:10.000Z</time>
      </trkpt>
      <trkpt lat="46.14109" lon="13.73275">
        <ele>220.218028</ele>
        <time>2026-07-14T06:58:11.000Z</time>
      </trkpt>
      <trkpt lat="46.14077" lon="13.73235">
        <ele>219.550507</ele>
        <time>2026-07-14T06:58:17.000Z</time>
      </trkpt>
      <trkpt lat="46.14067" lon="13.73224">
        <ele>219.577895</ele>
        <time>2026-07-14T06:58:18.000Z</time>
      </trkpt>
      <trkpt lat="46.14056" lon="13.73216">
        <ele>219.603896</ele>
        <time>2026-07-14T06:58:21.000Z</time>
      </trkpt>
      <trkpt lat="46.14031" lon="13.732">
        <ele>219.660854</ele>
        <time>2026-07-14T06:58:26.000Z</time>
      </trkpt>
      <trkpt lat="46.14027" lon="13.73197">
        <ele>219.670278</ele>
        <time>2026-07-14T06:58:27.000Z</time>
      </trkpt>
      <trkpt lat="46.14011" lon="13.73189">
        <ele>219.705131</ele>
        <time>2026-07-14T06:58:31.000Z</time>
      </trkpt>
      <trkpt lat="46.14003" lon="13.73186">
        <ele>219.721765</ele>
        <time>2026-07-14T06:58:35.000Z</time>
      </trkpt>
      <trkpt lat="46.14003" lon="13.73186">
        <ele>219.721765</ele>
        <time>2026-07-14T06:58:37.000Z</time>
      </trkpt>
      <trkpt lat="46.14001" lon="13.73183">
        <ele>219.727993</ele>
        <time>2026-07-14T06:59:47.000Z</time>
      </trkpt>
      <trkpt lat="46.13999" lon="13.73181">
        <ele>219.73252</ele>
        <time>2026-07-14T06:59:48.000Z</time>
      </trkpt>
      <trkpt lat="46.13987" lon="13.73174">
        <ele>219.760664</ele>
        <time>2026-07-14T06:59:53.000Z</time>
      </trkpt>
      <trkpt lat="46.1398" lon="13.73169">
        <ele>219.776614</ele>
        <time>2026-07-14T06:59:55.000Z</time>
      </trkpt>
      <trkpt lat="46.13961" lon="13.73152">
        <ele>219.823702</ele>
        <time>2026-07-14T07:00:01.000Z</time>
      </trkpt>
      <trkpt lat="46.13936" lon="13.73127">
        <ele>219.886602</ele>
        <time>2026-07-14T07:00:08.000Z</time>
      </trkpt>
      <trkpt lat="46.13932" lon="13.73122">
        <ele>219.678301</ele>
        <time>2026-07-14T07:00:09.000Z</time>
      </trkpt>
      <trkpt lat="46.13922" lon="13.73114">
        <ele>219.079375</ele>
        <time>2026-07-14T07:00:11.000Z</time>
      </trkpt>
      <trkpt lat="46.13911" lon="13.7311">
        <ele>218.482468</ele>
        <time>2026-07-14T07:00:13.000Z</time>
      </trkpt>
      <trkpt lat="46.13894" lon="13.7311">
        <ele>217.604084</ele>
        <time>2026-07-14T07:00:16.000Z</time>
      </trkpt>
      <trkpt lat="46.13889" lon="13.73112">
        <ele>217.313656</ele>
        <time>2026-07-14T07:00:17.000Z</time>
      </trkpt>
      <trkpt lat="46.13884" lon="13.73116">
        <ele>217.022817</ele>
        <time>2026-07-14T07:00:18.000Z</time>
      </trkpt>
      <trkpt lat="46.1387" lon="13.73133">
        <ele>216.093165</ele>
        <time>2026-07-14T07:00:21.000Z</time>
      </trkpt>
      <trkpt lat="46.13861" lon="13.73142">
        <ele>215.525023</ele>
        <time>2026-07-14T07:00:23.000Z</time>
      </trkpt>
      <trkpt lat="46.13854" lon="13.73143">
        <ele>215.122918</ele>
        <time>2026-07-14T07:00:25.000Z</time>
      </trkpt>
      <trkpt lat="46.13847" lon="13.73134">
        <ele>214.627809</ele>
        <time>2026-07-14T07:00:27.000Z</time>
      </trkpt>
      <trkpt lat="46.13847" lon="13.73127">
        <ele>214.370107</ele>
        <time>2026-07-14T07:00:28.000Z</time>
      </trkpt>
      <trkpt lat="46.13849" lon="13.73119">
        <ele>214.070316</ele>
        <time>2026-07-14T07:00:29.000Z</time>
      </trkpt>
      <trkpt lat="46.13856" lon="13.73106">
        <ele>213.47705</ele>
        <time>2026-07-14T07:00:31.000Z</time>
      </trkpt>
      <trkpt lat="46.13862" lon="13.73094">
        <ele>212.939851</ele>
        <time>2026-07-14T07:00:33.000Z</time>
      </trkpt>
      <trkpt lat="46.1387" lon="13.73074">
        <ele>212.091695</ele>
        <time>2026-07-14T07:00:36.000Z</time>
      </trkpt>
      <trkpt lat="46.13872" lon="13.73066">
        <ele>211.805406</ele>
        <time>2026-07-14T07:00:37.000Z</time>
      </trkpt>
      <trkpt lat="46.13878" lon="13.73044">
        <ele>210.919505</ele>
        <time>2026-07-14T07:00:40.000Z</time>
      </trkpt>
      <trkpt lat="46.1388" lon="13.73036">
        <ele>210.624799</ele>
        <time>2026-07-14T07:00:41.000Z</time>
      </trkpt>
      <trkpt lat="46.13889" lon="13.73007">
        <ele>210.907168</ele>
        <time>2026-07-14T07:00:45.000Z</time>
      </trkpt>
      <trkpt lat="46.13895" lon="13.72996">
        <ele>211.12608</ele>
        <time>2026-07-14T07:00:47.000Z</time>
      </trkpt>
      <trkpt lat="46.13897" lon="13.7299">
        <ele>211.234294</ele>
        <time>2026-07-14T07:00:48.000Z</time>
      </trkpt>
      <trkpt lat="46.139" lon="13.72977">
        <ele>211.433866</ele>
        <time>2026-07-14T07:00:50.000Z</time>
      </trkpt>
      <trkpt lat="46.139" lon="13.72971">
        <ele>211.534887</ele>
        <time>2026-07-14T07:00:51.000Z</time>
      </trkpt>
      <trkpt lat="46.13899" lon="13.72964">
        <ele>211.639691</ele>
        <time>2026-07-14T07:00:52.000Z</time>
      </trkpt>
      <trkpt lat="46.13897" lon="13.7295">
        <ele>211.860844</ele>
        <time>2026-07-14T07:00:54.000Z</time>
      </trkpt>
      <trkpt lat="46.13894" lon="13.7293">
        <ele>212.181691</ele>
        <time>2026-07-14T07:00:57.000Z</time>
      </trkpt>
      <trkpt lat="46.13893" lon="13.72915">
        <ele>212.398924</ele>
        <time>2026-07-14T07:00:59.000Z</time>
      </trkpt>
      <trkpt lat="46.13892" lon="13.72909">
        <ele>212.502727</ele>
        <time>2026-07-14T07:01:00.000Z</time>
      </trkpt>
      <trkpt lat="46.13888" lon="13.72889">
        <ele>212.814661</ele>
        <time>2026-07-14T07:01:03.000Z</time>
      </trkpt>
      <trkpt lat="46.13882" lon="13.7287">
        <ele>213.138133</ele>
        <time>2026-07-14T07:01:06.000Z</time>
      </trkpt>
      <trkpt lat="46.13876" lon="13.72857">
        <ele>213.377235</ele>
        <time>2026-07-14T07:01:08.000Z</time>
      </trkpt>
      <trkpt lat="46.13872" lon="13.72851">
        <ele>213.498343</ele>
        <time>2026-07-14T07:01:09.000Z</time>
      </trkpt>
      <trkpt lat="46.1386" lon="13.72837">
        <ele>213.845661</ele>
        <time>2026-07-14T07:01:12.000Z</time>
      </trkpt>
      <trkpt lat="46.13854" lon="13.72835">
        <ele>213.968714</ele>
        <time>2026-07-14T07:01:13.000Z</time>
      </trkpt>
      <trkpt lat="46.13848" lon="13.72833">
        <ele>214.101198</ele>
        <time>2026-07-14T07:01:14.000Z</time>
      </trkpt>
      <trkpt lat="46.13836" lon="13.72831">
        <ele>214.378747</ele>
        <time>2026-07-14T07:01:16.000Z</time>
      </trkpt>
      <trkpt lat="46.13825" lon="13.72827">
        <ele>213.94846</ele>
        <time>2026-07-14T07:01:18.000Z</time>
      </trkpt>
      <trkpt lat="46.13809" lon="13.72815">
        <ele>212.788494</ele>
        <time>2026-07-14T07:01:21.000Z</time>
      </trkpt>
      <trkpt lat="46.13804" lon="13.72809">
        <ele>212.384371</ele>
        <time>2026-07-14T07:01:22.000Z</time>
      </trkpt>
      <trkpt lat="46.138" lon="13.72802">
        <ele>211.950251</ele>
        <time>2026-07-14T07:01:23.000Z</time>
      </trkpt>
      <trkpt lat="46.13793" lon="13.72782">
        <ele>210.986023</ele>
        <time>2026-07-14T07:01:25.000Z</time>
      </trkpt>
      <trkpt lat="46.13775" lon="13.72738">
        <ele>208.70334</ele>
        <time>2026-07-14T07:01:29.000Z</time>
      </trkpt>
      <trkpt lat="46.13769" lon="13.72727">
        <ele>208.071735</ele>
        <time>2026-07-14T07:01:30.000Z</time>
      </trkpt>
      <trkpt lat="46.13733" lon="13.72665">
        <ele>204.540047</ele>
        <time>2026-07-14T07:01:36.000Z</time>
      </trkpt>
      <trkpt lat="46.13725" lon="13.72644">
        <ele>203.465848</ele>
        <time>2026-07-14T07:01:38.000Z</time>
      </trkpt>
      <trkpt lat="46.1372" lon="13.72622">
        <ele>202.943788</ele>
        <time>2026-07-14T07:01:40.000Z</time>
      </trkpt>
      <trkpt lat="46.13704" lon="13.72568">
        <ele>202.885367</ele>
        <time>2026-07-14T07:01:45.000Z</time>
      </trkpt>
      <trkpt lat="46.137" lon="13.72559">
        <ele>202.874514</ele>
        <time>2026-07-14T07:01:46.000Z</time>
      </trkpt>
      <trkpt lat="46.13689" lon="13.72543">
        <ele>202.852398</ele>
        <time>2026-07-14T07:01:48.000Z</time>
      </trkpt>
      <trkpt lat="46.13683" lon="13.72535">
        <ele>202.841308</ele>
        <time>2026-07-14T07:01:49.000Z</time>
      </trkpt>
      <trkpt lat="46.13652" lon="13.72507">
        <ele>202.788051</ele>
        <time>2026-07-14T07:01:54.000Z</time>
      </trkpt>
      <trkpt lat="46.13627" lon="13.72494">
        <ele>202.749851</ele>
        <time>2026-07-14T07:01:58.000Z</time>
      </trkpt>
      <trkpt lat="46.13621" lon="13.72491">
        <ele>202.741537</ele>
        <time>2026-07-14T07:01:59.000Z</time>
      </trkpt>
      <trkpt lat="46.13613" lon="13.72488">
        <ele>202.728761</ele>
        <time>2026-07-14T07:02:01.000Z</time>
      </trkpt>
      <trkpt lat="46.13601" lon="13.72479">
        <ele>202.710161</ele>
        <time>2026-07-14T07:02:04.000Z</time>
      </trkpt>
      <trkpt lat="46.13595" lon="13.72471">
        <ele>202.698115</ele>
        <time>2026-07-14T07:02:10.000Z</time>
      </trkpt>
      <trkpt lat="46.13592" lon="13.72469">
        <ele>202.766182</ele>
        <time>2026-07-14T07:02:12.000Z</time>
      </trkpt>
      <trkpt lat="46.13586" lon="13.72467">
        <ele>202.943467</ele>
        <time>2026-07-14T07:02:16.000Z</time>
      </trkpt>
      <trkpt lat="46.13579" lon="13.72461">
        <ele>203.165828</ele>
        <time>2026-07-14T07:02:22.000Z</time>
      </trkpt>
      <trkpt lat="46.13574" lon="13.72453">
        <ele>203.375347</ele>
        <time>2026-07-14T07:02:29.000Z</time>
      </trkpt>
      <trkpt lat="46.13573" lon="13.72452">
        <ele>203.396988</ele>
        <time>2026-07-14T07:02:30.000Z</time>
      </trkpt>
      <trkpt lat="46.13567" lon="13.72445">
        <ele>203.615454</ele>
        <time>2026-07-14T07:02:35.000Z</time>
      </trkpt>
      <trkpt lat="46.13555" lon="13.72441">
        <ele>203.925195</ele>
        <time>2026-07-14T07:02:41.000Z</time>
      </trkpt>
      <trkpt lat="46.1355" lon="13.7244">
        <ele>204.087388</ele>
        <time>2026-07-14T07:02:44.000Z</time>
      </trkpt>
      <trkpt lat="46.13545" lon="13.7244">
        <ele>204.217461</ele>
        <time>2026-07-14T07:02:46.000Z</time>
      </trkpt>
      <trkpt lat="46.13535" lon="13.72437">
        <ele>204.486573</ele>
        <time>2026-07-14T07:02:50.000Z</time>
      </trkpt>
      <trkpt lat="46.13521" lon="13.72436">
        <ele>204.864087</ele>
        <time>2026-07-14T07:02:57.000Z</time>
      </trkpt>
      <trkpt lat="46.13508" lon="13.72424">
        <ele>205.285219</ele>
        <time>2026-07-14T07:03:02.000Z</time>
      </trkpt>
      <trkpt lat="46.13506" lon="13.7242">
        <ele>205.37097</ele>
        <time>2026-07-14T07:03:03.000Z</time>
      </trkpt>
      <trkpt lat="46.13507" lon="13.72411">
        <ele>205.533128</ele>
        <time>2026-07-14T07:03:05.000Z</time>
      </trkpt>
      <trkpt lat="46.13511" lon="13.72384">
        <ele>206.063418</ele>
        <time>2026-07-14T07:03:11.000Z</time>
      </trkpt>
      <trkpt lat="46.13512" lon="13.72361">
        <ele>206.499227</ele>
        <time>2026-07-14T07:03:14.000Z</time>
      </trkpt>
      <trkpt lat="46.13514" lon="13.72351">
        <ele>206.682187</ele>
        <time>2026-07-14T07:03:15.000Z</time>
      </trkpt>
      <trkpt lat="46.13523" lon="13.72306">
        <ele>207.559392</ele>
        <time>2026-07-14T07:03:19.000Z</time>
      </trkpt>
      <trkpt lat="46.13524" lon="13.72294">
        <ele>207.32433</ele>
        <time>2026-07-14T07:03:20.000Z</time>
      </trkpt>
      <trkpt lat="46.13525" lon="13.7227">
        <ele>206.836679</ele>
        <time>2026-07-14T07:03:22.000Z</time>
      </trkpt>
      <trkpt lat="46.13524" lon="13.72258">
        <ele>206.613759</ele>
        <time>2026-07-14T07:03:23.000Z</time>
      </trkpt>
      <trkpt lat="46.13523" lon="13.72249">
        <ele>206.41773</ele>
        <time>2026-07-14T07:03:24.000Z</time>
      </trkpt>
      <trkpt lat="46.13519" lon="13.72233">
        <ele>206.076259</ele>
        <time>2026-07-14T07:03:26.000Z</time>
      </trkpt>
      <trkpt lat="46.13513" lon="13.72222">
        <ele>205.782363</ele>
        <time>2026-07-14T07:03:28.000Z</time>
      </trkpt>
      <trkpt lat="46.13508" lon="13.72218">
        <ele>205.621271</ele>
        <time>2026-07-14T07:03:29.000Z</time>
      </trkpt>
      <trkpt lat="46.13502" lon="13.72215">
        <ele>205.442622</ele>
        <time>2026-07-14T07:03:30.000Z</time>
      </trkpt>
      <trkpt lat="46.13484" lon="13.72209">
        <ele>204.91045</ele>
        <time>2026-07-14T07:03:33.000Z</time>
      </trkpt>
      <trkpt lat="46.13471" lon="13.72201">
        <ele>204.493475</ele>
        <time>2026-07-14T07:03:35.000Z</time>
      </trkpt>
      <trkpt lat="46.13461" lon="13.72189">
        <ele>204.119972</ele>
        <time>2026-07-14T07:03:37.000Z</time>
      </trkpt>
      <trkpt lat="46.1344" lon="13.72169">
        <ele>203.388671</ele>
        <time>2026-07-14T07:03:42.000Z</time>
      </trkpt>
      <trkpt lat="46.13421" lon="13.72159">
        <ele>202.817856</ele>
        <time>2026-07-14T07:03:48.000Z</time>
      </trkpt>
      <trkpt lat="46.13417" lon="13.72155">
        <ele>202.665843</ele>
        <time>2026-07-14T07:03:50.000Z</time>
      </trkpt>
      <trkpt lat="46.13415" lon="13.72153">
        <ele>202.583493</ele>
        <time>2026-07-14T07:03:51.000Z</time>
      </trkpt>
      <trkpt lat="46.13405" lon="13.72142">
        <ele>202.41795</ele>
        <time>2026-07-14T07:03:54.000Z</time>
      </trkpt>
      <trkpt lat="46.13389" lon="13.72121">
        <ele>202.734332</ele>
        <time>2026-07-14T07:03:59.000Z</time>
      </trkpt>
      <trkpt lat="46.13376" lon="13.721">
        <ele>203.024305</ele>
        <time>2026-07-14T07:04:03.000Z</time>
      </trkpt>
      <trkpt lat="46.13373" lon="13.72095">
        <ele>203.096754</ele>
        <time>2026-07-14T07:04:04.000Z</time>
      </trkpt>
      <trkpt lat="46.13349" lon="13.72056">
        <ele>203.626281</ele>
        <time>2026-07-14T07:04:12.000Z</time>
      </trkpt>
      <trkpt lat="46.13327" lon="13.72013">
        <ele>204.175279</ele>
        <time>2026-07-14T07:04:20.000Z</time>
      </trkpt>
      <trkpt lat="46.13324" lon="13.72009">
        <ele>204.241587</ele>
        <time>2026-07-14T07:04:21.000Z</time>
      </trkpt>
      <trkpt lat="46.13309" lon="13.71992">
        <ele>204.516851</ele>
        <time>2026-07-14T07:04:26.000Z</time>
      </trkpt>
      <trkpt lat="46.13301" lon="13.71986">
        <ele>204.650763</ele>
        <time>2026-07-14T07:04:29.000Z</time>
      </trkpt>
      <trkpt lat="46.13293" lon="13.71979">
        <ele>204.791808</ele>
        <time>2026-07-14T07:04:33.000Z</time>
      </trkpt>
      <trkpt lat="46.13278" lon="13.71966">
        <ele>205.155635</ele>
        <time>2026-07-14T07:04:40.000Z</time>
      </trkpt>
      <trkpt lat="46.13263" lon="13.71956">
        <ele>206.439675</ele>
        <time>2026-07-14T07:04:48.000Z</time>
      </trkpt>
      <trkpt lat="46.1325" lon="13.71949">
        <ele>207.467773</ele>
        <time>2026-07-14T07:04:55.000Z</time>
      </trkpt>
      <trkpt lat="46.13246" lon="13.71947">
        <ele>207.764912</ele>
        <time>2026-07-14T07:04:57.000Z</time>
      </trkpt>
      <trkpt lat="46.13233" lon="13.71939">
        <ele>208.847829</ele>
        <time>2026-07-14T07:05:05.000Z</time>
      </trkpt>
      <trkpt lat="46.13232" lon="13.71937">
        <ele>208.972797</ele>
        <time>2026-07-14T07:05:06.000Z</time>
      </trkpt>
      <trkpt lat="46.13215" lon="13.71919">
        <ele>210.556339</ele>
        <time>2026-07-14T07:05:15.000Z</time>
      </trkpt>
      <trkpt lat="46.13201" lon="13.71899">
        <ele>212.034967</ele>
        <time>2026-07-14T07:05:23.000Z</time>
      </trkpt>
      <trkpt lat="46.13191" lon="13.71887">
        <ele>212.99254</ele>
        <time>2026-07-14T07:05:29.000Z</time>
      </trkpt>
      <trkpt lat="46.13188" lon="13.71881">
        <ele>213.387618</ele>
        <time>2026-07-14T07:05:32.000Z</time>
      </trkpt>
      <trkpt lat="46.13183" lon="13.71878">
        <ele>213.750611</ele>
        <time>2026-07-14T07:05:34.000Z</time>
      </trkpt>
      <trkpt lat="46.13166" lon="13.71867">
        <ele>215.159414</ele>
        <time>2026-07-14T07:05:43.000Z</time>
      </trkpt>
      <trkpt lat="46.13152" lon="13.71866">
        <ele>216.243949</ele>
        <time>2026-07-14T07:05:51.000Z</time>
      </trkpt>
      <trkpt lat="46.13137" lon="13.71865">
        <ele>217.339935</ele>
        <time>2026-07-14T07:05:59.000Z</time>
      </trkpt>
      <trkpt lat="46.13122" lon="13.71864">
        <ele>218.505102</ele>
        <time>2026-07-14T07:06:07.000Z</time>
      </trkpt>
      <trkpt lat="46.13104" lon="13.71864">
        <ele>218.896252</ele>
        <time>2026-07-14T07:06:16.000Z</time>
      </trkpt>
      <trkpt lat="46.13094" lon="13.71865">
        <ele>219.116899</ele>
        <time>2026-07-14T07:06:21.000Z</time>
      </trkpt>
      <trkpt lat="46.13088" lon="13.71866">
        <ele>219.249882</ele>
        <time>2026-07-14T07:06:24.000Z</time>
      </trkpt>
      <trkpt lat="46.13072" lon="13.71866">
        <ele>219.587825</ele>
        <time>2026-07-14T07:06:32.000Z</time>
      </trkpt>
      <trkpt lat="46.13054" lon="13.71871">
        <ele>219.988126</ele>
        <time>2026-07-14T07:06:41.000Z</time>
      </trkpt>
      <trkpt lat="46.13037" lon="13.7187">
        <ele>220.359013</ele>
        <time>2026-07-14T07:06:48.000Z</time>
      </trkpt>
      <trkpt lat="46.13033" lon="13.71871">
        <ele>220.456608</ele>
        <time>2026-07-14T07:06:50.000Z</time>
      </trkpt>
      <trkpt lat="46.1303" lon="13.71872">
        <ele>220.509913</ele>
        <time>2026-07-14T07:06:51.000Z</time>
      </trkpt>
      <trkpt lat="46.13021" lon="13.71874">
        <ele>220.710102</ele>
        <time>2026-07-14T07:06:54.000Z</time>
      </trkpt>
      <trkpt lat="46.13012" lon="13.7187">
        <ele>220.926283</ele>
        <time>2026-07-14T07:06:57.000Z</time>
      </trkpt>
      <trkpt lat="46.13009" lon="13.71867">
        <ele>220.996487</ele>
        <time>2026-07-14T07:06:58.000Z</time>
      </trkpt>
      <trkpt lat="46.12998" lon="13.71847">
        <ele>221.382329</ele>
        <time>2026-07-14T07:07:02.000Z</time>
      </trkpt>
      <trkpt lat="46.12984" lon="13.71837">
        <ele>221.727459</ele>
        <time>2026-07-14T07:07:06.000Z</time>
      </trkpt>
      <trkpt lat="46.12968" lon="13.71823">
        <ele>222.128017</ele>
        <time>2026-07-14T07:07:11.000Z</time>
      </trkpt>
      <trkpt lat="46.12952" lon="13.71793">
        <ele>221.801363</ele>
        <time>2026-07-14T07:07:16.000Z</time>
      </trkpt>
      <trkpt lat="46.12944" lon="13.71778">
        <ele>221.138589</ele>
        <time>2026-07-14T07:07:18.000Z</time>
      </trkpt>
      <trkpt lat="46.12933" lon="13.71767">
        <ele>220.504065</ele>
        <time>2026-07-14T07:07:20.000Z</time>
      </trkpt>
      <trkpt lat="46.12916" lon="13.71756">
        <ele>219.587815</ele>
        <time>2026-07-14T07:07:24.000Z</time>
      </trkpt>
      <trkpt lat="46.12908" lon="13.7175">
        <ele>219.131005</ele>
        <time>2026-07-14T07:07:26.000Z</time>
      </trkpt>
      <trkpt lat="46.129" lon="13.71741">
        <ele>218.640741</ele>
        <time>2026-07-14T07:07:28.000Z</time>
      </trkpt>
      <trkpt lat="46.12897" lon="13.71737">
        <ele>218.440798</ele>
        <time>2026-07-14T07:07:29.000Z</time>
      </trkpt>
      <trkpt lat="46.12875" lon="13.71692">
        <ele>216.539616</ele>
        <time>2026-07-14T07:07:37.000Z</time>
      </trkpt>
      <trkpt lat="46.12864" lon="13.71659">
        <ele>215.288784</ele>
        <time>2026-07-14T07:07:43.000Z</time>
      </trkpt>
      <trkpt lat="46.1286" lon="13.71651">
        <ele>214.941864</ele>
        <time>2026-07-14T07:07:44.000Z</time>
      </trkpt>
      <trkpt lat="46.12852" lon="13.71633">
        <ele>214.212286</ele>
        <time>2026-07-14T07:07:50.000Z</time>
      </trkpt>
      <trkpt lat="46.12842" lon="13.71614">
        <ele>213.376463</ele>
        <time>2026-07-14T07:07:55.000Z</time>
      </trkpt>
      <trkpt lat="46.12834" lon="13.71605">
        <ele>212.832809</ele>
        <time>2026-07-14T07:07:58.000Z</time>
      </trkpt>
      <trkpt lat="46.12825" lon="13.71599">
        <ele>212.281233</ele>
        <time>2026-07-14T07:08:00.000Z</time>
      </trkpt>
      <trkpt lat="46.1282" lon="13.71596">
        <ele>211.972969</ele>
        <time>2026-07-14T07:08:01.000Z</time>
      </trkpt>
      <trkpt lat="46.12815" lon="13.71592">
        <ele>211.6436</ele>
        <time>2026-07-14T07:08:02.000Z</time>
      </trkpt>
      <trkpt lat="46.12777" lon="13.71571">
        <ele>209.393164</ele>
        <time>2026-07-14T07:08:09.000Z</time>
      </trkpt>
      <trkpt lat="46.12726" lon="13.71553">
        <ele>206.52402</ele>
        <time>2026-07-14T07:08:18.000Z</time>
      </trkpt>
      <trkpt lat="46.12719" lon="13.71552">
        <ele>206.101668</ele>
        <time>2026-07-14T07:08:19.000Z</time>
      </trkpt>
      <trkpt lat="46.12698" lon="13.71548">
        <ele>204.930891</ele>
        <time>2026-07-14T07:08:23.000Z</time>
      </trkpt>
      <trkpt lat="46.12675" lon="13.71542">
        <ele>203.666371</ele>
        <time>2026-07-14T07:08:28.000Z</time>
      </trkpt>
      <trkpt lat="46.12658" lon="13.71538">
        <ele>202.242549</ele>
        <time>2026-07-14T07:08:32.000Z</time>
      </trkpt>
      <trkpt lat="46.1265" lon="13.71535">
        <ele>201.586743</ele>
        <time>2026-07-14T07:08:34.000Z</time>
      </trkpt>
      <trkpt lat="46.12627" lon="13.71531">
        <ele>199.658039</ele>
        <time>2026-07-14T07:08:40.000Z</time>
      </trkpt>
      <trkpt lat="46.12603" lon="13.71526">
        <ele>197.688709</ele>
        <time>2026-07-14T07:08:47.000Z</time>
      </trkpt>
      <trkpt lat="46.12595" lon="13.71518">
        <ele>196.939738</ele>
        <time>2026-07-14T07:08:52.000Z</time>
      </trkpt>
      <trkpt lat="46.12595" lon="13.71518">
        <ele>196.939738</ele>
        <time>2026-07-14T07:08:53.000Z</time>
      </trkpt>
      <trkpt lat="46.12593" lon="13.7151">
        <ele>196.428919</ele>
        <time>2026-07-14T07:09:14.000Z</time>
      </trkpt>
      <trkpt lat="46.12591" lon="13.71506">
        <ele>196.14361</ele>
        <time>2026-07-14T07:09:15.000Z</time>
      </trkpt>
      <trkpt lat="46.12583" lon="13.71485">
        <ele>194.785329</ele>
        <time>2026-07-14T07:09:19.000Z</time>
      </trkpt>
      <trkpt lat="46.1258" lon="13.7148">
        <ele>194.420582</ele>
        <time>2026-07-14T07:09:20.000Z</time>
      </trkpt>
      <trkpt lat="46.12564" lon="13.71443">
        <ele>191.966659</ele>
        <time>2026-07-14T07:09:26.000Z</time>
      </trkpt>
      <trkpt lat="46.12554" lon="13.71397">
        <ele>189.205463</ele>
        <time>2026-07-14T07:09:32.000Z</time>
      </trkpt>
      <trkpt lat="46.12552" lon="13.71385">
        <ele>188.538023</ele>
        <time>2026-07-14T07:09:33.000Z</time>
      </trkpt>
      <trkpt lat="46.12544" lon="13.7136">
        <ele>187.309111</ele>
        <time>2026-07-14T07:09:39.000Z</time>
      </trkpt>
      <trkpt lat="46.1254" lon="13.71349">
        <ele>186.691212</ele>
        <time>2026-07-14T07:09:43.000Z</time>
      </trkpt>
      <trkpt lat="46.12539" lon="13.71347">
        <ele>186.572425</ele>
        <time>2026-07-14T07:09:45.000Z</time>
      </trkpt>
      <trkpt lat="46.12538" lon="13.71333">
        <ele>185.932821</ele>
        <time>2026-07-14T07:10:04.000Z</time>
      </trkpt>
      <trkpt lat="46.12537" lon="13.7133">
        <ele>185.763897</ele>
        <time>2026-07-14T07:10:05.000Z</time>
      </trkpt>
      <trkpt lat="46.12525" lon="13.71322">
        <ele>184.86873</ele>
        <time>2026-07-14T07:10:09.000Z</time>
      </trkpt>
      <trkpt lat="46.12513" lon="13.71318">
        <ele>184.064005</ele>
        <time>2026-07-14T07:10:12.000Z</time>
      </trkpt>
      <trkpt lat="46.12505" lon="13.71318">
        <ele>183.498018</ele>
        <time>2026-07-14T07:10:14.000Z</time>
      </trkpt>
      <trkpt lat="46.12491" lon="13.71317">
        <ele>182.589717</ele>
        <time>2026-07-14T07:10:18.000Z</time>
      </trkpt>
      <trkpt lat="46.12475" lon="13.71309">
        <ele>181.461796</ele>
        <time>2026-07-14T07:10:23.000Z</time>
      </trkpt>
      <trkpt lat="46.12463" lon="13.713">
        <ele>180.533634</ele>
        <time>2026-07-14T07:10:27.000Z</time>
      </trkpt>
      <trkpt lat="46.12462" lon="13.71299">
        <ele>180.427587</ele>
        <time>2026-07-14T07:10:28.000Z</time>
      </trkpt>
      <trkpt lat="46.12461" lon="13.71299">
        <ele>180.407407</ele>
        <time>2026-07-14T07:10:30.000Z</time>
      </trkpt>
      <trkpt lat="46.12457" lon="13.71301">
        <ele>180.125554</ele>
        <time>2026-07-14T07:10:48.000Z</time>
      </trkpt>
      <trkpt lat="46.12445" lon="13.71308">
        <ele>179.246882</ele>
        <time>2026-07-14T07:10:53.000Z</time>
      </trkpt>
      <trkpt lat="46.12438" lon="13.7131">
        <ele>178.754523</ele>
        <time>2026-07-14T07:10:57.000Z</time>
      </trkpt>
      <trkpt lat="46.12436" lon="13.7131">
        <ele>178.599738</ele>
        <time>2026-07-14T07:10:58.000Z</time>
      </trkpt>
      <trkpt lat="46.12417" lon="13.71306">
        <ele>177.346625</ele>
        <time>2026-07-14T07:11:03.000Z</time>
      </trkpt>
      <trkpt lat="46.12405" lon="13.71309">
        <ele>176.85119</ele>
        <time>2026-07-14T07:11:06.000Z</time>
      </trkpt>
      <trkpt lat="46.12401" lon="13.71308">
        <ele>176.971516</ele>
        <time>2026-07-14T07:11:07.000Z</time>
      </trkpt>
      <trkpt lat="46.12399" lon="13.71308">
        <ele>177.048144</ele>
        <time>2026-07-14T07:11:10.000Z</time>
      </trkpt>
      <trkpt lat="46.12451" lon="13.7126">
        <ele>179.286106</ele>
        <time>2026-07-14T07:14:48.000Z</time>
      </trkpt>
      <trkpt lat="46.12457" lon="13.71259">
        <ele>179.482035</ele>
        <time>2026-07-14T07:14:50.000Z</time>
      </trkpt>
      <trkpt lat="46.12471" lon="13.71254">
        <ele>180.020278</ele>
        <time>2026-07-14T07:14:56.000Z</time>
      </trkpt>
      <trkpt lat="46.12479" lon="13.71248">
        <ele>180.330515</ele>
        <time>2026-07-14T07:15:00.000Z</time>
      </trkpt>
      <trkpt lat="46.12483" lon="13.71246">
        <ele>180.487084</ele>
        <time>2026-07-14T07:15:02.000Z</time>
      </trkpt>
      <trkpt lat="46.12488" lon="13.7124">
        <ele>180.724857</ele>
        <time>2026-07-14T07:15:05.000Z</time>
      </trkpt>
      <trkpt lat="46.1249" lon="13.71237">
        <ele>180.84398</ele>
        <time>2026-07-14T07:15:07.000Z</time>
      </trkpt>
      <trkpt lat="46.12502" lon="13.71226">
        <ele>181.327173</ele>
        <time>2026-07-14T07:15:12.000Z</time>
      </trkpt>
      <trkpt lat="46.12504" lon="13.71223">
        <ele>181.434081</ele>
        <time>2026-07-14T07:15:13.000Z</time>
      </trkpt>
      <trkpt lat="46.12514" lon="13.71203">
        <ele>182.058493</ele>
        <time>2026-07-14T07:15:19.000Z</time>
      </trkpt>
      <trkpt lat="46.12522" lon="13.71178">
        <ele>182.760944</ele>
        <time>2026-07-14T07:15:27.000Z</time>
      </trkpt>
      <trkpt lat="46.12526" lon="13.7116">
        <ele>183.218642</ele>
        <time>2026-07-14T07:15:33.000Z</time>
      </trkpt>
      <trkpt lat="46.1253" lon="13.71145">
        <ele>183.535795</ele>
        <time>2026-07-14T07:15:40.000Z</time>
      </trkpt>
      <trkpt lat="46.12532" lon="13.71129">
        <ele>183.866773</ele>
        <time>2026-07-14T07:15:52.000Z</time>
      </trkpt>
      <trkpt lat="46.12534" lon="13.71123">
        <ele>183.994025</ele>
        <time>2026-07-14T07:15:54.000Z</time>
      </trkpt>
      <trkpt lat="46.12541" lon="13.71095">
        <ele>184.573723</ele>
        <time>2026-07-14T07:16:00.000Z</time>
      </trkpt>
      <trkpt lat="46.12541" lon="13.71081">
        <ele>184.850542</ele>
        <time>2026-07-14T07:16:02.000Z</time>
      </trkpt>
      <trkpt lat="46.12541" lon="13.71067">
        <ele>185.119629</ele>
        <time>2026-07-14T07:16:04.000Z</time>
      </trkpt>
      <trkpt lat="46.12542" lon="13.7106">
        <ele>185.262781</ele>
        <time>2026-07-14T07:16:05.000Z</time>
      </trkpt>
      <trkpt lat="46.12544" lon="13.7104">
        <ele>185.65209</ele>
        <time>2026-07-14T07:16:08.000Z</time>
      </trkpt>
      <trkpt lat="46.12543" lon="13.71031">
        <ele>185.834117</ele>
        <time>2026-07-14T07:16:10.000Z</time>
      </trkpt>
      <trkpt lat="46.12546" lon="13.71011">
        <ele>186.242937</ele>
        <time>2026-07-14T07:16:16.000Z</time>
      </trkpt>
      <trkpt lat="46.12544" lon="13.70993">
        <ele>186.595003</ele>
        <time>2026-07-14T07:16:22.000Z</time>
      </trkpt>
      <trkpt lat="46.12544" lon="13.7099">
        <ele>186.656124</ele>
        <time>2026-07-14T07:16:23.000Z</time>
      </trkpt>
      <trkpt lat="46.12543" lon="13.70975">
        <ele>186.948698</ele>
        <time>2026-07-14T07:16:28.000Z</time>
      </trkpt>
      <trkpt lat="46.12539" lon="13.70965">
        <ele>187.181566</ele>
        <time>2026-07-14T07:16:32.000Z</time>
      </trkpt>
      <trkpt lat="46.12538" lon="13.70949">
        <ele>187.490751</ele>
        <time>2026-07-14T07:16:37.000Z</time>
      </trkpt>
      <trkpt lat="46.12536" lon="13.70939">
        <ele>187.691308</ele>
        <time>2026-07-14T07:16:41.000Z</time>
      </trkpt>
      <trkpt lat="46.12535" lon="13.70937">
        <ele>187.734091</ele>
        <time>2026-07-14T07:16:42.000Z</time>
      </trkpt>
      <trkpt lat="46.12534" lon="13.70923">
        <ele>188.005183</ele>
        <time>2026-07-14T07:16:48.000Z</time>
      </trkpt>
      <trkpt lat="46.12534" lon="13.70921">
        <ele>188.054992</ele>
        <time>2026-07-14T07:16:49.000Z</time>
      </trkpt>
      <trkpt lat="46.12534" lon="13.70915">
        <ele>188.168635</ele>
        <time>2026-07-14T07:16:52.000Z</time>
      </trkpt>
      <trkpt lat="46.12532" lon="13.70913">
        <ele>188.23401</ele>
        <time>2026-07-14T07:16:54.000Z</time>
      </trkpt>
      <trkpt lat="46.12529" lon="13.70903">
        <ele>188.51511</ele>
        <time>2026-07-14T07:16:59.000Z</time>
      </trkpt>
      <trkpt lat="46.12529" lon="13.70901">
        <ele>188.568395</ele>
        <time>2026-07-14T07:17:00.000Z</time>
      </trkpt>
      <trkpt lat="46.12528" lon="13.70898">
        <ele>188.665501</ele>
        <time>2026-07-14T07:17:02.000Z</time>
      </trkpt>
      <trkpt lat="46.12528" lon="13.70893">
        <ele>188.798781</ele>
        <time>2026-07-14T07:17:05.000Z</time>
      </trkpt>
      <trkpt lat="46.12526" lon="13.70886">
        <ele>189.021323</ele>
        <time>2026-07-14T07:17:09.000Z</time>
      </trkpt>
      <trkpt lat="46.12526" lon="13.70884">
        <ele>189.087698</ele>
        <time>2026-07-14T07:17:10.000Z</time>
      </trkpt>
      <trkpt lat="46.12524" lon="13.70867">
        <ele>189.59673</ele>
        <time>2026-07-14T07:17:17.000Z</time>
      </trkpt>
      <trkpt lat="46.12523" lon="13.70863">
        <ele>189.728098</ele>
        <time>2026-07-14T07:17:19.000Z</time>
      </trkpt>
      <trkpt lat="46.1252" lon="13.70853">
        <ele>190.055966</ele>
        <time>2026-07-14T07:17:23.000Z</time>
      </trkpt>
      <trkpt lat="46.12518" lon="13.70834">
        <ele>190.609596</ele>
        <time>2026-07-14T07:17:30.000Z</time>
      </trkpt>
      <trkpt lat="46.12517" lon="13.70818">
        <ele>191.09628</ele>
        <time>2026-07-14T07:17:37.000Z</time>
      </trkpt>
      <trkpt lat="46.12517" lon="13.70815">
        <ele>191.194063</ele>
        <time>2026-07-14T07:17:39.000Z</time>
      </trkpt>
      <trkpt lat="46.12517" lon="13.7081">
        <ele>191.340679</ele>
        <time>2026-07-14T07:17:41.000Z</time>
      </trkpt>
      <trkpt lat="46.12514" lon="13.70795">
        <ele>191.778131</ele>
        <time>2026-07-14T07:17:45.000Z</time>
      </trkpt>
      <trkpt lat="46.12513" lon="13.70776">
        <ele>192.362866</ele>
        <time>2026-07-14T07:17:50.000Z</time>
      </trkpt>
      <trkpt lat="46.12512" lon="13.70752">
        <ele>193.078448</ele>
        <time>2026-07-14T07:17:56.000Z</time>
      </trkpt>
      <trkpt lat="46.12508" lon="13.70729">
        <ele>193.764818</ele>
        <time>2026-07-14T07:18:04.000Z</time>
      </trkpt>
      <trkpt lat="46.12506" lon="13.70716">
        <ele>194.17476</ele>
        <time>2026-07-14T07:18:09.000Z</time>
      </trkpt>
      <trkpt lat="46.12506" lon="13.7071">
        <ele>194.338469</ele>
        <time>2026-07-14T07:18:11.000Z</time>
      </trkpt>
      <trkpt lat="46.12506" lon="13.70705">
        <ele>194.495363</ele>
        <time>2026-07-14T07:18:13.000Z</time>
      </trkpt>
      <trkpt lat="46.125" lon="13.70686">
        <ele>195.112544</ele>
        <time>2026-07-14T07:18:20.000Z</time>
      </trkpt>
      <trkpt lat="46.12498" lon="13.70677">
        <ele>195.404852</ele>
        <time>2026-07-14T07:18:24.000Z</time>
      </trkpt>
      <trkpt lat="46.12496" lon="13.70672">
        <ele>195.565922</ele>
        <time>2026-07-14T07:18:26.000Z</time>
      </trkpt>
      <trkpt lat="46.12488" lon="13.70651">
        <ele>196.56846</ele>
        <time>2026-07-14T07:18:33.000Z</time>
      </trkpt>
      <trkpt lat="46.12482" lon="13.70632">
        <ele>197.861566</ele>
        <time>2026-07-14T07:18:40.000Z</time>
      </trkpt>
      <trkpt lat="46.12479" lon="13.70608">
        <ele>199.446854</ele>
        <time>2026-07-14T07:18:48.000Z</time>
      </trkpt>
      <trkpt lat="46.12477" lon="13.70602">
        <ele>199.847658</ele>
        <time>2026-07-14T07:18:50.000Z</time>
      </trkpt>
      <trkpt lat="46.12476" lon="13.70596">
        <ele>200.239603</ele>
        <time>2026-07-14T07:18:52.000Z</time>
      </trkpt>
      <trkpt lat="46.12466" lon="13.70572">
        <ele>201.977486</ele>
        <time>2026-07-14T07:19:00.000Z</time>
      </trkpt>
      <trkpt lat="46.12459" lon="13.70558">
        <ele>203.070648</ele>
        <time>2026-07-14T07:19:06.000Z</time>
      </trkpt>
      <trkpt lat="46.12458" lon="13.70557">
        <ele>203.216724</ele>
        <time>2026-07-14T07:19:07.000Z</time>
      </trkpt>
      <trkpt lat="46.12457" lon="13.70558">
        <ele>203.244849</ele>
        <time>2026-07-14T07:19:09.000Z</time>
      </trkpt>
      <trkpt lat="46.12413" lon="13.70482">
        <ele>209.488864</ele>
        <time>2026-07-14T07:21:08.000Z</time>
      </trkpt>
      <trkpt lat="46.12411" lon="13.7048">
        <ele>209.715281</ele>
        <time>2026-07-14T07:21:09.000Z</time>
      </trkpt>
      <trkpt lat="46.12409" lon="13.70477">
        <ele>210.01938</ele>
        <time>2026-07-14T07:21:11.000Z</time>
      </trkpt>
      <trkpt lat="46.12404" lon="13.70472">
        <ele>210.568771</ele>
        <time>2026-07-14T07:21:14.000Z</time>
      </trkpt>
      <trkpt lat="46.12398" lon="13.70466">
        <ele>211.22438</ele>
        <time>2026-07-14T07:21:18.000Z</time>
      </trkpt>
      <trkpt lat="46.12396" lon="13.70464">
        <ele>211.413464</ele>
        <time>2026-07-14T07:21:19.000Z</time>
      </trkpt>
      <trkpt lat="46.12386" lon="13.70451">
        <ele>212.471704</ele>
        <time>2026-07-14T07:21:26.000Z</time>
      </trkpt>
      <trkpt lat="46.12382" lon="13.70445">
        <ele>212.558976</ele>
        <time>2026-07-14T07:21:29.000Z</time>
      </trkpt>
      <trkpt lat="46.1237" lon="13.7043">
        <ele>212.787352</ele>
        <time>2026-07-14T07:21:37.000Z</time>
      </trkpt>
      <trkpt lat="46.12362" lon="13.70424">
        <ele>212.913533</ele>
        <time>2026-07-14T07:21:42.000Z</time>
      </trkpt>
      <trkpt lat="46.12357" lon="13.70422">
        <ele>212.97807</ele>
        <time>2026-07-14T07:21:44.000Z</time>
      </trkpt>
      <trkpt lat="46.12348" lon="13.70417">
        <ele>213.118524</ele>
        <time>2026-07-14T07:21:49.000Z</time>
      </trkpt>
      <trkpt lat="46.12344" lon="13.70414">
        <ele>213.181666</ele>
        <time>2026-07-14T07:21:51.000Z</time>
      </trkpt>
      <trkpt lat="46.12332" lon="13.70403">
        <ele>213.384417</ele>
        <time>2026-07-14T07:21:58.000Z</time>
      </trkpt>
      <trkpt lat="46.12319" lon="13.70391">
        <ele>213.60784</ele>
        <time>2026-07-14T07:22:05.000Z</time>
      </trkpt>
      <trkpt lat="46.12314" lon="13.70388">
        <ele>213.682136</ele>
        <time>2026-07-14T07:22:07.000Z</time>
      </trkpt>
      <trkpt lat="46.12299" lon="13.70376">
        <ele>213.932655</ele>
        <time>2026-07-14T07:22:14.000Z</time>
      </trkpt>
      <trkpt lat="46.12289" lon="13.70358">
        <ele>214.162748</ele>
        <time>2026-07-14T07:22:19.000Z</time>
      </trkpt>
      <trkpt lat="46.12268" lon="13.70338">
        <ele>214.516375</ele>
        <time>2026-07-14T07:22:25.000Z</time>
      </trkpt>
      <trkpt lat="46.12257" lon="13.70326">
        <ele>214.716828</ele>
        <time>2026-07-14T07:22:29.000Z</time>
      </trkpt>
      <trkpt lat="46.12243" lon="13.70312">
        <ele>214.965456</ele>
        <time>2026-07-14T07:22:34.000Z</time>
      </trkpt>
      <trkpt lat="46.12224" lon="13.70295">
        <ele>215.072048</ele>
        <time>2026-07-14T07:22:40.000Z</time>
      </trkpt>
      <trkpt lat="46.12202" lon="13.70282">
        <ele>215.156479</ele>
        <time>2026-07-14T07:22:47.000Z</time>
      </trkpt>
      <trkpt lat="46.12188" lon="13.70277">
        <ele>215.210602</ele>
        <time>2026-07-14T07:22:52.000Z</time>
      </trkpt>
      <trkpt lat="46.12176" lon="13.70262">
        <ele>215.265875</ele>
        <time>2026-07-14T07:22:57.000Z</time>
      </trkpt>
      <trkpt lat="46.12163" lon="13.7024">
        <ele>215.341064</ele>
        <time>2026-07-14T07:23:03.000Z</time>
      </trkpt>
      <trkpt lat="46.12147" lon="13.70214">
        <ele>215.425944</ele>
        <time>2026-07-14T07:23:09.000Z</time>
      </trkpt>
      <trkpt lat="46.12138" lon="13.70199">
        <ele>215.476308</ele>
        <time>2026-07-14T07:23:13.000Z</time>
      </trkpt>
      <trkpt lat="46.12134" lon="13.70196">
        <ele>215.491536</ele>
        <time>2026-07-14T07:23:14.000Z</time>
      </trkpt>
      <trkpt lat="46.12112" lon="13.70177">
        <ele>215.583977</ele>
        <time>2026-07-14T07:23:20.000Z</time>
      </trkpt>
      <trkpt lat="46.12096" lon="13.70166">
        <ele>215.648843</ele>
        <time>2026-07-14T07:23:24.000Z</time>
      </trkpt>
      <trkpt lat="46.12085" lon="13.70158">
        <ele>215.205552</ele>
        <time>2026-07-14T07:23:27.000Z</time>
      </trkpt>
      <trkpt lat="46.12069" lon="13.70144">
        <ele>214.441106</ele>
        <time>2026-07-14T07:23:32.000Z</time>
      </trkpt>
      <trkpt lat="46.12055" lon="13.70133">
        <ele>213.797386</ele>
        <time>2026-07-14T07:23:37.000Z</time>
      </trkpt>
      <trkpt lat="46.12045" lon="13.70127">
        <ele>213.331368</ele>
        <time>2026-07-14T07:23:40.000Z</time>
      </trkpt>
      <trkpt lat="46.12012" lon="13.7011">
        <ele>211.91039</ele>
        <time>2026-07-14T07:23:49.000Z</time>
      </trkpt>
      <trkpt lat="46.1199" lon="13.70098">
        <ele>210.957286</ele>
        <time>2026-07-14T07:23:54.000Z</time>
      </trkpt>
      <trkpt lat="46.11977" lon="13.7009">
        <ele>210.401994</ele>
        <time>2026-07-14T07:23:56.000Z</time>
      </trkpt>
      <trkpt lat="46.11948" lon="13.70067">
        <ele>209.051136</ele>
        <time>2026-07-14T07:24:01.000Z</time>
      </trkpt>
      <trkpt lat="46.11944" lon="13.70062">
        <ele>208.820116</ele>
        <time>2026-07-14T07:24:02.000Z</time>
      </trkpt>
      <trkpt lat="46.11934" lon="13.7005">
        <ele>208.337923</ele>
        <time>2026-07-14T07:24:04.000Z</time>
      </trkpt>
      <trkpt lat="46.11927" lon="13.70038">
        <ele>208.105537</ele>
        <time>2026-07-14T07:24:06.000Z</time>
      </trkpt>
      <trkpt lat="46.11923" lon="13.70032">
        <ele>207.990875</ele>
        <time>2026-07-14T07:24:07.000Z</time>
      </trkpt>
      <trkpt lat="46.11912" lon="13.70021">
        <ele>207.723616</ele>
        <time>2026-07-14T07:24:09.000Z</time>
      </trkpt>
      <trkpt lat="46.11906" lon="13.70015">
        <ele>207.558232</ele>
        <time>2026-07-14T07:24:10.000Z</time>
      </trkpt>
      <trkpt lat="46.11897" lon="13.70008">
        <ele>207.364526</ele>
        <time>2026-07-14T07:24:11.000Z</time>
      </trkpt>
      <trkpt lat="46.1188" lon="13.69996">
        <ele>206.961234</ele>
        <time>2026-07-14T07:24:13.000Z</time>
      </trkpt>
      <trkpt lat="46.1187" lon="13.69991">
        <ele>206.756629</ele>
        <time>2026-07-14T07:24:14.000Z</time>
      </trkpt>
      <trkpt lat="46.11852" lon="13.69984">
        <ele>206.371387</ele>
        <time>2026-07-14T07:24:16.000Z</time>
      </trkpt>
      <trkpt lat="46.11844" lon="13.69983">
        <ele>206.198436</ele>
        <time>2026-07-14T07:24:17.000Z</time>
      </trkpt>
      <trkpt lat="46.11836" lon="13.69981">
        <ele>206.031994</ele>
        <time>2026-07-14T07:24:18.000Z</time>
      </trkpt>
      <trkpt lat="46.11829" lon="13.6998">
        <ele>205.89032</ele>
        <time>2026-07-14T07:24:19.000Z</time>
      </trkpt>
      <trkpt lat="46.11819" lon="13.69976">
        <ele>205.669085</ele>
        <time>2026-07-14T07:24:21.000Z</time>
      </trkpt>
      <trkpt lat="46.11811" lon="13.69975">
        <ele>205.512052</ele>
        <time>2026-07-14T07:24:23.000Z</time>
      </trkpt>
      <trkpt lat="46.11797" lon="13.6997">
        <ele>205.21417</ele>
        <time>2026-07-14T07:24:28.000Z</time>
      </trkpt>
      <trkpt lat="46.11781" lon="13.69966">
        <ele>204.87133</ele>
        <time>2026-07-14T07:24:33.000Z</time>
      </trkpt>
      <trkpt lat="46.1177" lon="13.69962">
        <ele>204.698569</ele>
        <time>2026-07-14T07:24:38.000Z</time>
      </trkpt>
      <trkpt lat="46.11767" lon="13.6996">
        <ele>204.859366</ele>
        <time>2026-07-14T07:24:39.000Z</time>
      </trkpt>
      <trkpt lat="46.11763" lon="13.6996">
        <ele>205.030105</ele>
        <time>2026-07-14T07:24:40.000Z</time>
      </trkpt>
      <trkpt lat="46.11755" lon="13.69958">
        <ele>205.459958</ele>
        <time>2026-07-14T07:24:43.000Z</time>
      </trkpt>
      <trkpt lat="46.1174" lon="13.69952">
        <ele>206.239239</ele>
        <time>2026-07-14T07:24:49.000Z</time>
      </trkpt>
      <trkpt lat="46.11738" lon="13.69953">
        <ele>206.384069</ele>
        <time>2026-07-14T07:24:50.000Z</time>
      </trkpt>
      <trkpt lat="46.11725" lon="13.69951">
        <ele>207.029668</ele>
        <time>2026-07-14T07:24:55.000Z</time>
      </trkpt>
      <trkpt lat="46.11723" lon="13.69949">
        <ele>207.126821</ele>
        <time>2026-07-14T07:24:56.000Z</time>
      </trkpt>
      <trkpt lat="46.11715" lon="13.69944">
        <ele>207.614981</ele>
        <time>2026-07-14T07:25:01.000Z</time>
      </trkpt>
      <trkpt lat="46.117" lon="13.69942">
        <ele>208.373269</ele>
        <time>2026-07-14T07:25:08.000Z</time>
      </trkpt>
      <trkpt lat="46.11692" lon="13.69941">
        <ele>208.775577</ele>
        <time>2026-07-14T07:25:12.000Z</time>
      </trkpt>
      <trkpt lat="46.11688" lon="13.69941">
        <ele>209.006604</ele>
        <time>2026-07-14T07:25:14.000Z</time>
      </trkpt>
      <trkpt lat="46.11675" lon="13.69938">
        <ele>209.649489</ele>
        <time>2026-07-14T07:25:20.000Z</time>
      </trkpt>
      <trkpt lat="46.11671" lon="13.69936">
        <ele>209.860778</ele>
        <time>2026-07-14T07:25:21.000Z</time>
      </trkpt>
      <trkpt lat="46.11666" lon="13.69932">
        <ele>210.170776</ele>
        <time>2026-07-14T07:25:25.000Z</time>
      </trkpt>
      <trkpt lat="46.1165" lon="13.69929">
        <ele>211.008229</ele>
        <time>2026-07-14T07:25:34.000Z</time>
      </trkpt>
      <trkpt lat="46.11638" lon="13.69928">
        <ele>211.598732</ele>
        <time>2026-07-14T07:25:40.000Z</time>
      </trkpt>
      <trkpt lat="46.11624" lon="13.69925">
        <ele>212.326362</ele>
        <time>2026-07-14T07:25:47.000Z</time>
      </trkpt>
      <trkpt lat="46.11617" lon="13.69922">
        <ele>212.719077</ele>
        <time>2026-07-14T07:25:51.000Z</time>
      </trkpt>
      <trkpt lat="46.11614" lon="13.6992">
        <ele>212.893399</ele>
        <time>2026-07-14T07:25:53.000Z</time>
      </trkpt>
      <trkpt lat="46.11609" lon="13.69918">
        <ele>213.16623</ele>
        <time>2026-07-14T07:25:56.000Z</time>
      </trkpt>
      <trkpt lat="46.11596" lon="13.69912">
        <ele>213.863705</ele>
        <time>2026-07-14T07:26:02.000Z</time>
      </trkpt>
      <trkpt lat="46.11581" lon="13.69911">
        <ele>213.167032</ele>
        <time>2026-07-14T07:26:09.000Z</time>
      </trkpt>
      <trkpt lat="46.11563" lon="13.6991">
        <ele>212.284999</ele>
        <time>2026-07-14T07:26:18.000Z</time>
      </trkpt>
      <trkpt lat="46.11558" lon="13.69908">
        <ele>212.031207</ele>
        <time>2026-07-14T07:26:21.000Z</time>
      </trkpt>
      <trkpt lat="46.11546" lon="13.69904">
        <ele>211.406098</ele>
        <time>2026-07-14T07:26:27.000Z</time>
      </trkpt>
      <trkpt lat="46.11532" lon="13.69899">
        <ele>210.680521</ele>
        <time>2026-07-14T07:26:30.000Z</time>
      </trkpt>
      <trkpt lat="46.11526" lon="13.69896">
        <ele>210.361414</ele>
        <time>2026-07-14T07:26:31.000Z</time>
      </trkpt>
      <trkpt lat="46.1152" lon="13.69892">
        <ele>210.042858</ele>
        <time>2026-07-14T07:26:32.000Z</time>
      </trkpt>
      <trkpt lat="46.11511" lon="13.69881">
        <ele>209.444162</ele>
        <time>2026-07-14T07:26:34.000Z</time>
      </trkpt>
      <trkpt lat="46.11506" lon="13.69875">
        <ele>209.156275</ele>
        <time>2026-07-14T07:26:35.000Z</time>
      </trkpt>
      <trkpt lat="46.11503" lon="13.6987">
        <ele>208.887265</ele>
        <time>2026-07-14T07:26:36.000Z</time>
      </trkpt>
      <trkpt lat="46.11499" lon="13.69864">
        <ele>208.637255</ele>
        <time>2026-07-14T07:26:37.000Z</time>
      </trkpt>
      <trkpt lat="46.11494" lon="13.69853">
        <ele>208.160847</ele>
        <time>2026-07-14T07:26:39.000Z</time>
      </trkpt>
      <trkpt lat="46.11491" lon="13.69848">
        <ele>207.92577</ele>
        <time>2026-07-14T07:26:40.000Z</time>
      </trkpt>
      <trkpt lat="46.11487" lon="13.69842">
        <ele>207.654999</ele>
        <time>2026-07-14T07:26:41.000Z</time>
      </trkpt>
      <trkpt lat="46.1148" lon="13.69829">
        <ele>207.087566</ele>
        <time>2026-07-14T07:26:43.000Z</time>
      </trkpt>
      <trkpt lat="46.11478" lon="13.69822">
        <ele>206.819653</ele>
        <time>2026-07-14T07:26:44.000Z</time>
      </trkpt>
      <trkpt lat="46.11478" lon="13.69815">
        <ele>206.571418</ele>
        <time>2026-07-14T07:26:45.000Z</time>
      </trkpt>
      <trkpt lat="46.11479" lon="13.69793">
        <ele>205.821492</ele>
        <time>2026-07-14T07:26:48.000Z</time>
      </trkpt>
      <trkpt lat="46.11476" lon="13.6977">
        <ele>205.023636</ele>
        <time>2026-07-14T07:26:51.000Z</time>
      </trkpt>
      <trkpt lat="46.11474" lon="13.69763">
        <ele>204.601868</ele>
        <time>2026-07-14T07:26:52.000Z</time>
      </trkpt>
      <trkpt lat="46.1147" lon="13.69756">
        <ele>204.110019</ele>
        <time>2026-07-14T07:26:53.000Z</time>
      </trkpt>
      <trkpt lat="46.11456" lon="13.69728">
        <ele>202.089055</ele>
        <time>2026-07-14T07:26:57.000Z</time>
      </trkpt>
      <trkpt lat="46.11417" lon="13.69669">
        <ele>197.426832</ele>
        <time>2026-07-14T07:27:06.000Z</time>
      </trkpt>
      <trkpt lat="46.11414" lon="13.69662">
        <ele>196.947329</ele>
        <time>2026-07-14T07:27:07.000Z</time>
      </trkpt>
      <trkpt lat="46.11401" lon="13.69645">
        <ele>195.475604</ele>
        <time>2026-07-14T07:27:10.000Z</time>
      </trkpt>
      <trkpt lat="46.11397" lon="13.69639">
        <ele>195.048655</ele>
        <time>2026-07-14T07:27:11.000Z</time>
      </trkpt>
      <trkpt lat="46.11386" lon="13.69623">
        <ele>193.714092</ele>
        <time>2026-07-14T07:27:14.000Z</time>
      </trkpt>
      <trkpt lat="46.11383" lon="13.69617">
        <ele>193.264324</ele>
        <time>2026-07-14T07:27:15.000Z</time>
      </trkpt>
      <trkpt lat="46.11365" lon="13.69575">
        <ele>190.476563</ele>
        <time>2026-07-14T07:27:21.000Z</time>
      </trkpt>
      <trkpt lat="46.11351" lon="13.69533">
        <ele>188.89982</ele>
        <time>2026-07-14T07:27:26.000Z</time>
      </trkpt>
      <trkpt lat="46.11332" lon="13.69495">
        <ele>187.507068</ele>
        <time>2026-07-14T07:27:31.000Z</time>
      </trkpt>
      <trkpt lat="46.1132" lon="13.69462">
        <ele>186.439287</ele>
        <time>2026-07-14T07:27:35.000Z</time>
      </trkpt>
      <trkpt lat="46.11314" lon="13.69449">
        <ele>185.976801</ele>
        <time>2026-07-14T07:27:37.000Z</time>
      </trkpt>
      <trkpt lat="46.11311" lon="13.69444">
        <ele>185.779544</ele>
        <time>2026-07-14T07:27:38.000Z</time>
      </trkpt>
      <trkpt lat="46.11306" lon="13.69435">
        <ele>185.428892</ele>
        <time>2026-07-14T07:27:40.000Z</time>
      </trkpt>
      <trkpt lat="46.11304" lon="13.69425">
        <ele>185.138166</ele>
        <time>2026-07-14T07:27:42.000Z</time>
      </trkpt>
      <trkpt lat="46.11302" lon="13.694">
        <ele>184.403219</ele>
        <time>2026-07-14T07:27:46.000Z</time>
      </trkpt>
      <trkpt lat="46.11301" lon="13.69392">
        <ele>184.17037</ele>
        <time>2026-07-14T07:27:47.000Z</time>
      </trkpt>
      <trkpt lat="46.11289" lon="13.69355">
        <ele>182.97741</ele>
        <time>2026-07-14T07:27:53.000Z</time>
      </trkpt>
      <trkpt lat="46.11284" lon="13.6933">
        <ele>182.547349</ele>
        <time>2026-07-14T07:27:58.000Z</time>
      </trkpt>
      <trkpt lat="46.11281" lon="13.69312">
        <ele>182.770465</ele>
        <time>2026-07-14T07:28:02.000Z</time>
      </trkpt>
      <trkpt lat="46.11279" lon="13.69295">
        <ele>182.991151</ele>
        <time>2026-07-14T07:28:05.000Z</time>
      </trkpt>
      <trkpt lat="46.11272" lon="13.69255">
        <ele>183.49655</ele>
        <time>2026-07-14T07:28:12.000Z</time>
      </trkpt>
      <trkpt lat="46.11268" lon="13.69216">
        <ele>183.996123</ele>
        <time>2026-07-14T07:28:20.000Z</time>
      </trkpt>
      <trkpt lat="46.11267" lon="13.69185">
        <ele>184.371291</ele>
        <time>2026-07-14T07:28:27.000Z</time>
      </trkpt>
      <trkpt lat="46.11271" lon="13.69164">
        <ele>184.652776</ele>
        <time>2026-07-14T07:28:33.000Z</time>
      </trkpt>
      <trkpt lat="46.11275" lon="13.69147">
        <ele>184.86317</ele>
        <time>2026-07-14T07:28:40.000Z</time>
      </trkpt>
      <trkpt lat="46.11275" lon="13.69142">
        <ele>184.930233</ele>
        <time>2026-07-14T07:29:01.000Z</time>
      </trkpt>
      <trkpt lat="46.11275" lon="13.6914">
        <ele>184.959683</ele>
        <time>2026-07-14T07:29:02.000Z</time>
      </trkpt>
      <trkpt lat="46.11279" lon="13.6912">
        <ele>185.213161</ele>
        <time>2026-07-14T07:29:10.000Z</time>
      </trkpt>
      <trkpt lat="46.11279" lon="13.69117">
        <ele>185.248961</ele>
        <time>2026-07-14T07:29:11.000Z</time>
      </trkpt>
      <trkpt lat="46.11279" lon="13.69107">
        <ele>185.379805</ele>
        <time>2026-07-14T07:29:15.000Z</time>
      </trkpt>
      <trkpt lat="46.11277" lon="13.69093">
        <ele>185.555098</ele>
        <time>2026-07-14T07:29:20.000Z</time>
      </trkpt>
      <trkpt lat="46.11278" lon="13.69075">
        <ele>186.067652</ele>
        <time>2026-07-14T07:29:26.000Z</time>
      </trkpt>
      <trkpt lat="46.11278" lon="13.69052">
        <ele>187.110862</ele>
        <time>2026-07-14T07:29:34.000Z</time>
      </trkpt>
      <trkpt lat="46.11269" lon="13.69035">
        <ele>188.074923</ele>
        <time>2026-07-14T07:29:41.000Z</time>
      </trkpt>
      <trkpt lat="46.11255" lon="13.69026">
        <ele>189.089587</ele>
        <time>2026-07-14T07:29:48.000Z</time>
      </trkpt>
      <trkpt lat="46.1124" lon="13.6902">
        <ele>190.072032</ele>
        <time>2026-07-14T07:29:54.000Z</time>
      </trkpt>
      <trkpt lat="46.11229" lon="13.69018">
        <ele>190.817309</ele>
        <time>2026-07-14T07:29:57.000Z</time>
      </trkpt>
      <trkpt lat="46.11223" lon="13.69017">
        <ele>191.238475</ele>
        <time>2026-07-14T07:29:59.000Z</time>
      </trkpt>
      <trkpt lat="46.11219" lon="13.69012">
        <ele>191.536882</ele>
        <time>2026-07-14T07:30:01.000Z</time>
      </trkpt>
      <trkpt lat="46.11219" lon="13.69003">
        <ele>191.947084</ele>
        <time>2026-07-14T07:30:03.000Z</time>
      </trkpt>
      <trkpt lat="46.11209" lon="13.68977">
        <ele>193.329549</ele>
        <time>2026-07-14T07:30:12.000Z</time>
      </trkpt>
      <trkpt lat="46.11198" lon="13.68971">
        <ele>194.086825</ele>
        <time>2026-07-14T07:30:16.000Z</time>
      </trkpt>
      <trkpt lat="46.11179" lon="13.68965">
        <ele>195.416319</ele>
        <time>2026-07-14T07:30:23.000Z</time>
      </trkpt>
      <trkpt lat="46.11162" lon="13.68954">
        <ele>196.608857</ele>
        <time>2026-07-14T07:30:31.000Z</time>
      </trkpt>
      <trkpt lat="46.11152" lon="13.68947">
        <ele>197.311645</ele>
        <time>2026-07-14T07:30:36.000Z</time>
      </trkpt>
      <trkpt lat="46.11144" lon="13.68942">
        <ele>197.901819</ele>
        <time>2026-07-14T07:30:41.000Z</time>
      </trkpt>
      <trkpt lat="46.11129" lon="13.68935">
        <ele>198.892005</ele>
        <time>2026-07-14T07:30:49.000Z</time>
      </trkpt>
      <trkpt lat="46.11123" lon="13.68928">
        <ele>199.420099</ele>
        <time>2026-07-14T07:30:53.000Z</time>
      </trkpt>
      <trkpt lat="46.1112" lon="13.68925">
        <ele>199.635924</ele>
        <time>2026-07-14T07:30:55.000Z</time>
      </trkpt>
      <trkpt lat="46.11111" lon="13.68921">
        <ele>200.225243</ele>
        <time>2026-07-14T07:30:58.000Z</time>
      </trkpt>
      <trkpt lat="46.11109" lon="13.68919">
        <ele>200.388987</ele>
        <time>2026-07-14T07:31:00.000Z</time>
      </trkpt>
      <trkpt lat="46.11099" lon="13.68913">
        <ele>201.083973</ele>
        <time>2026-07-14T07:31:04.000Z</time>
      </trkpt>
      <trkpt lat="46.11097" lon="13.68912">
        <ele>201.233749</ele>
        <time>2026-07-14T07:31:05.000Z</time>
      </trkpt>
      <trkpt lat="46.11086" lon="13.68904">
        <ele>202.001995</ele>
        <time>2026-07-14T07:31:10.000Z</time>
      </trkpt>
      <trkpt lat="46.11075" lon="13.68897">
        <ele>202.762391</ele>
        <time>2026-07-14T07:31:16.000Z</time>
      </trkpt>
      <trkpt lat="46.11067" lon="13.68889">
        <ele>203.428356</ele>
        <time>2026-07-14T07:31:21.000Z</time>
      </trkpt>
      <trkpt lat="46.11058" lon="13.6888">
        <ele>204.070232</ele>
        <time>2026-07-14T07:31:26.000Z</time>
      </trkpt>
      <trkpt lat="46.11054" lon="13.68874">
        <ele>204.452164</ele>
        <time>2026-07-14T07:31:29.000Z</time>
      </trkpt>
      <trkpt lat="46.11037" lon="13.68851">
        <ele>205.945734</ele>
        <time>2026-07-14T07:31:39.000Z</time>
      </trkpt>
      <trkpt lat="46.11029" lon="13.68847">
        <ele>206.499268</ele>
        <time>2026-07-14T07:31:43.000Z</time>
      </trkpt>
      <trkpt lat="46.11025" lon="13.68845">
        <ele>206.776533</ele>
        <time>2026-07-14T07:31:44.000Z</time>
      </trkpt>
      <trkpt lat="46.11023" lon="13.68843">
        <ele>206.93861</ele>
        <time>2026-07-14T07:31:46.000Z</time>
      </trkpt>
      <trkpt lat="46.11011" lon="13.68832">
        <ele>207.865299</ele>
        <time>2026-07-14T07:31:53.000Z</time>
      </trkpt>
      <trkpt lat="46.11006" lon="13.68826">
        <ele>208.268728</ele>
        <time>2026-07-14T07:31:56.000Z</time>
      </trkpt>
      <trkpt lat="46.11001" lon="13.68822">
        <ele>208.625379</ele>
        <time>2026-07-14T07:31:58.000Z</time>
      </trkpt>
      <trkpt lat="46.10994" lon="13.68819">
        <ele>209.056439</ele>
        <time>2026-07-14T07:32:01.000Z</time>
      </trkpt>
      <trkpt lat="46.10981" lon="13.68819">
        <ele>209.385203</ele>
        <time>2026-07-14T07:32:06.000Z</time>
      </trkpt>
      <trkpt lat="46.10972" lon="13.68823">
        <ele>209.639902</ele>
        <time>2026-07-14T07:32:10.000Z</time>
      </trkpt>
      <trkpt lat="46.10969" lon="13.68822">
        <ele>209.720221</ele>
        <time>2026-07-14T07:32:11.000Z</time>
      </trkpt>
      <trkpt lat="46.1095" lon="13.68821">
        <ele>210.199821</ele>
        <time>2026-07-14T07:32:17.000Z</time>
      </trkpt>
      <trkpt lat="46.10941" lon="13.6881">
        <ele>210.512905</ele>
        <time>2026-07-14T07:32:22.000Z</time>
      </trkpt>
      <trkpt lat="46.10921" lon="13.68782">
        <ele>211.225799</ele>
        <time>2026-07-14T07:32:31.000Z</time>
      </trkpt>
      <trkpt lat="46.10901" lon="13.68769">
        <ele>211.803641</ele>
        <time>2026-07-14T07:32:38.000Z</time>
      </trkpt>
      <trkpt lat="46.1088" lon="13.68745">
        <ele>212.495572</ele>
        <time>2026-07-14T07:32:46.000Z</time>
      </trkpt>
      <trkpt lat="46.1086" lon="13.68743">
        <ele>213.002133</ele>
        <time>2026-07-14T07:32:51.000Z</time>
      </trkpt>
      <trkpt lat="46.10851" lon="13.68743">
        <ele>213.248085</ele>
        <time>2026-07-14T07:32:54.000Z</time>
      </trkpt>
      <trkpt lat="46.1084" lon="13.68742">
        <ele>213.536488</ele>
        <time>2026-07-14T07:32:57.000Z</time>
      </trkpt>
      <trkpt lat="46.10836" lon="13.68742">
        <ele>213.629685</ele>
        <time>2026-07-14T07:32:58.000Z</time>
      </trkpt>
      <trkpt lat="46.1081" lon="13.68738">
        <ele>213.317383</ele>
        <time>2026-07-14T07:33:06.000Z</time>
      </trkpt>
      <trkpt lat="46.10789" lon="13.68728">
        <ele>212.993556</ele>
        <time>2026-07-14T07:33:12.000Z</time>
      </trkpt>
      <trkpt lat="46.10777" lon="13.68725">
        <ele>212.810575</ele>
        <time>2026-07-14T07:33:15.000Z</time>
      </trkpt>
      <trkpt lat="46.10768" lon="13.68725">
        <ele>212.674359</ele>
        <time>2026-07-14T07:33:17.000Z</time>
      </trkpt>
      <trkpt lat="46.10763" lon="13.68725">
        <ele>212.61287</ele>
        <time>2026-07-14T07:33:18.000Z</time>
      </trkpt>
      <trkpt lat="46.10755" lon="13.68721">
        <ele>212.487382</ele>
        <time>2026-07-14T07:33:19.000Z</time>
      </trkpt>
      <trkpt lat="46.10749" lon="13.68716">
        <ele>212.385933</ele>
        <time>2026-07-14T07:33:22.000Z</time>
      </trkpt>
      <trkpt lat="46.10741" lon="13.687">
        <ele>212.183975</ele>
        <time>2026-07-14T07:33:26.000Z</time>
      </trkpt>
      <trkpt lat="46.10729" lon="13.68684">
        <ele>211.945017</ele>
        <time>2026-07-14T07:33:30.000Z</time>
      </trkpt>
      <trkpt lat="46.10719" lon="13.6868">
        <ele>211.793165</ele>
        <time>2026-07-14T07:33:32.000Z</time>
      </trkpt>
      <trkpt lat="46.1071" lon="13.68677">
        <ele>211.657544</ele>
        <time>2026-07-14T07:33:34.000Z</time>
      </trkpt>
      <trkpt lat="46.10706" lon="13.68677">
        <ele>211.595979</ele>
        <time>2026-07-14T07:33:35.000Z</time>
      </trkpt>
      <trkpt lat="46.10671" lon="13.68671">
        <ele>211.083447</ele>
        <time>2026-07-14T07:33:42.000Z</time>
      </trkpt>
      <trkpt lat="46.10666" lon="13.68669">
        <ele>210.931563</ele>
        <time>2026-07-14T07:33:43.000Z</time>
      </trkpt>
      <trkpt lat="46.10657" lon="13.68667">
        <ele>210.3279</ele>
        <time>2026-07-14T07:33:45.000Z</time>
      </trkpt>
      <trkpt lat="46.10649" lon="13.68667">
        <ele>209.830833</ele>
        <time>2026-07-14T07:33:46.000Z</time>
      </trkpt>
      <trkpt lat="46.10638" lon="13.68671">
        <ele>209.097643</ele>
        <time>2026-07-14T07:33:48.000Z</time>
      </trkpt>
      <trkpt lat="46.10625" lon="13.68669">
        <ele>208.267536</ele>
        <time>2026-07-14T07:33:50.000Z</time>
      </trkpt>
      <trkpt lat="46.10613" lon="13.68658">
        <ele>207.357193</ele>
        <time>2026-07-14T07:33:52.000Z</time>
      </trkpt>
      <trkpt lat="46.1061" lon="13.68652">
        <ele>207.024984</ele>
        <time>2026-07-14T07:33:53.000Z</time>
      </trkpt>
      <trkpt lat="46.10602" lon="13.68634">
        <ele>206.069469</ele>
        <time>2026-07-14T07:33:56.000Z</time>
      </trkpt>
      <trkpt lat="46.10601" lon="13.68631">
        <ele>205.922402</ele>
        <time>2026-07-14T07:33:57.000Z</time>
      </trkpt>
      <trkpt lat="46.10597" lon="13.68612">
        <ele>205.051164</ele>
        <time>2026-07-14T07:34:02.000Z</time>
      </trkpt>
      <trkpt lat="46.10598" lon="13.68606">
        <ele>204.771656</ele>
        <time>2026-07-14T07:34:03.000Z</time>
      </trkpt>
      <trkpt lat="46.106" lon="13.68584">
        <ele>203.804482</ele>
        <time>2026-07-14T07:34:06.000Z</time>
      </trkpt>
      <trkpt lat="46.10602" lon="13.68575">
        <ele>203.365834</ele>
        <time>2026-07-14T07:34:07.000Z</time>
      </trkpt>
      <trkpt lat="46.10611" lon="13.68545">
        <ele>201.912702</ele>
        <time>2026-07-14T07:34:11.000Z</time>
      </trkpt>
      <trkpt lat="46.10616" lon="13.68531">
        <ele>201.243374</ele>
        <time>2026-07-14T07:34:13.000Z</time>
      </trkpt>
      <trkpt lat="46.10619" lon="13.68525">
        <ele>200.916594</ele>
        <time>2026-07-14T07:34:14.000Z</time>
      </trkpt>
      <trkpt lat="46.10627" lon="13.68511">
        <ele>200.109644</ele>
        <time>2026-07-14T07:34:16.000Z</time>
      </trkpt>
      <trkpt lat="46.10629" lon="13.68503">
        <ele>199.732618</ele>
        <time>2026-07-14T07:34:17.000Z</time>
      </trkpt>
      <trkpt lat="46.1063" lon="13.68495">
        <ele>199.22521</ele>
        <time>2026-07-14T07:34:18.000Z</time>
      </trkpt>
      <trkpt lat="46.10631" lon="13.68483">
        <ele>198.271514</ele>
        <time>2026-07-14T07:34:20.000Z</time>
      </trkpt>
      <trkpt lat="46.1063" lon="13.68477">
        <ele>197.737279</ele>
        <time>2026-07-14T07:34:21.000Z</time>
      </trkpt>
      <trkpt lat="46.10626" lon="13.68467">
        <ele>196.882848</ele>
        <time>2026-07-14T07:34:23.000Z</time>
      </trkpt>
      <trkpt lat="46.10623" lon="13.68463">
        <ele>196.394124</ele>
        <time>2026-07-14T07:34:24.000Z</time>
      </trkpt>
      <trkpt lat="46.10619" lon="13.6846">
        <ele>195.905488</ele>
        <time>2026-07-14T07:34:25.000Z</time>
      </trkpt>
      <trkpt lat="46.10611" lon="13.68455">
        <ele>194.865673</ele>
        <time>2026-07-14T07:34:27.000Z</time>
      </trkpt>
      <trkpt lat="46.10598" lon="13.68445">
        <ele>193.220254</ele>
        <time>2026-07-14T07:34:30.000Z</time>
      </trkpt>
      <trkpt lat="46.10594" lon="13.68443">
        <ele>192.751176</ele>
        <time>2026-07-14T07:34:31.000Z</time>
      </trkpt>
      <trkpt lat="46.1057" lon="13.68437">
        <ele>189.871842</ele>
        <time>2026-07-14T07:34:36.000Z</time>
      </trkpt>
      <trkpt lat="46.10559" lon="13.68433">
        <ele>188.645685</ele>
        <time>2026-07-14T07:34:38.000Z</time>
      </trkpt>
      <trkpt lat="46.10544" lon="13.68432">
        <ele>186.925884</ele>
        <time>2026-07-14T07:34:42.000Z</time>
      </trkpt>
      <trkpt lat="46.10532" lon="13.68447">
        <ele>185.079357</ele>
        <time>2026-07-14T07:34:46.000Z</time>
      </trkpt>
      <trkpt lat="46.10523" lon="13.68465">
        <ele>183.322826</ele>
        <time>2026-07-14T07:34:50.000Z</time>
      </trkpt>
      <trkpt lat="46.10516" lon="13.68474">
        <ele>182.27498</ele>
        <time>2026-07-14T07:34:52.000Z</time>
      </trkpt>
      <trkpt lat="46.10498" lon="13.68504">
        <ele>179.136938</ele>
        <time>2026-07-14T07:34:56.000Z</time>
      </trkpt>
      <trkpt lat="46.1049" lon="13.68527">
        <ele>177.967223</ele>
        <time>2026-07-14T07:34:58.000Z</time>
      </trkpt>
      <trkpt lat="46.10479" lon="13.68551">
        <ele>176.760035</ele>
        <time>2026-07-14T07:35:00.000Z</time>
      </trkpt>
      <trkpt lat="46.10451" lon="13.68607">
        <ele>173.841184</ele>
        <time>2026-07-14T07:35:05.000Z</time>
      </trkpt>
      <trkpt lat="46.10426" lon="13.68646">
        <ele>171.618796</ele>
        <time>2026-07-14T07:35:09.000Z</time>
      </trkpt>
      <trkpt lat="46.1042" lon="13.68653">
        <ele>171.108229</ele>
        <time>2026-07-14T07:35:10.000Z</time>
      </trkpt>
      <trkpt lat="46.10408" lon="13.68665">
        <ele>170.232765</ele>
        <time>2026-07-14T07:35:12.000Z</time>
      </trkpt>
      <trkpt lat="46.104" lon="13.68675">
        <ele>169.59128</ele>
        <time>2026-07-14T07:35:14.000Z</time>
      </trkpt>
      <trkpt lat="46.10396" lon="13.68686">
        <ele>169.075039</ele>
        <time>2026-07-14T07:35:16.000Z</time>
      </trkpt>
      <trkpt lat="46.10391" lon="13.68699">
        <ele>168.455614</ele>
        <time>2026-07-14T07:35:18.000Z</time>
      </trkpt>
      <trkpt lat="46.10387" lon="13.68706">
        <ele>168.093912</ele>
        <time>2026-07-14T07:35:19.000Z</time>
      </trkpt>
      <trkpt lat="46.10374" lon="13.68721">
        <ele>169.374062</ele>
        <time>2026-07-14T07:35:22.000Z</time>
      </trkpt>
      <trkpt lat="46.10362" lon="13.68726">
        <ele>170.362246</ele>
        <time>2026-07-14T07:35:25.000Z</time>
      </trkpt>
      <trkpt lat="46.10352" lon="13.68714">
        <ele>171.483841</ele>
        <time>2026-07-14T07:35:29.000Z</time>
      </trkpt>
      <trkpt lat="46.10343" lon="13.68699">
        <ele>172.561856</ele>
        <time>2026-07-14T07:35:33.000Z</time>
      </trkpt>
      <trkpt lat="46.10343" lon="13.68696">
        <ele>172.777933</ele>
        <time>2026-07-14T07:35:34.000Z</time>
      </trkpt>
      <trkpt lat="46.10344" lon="13.68677">
        <ele>173.8371</ele>
        <time>2026-07-14T07:35:39.000Z</time>
      </trkpt>
      <trkpt lat="46.10354" lon="13.68662">
        <ele>175.016006</ele>
        <time>2026-07-14T07:35:43.000Z</time>
      </trkpt>
      <trkpt lat="46.10358" lon="13.68652">
        <ele>175.677427</ele>
        <time>2026-07-14T07:35:46.000Z</time>
      </trkpt>
      <trkpt lat="46.10359" lon="13.68645">
        <ele>176.072381</ele>
        <time>2026-07-14T07:35:48.000Z</time>
      </trkpt>
      <trkpt lat="46.10362" lon="13.68633">
        <ele>176.766202</ele>
        <time>2026-07-14T07:35:51.000Z</time>
      </trkpt>
      <trkpt lat="46.10364" lon="13.68626">
        <ele>177.244543</ele>
        <time>2026-07-14T07:35:53.000Z</time>
      </trkpt>
      <trkpt lat="46.10366" lon="13.68622">
        <ele>177.465331</ele>
        <time>2026-07-14T07:35:54.000Z</time>
      </trkpt>
      <trkpt lat="46.10368" lon="13.68616">
        <ele>177.892049</ele>
        <time>2026-07-14T07:35:55.000Z</time>
      </trkpt>
      <trkpt lat="46.10373" lon="13.68602">
        <ele>178.754089</ele>
        <time>2026-07-14T07:36:01.000Z</time>
      </trkpt>
      <trkpt lat="46.10378" lon="13.68586">
        <ele>179.812552</ele>
        <time>2026-07-14T07:36:07.000Z</time>
      </trkpt>
      <trkpt lat="46.10384" lon="13.68564">
        <ele>181.099703</ele>
        <time>2026-07-14T07:36:14.000Z</time>
      </trkpt>
      <trkpt lat="46.10386" lon="13.68546">
        <ele>182.154476</ele>
        <time>2026-07-14T07:36:20.000Z</time>
      </trkpt>
      <trkpt lat="46.10387" lon="13.68541">
        <ele>182.47168</ele>
        <time>2026-07-14T07:36:22.000Z</time>
      </trkpt>
      <trkpt lat="46.1039" lon="13.6853">
        <ele>182.938019</ele>
        <time>2026-07-14T07:36:25.000Z</time>
      </trkpt>
      <trkpt lat="46.10396" lon="13.68513">
        <ele>183.362562</ele>
        <time>2026-07-14T07:36:30.000Z</time>
      </trkpt>
      <trkpt lat="46.10397" lon="13.68505">
        <ele>183.570463</ele>
        <time>2026-07-14T07:36:33.000Z</time>
      </trkpt>
      <trkpt lat="46.10398" lon="13.68499">
        <ele>183.721197</ele>
        <time>2026-07-14T07:36:35.000Z</time>
      </trkpt>
      <trkpt lat="46.104" lon="13.68481">
        <ele>184.132059</ele>
        <time>2026-07-14T07:36:41.000Z</time>
      </trkpt>
      <trkpt lat="46.10401" lon="13.6847">
        <ele>184.412495</ele>
        <time>2026-07-14T07:36:45.000Z</time>
      </trkpt>
      <trkpt lat="46.10401" lon="13.68464">
        <ele>184.542449</ele>
        <time>2026-07-14T07:36:47.000Z</time>
      </trkpt>
      <trkpt lat="46.10402" lon="13.68462">
        <ele>184.607036</ele>
        <time>2026-07-14T07:36:48.000Z</time>
      </trkpt>
      <trkpt lat="46.10405" lon="13.68454">
        <ele>184.826906</ele>
        <time>2026-07-14T07:36:52.000Z</time>
      </trkpt>
      <trkpt lat="46.10414" lon="13.68444">
        <ele>185.201364</ele>
        <time>2026-07-14T07:36:59.000Z</time>
      </trkpt>
      <trkpt lat="46.10423" lon="13.68419">
        <ele>185.864173</ele>
        <time>2026-07-14T07:37:07.000Z</time>
      </trkpt>
      <trkpt lat="46.10428" lon="13.68398">
        <ele>186.381981</ele>
        <time>2026-07-14T07:37:14.000Z</time>
      </trkpt>
      <trkpt lat="46.10431" lon="13.68377">
        <ele>186.89293</ele>
        <time>2026-07-14T07:37:20.000Z</time>
      </trkpt>
      <trkpt lat="46.10432" lon="13.68374">
        <ele>186.974441</ele>
        <time>2026-07-14T07:37:21.000Z</time>
      </trkpt>
      <trkpt lat="46.10437" lon="13.68362">
        <ele>187.308696</ele>
        <time>2026-07-14T07:37:25.000Z</time>
      </trkpt>
      <trkpt lat="46.10441" lon="13.68343">
        <ele>187.759653</ele>
        <time>2026-07-14T07:37:31.000Z</time>
      </trkpt>
      <trkpt lat="46.10441" lon="13.68341">
        <ele>187.825661</ele>
        <time>2026-07-14T07:37:32.000Z</time>
      </trkpt>
      <trkpt lat="46.10443" lon="13.68331">
        <ele>188.065118</ele>
        <time>2026-07-14T07:37:35.000Z</time>
      </trkpt>
      <trkpt lat="46.10441" lon="13.68306">
        <ele>188.653414</ele>
        <time>2026-07-14T07:37:43.000Z</time>
      </trkpt>
      <trkpt lat="46.1044" lon="13.68302">
        <ele>188.747212</ele>
        <time>2026-07-14T07:37:44.000Z</time>
      </trkpt>
      <trkpt lat="46.10436" lon="13.68292">
        <ele>189.065268</ele>
        <time>2026-07-14T07:37:48.000Z</time>
      </trkpt>
      <trkpt lat="46.10419" lon="13.68268">
        <ele>190.046556</ele>
        <time>2026-07-14T07:37:59.000Z</time>
      </trkpt>
      <trkpt lat="46.10406" lon="13.68255">
        <ele>190.712475</ele>
        <time>2026-07-14T07:38:06.000Z</time>
      </trkpt>
      <trkpt lat="46.10393" lon="13.68248">
        <ele>191.289827</ele>
        <time>2026-07-14T07:38:13.000Z</time>
      </trkpt>
      <trkpt lat="46.10391" lon="13.68247">
        <ele>191.377677</ele>
        <time>2026-07-14T07:38:14.000Z</time>
      </trkpt>
      <trkpt lat="46.10376" lon="13.68252">
        <ele>192.030135</ele>
        <time>2026-07-14T07:38:22.000Z</time>
      </trkpt>
      <trkpt lat="46.10358" lon="13.68258">
        <ele>192.777675</ele>
        <time>2026-07-14T07:38:31.000Z</time>
      </trkpt>
      <trkpt lat="46.10346" lon="13.68261">
        <ele>193.287836</ele>
        <time>2026-07-14T07:38:37.000Z</time>
      </trkpt>
      <trkpt lat="46.10333" lon="13.68267">
        <ele>193.875072</ele>
        <time>2026-07-14T07:38:44.000Z</time>
      </trkpt>
      <trkpt lat="46.10321" lon="13.68284">
        <ele>194.564613</ele>
        <time>2026-07-14T07:38:52.000Z</time>
      </trkpt>
      <trkpt lat="46.10313" lon="13.68293">
        <ele>195.010324</ele>
        <time>2026-07-14T07:38:57.000Z</time>
      </trkpt>
      <trkpt lat="46.10307" lon="13.68293">
        <ele>195.239305</ele>
        <time>2026-07-14T07:38:59.000Z</time>
      </trkpt>
      <trkpt lat="46.10284" lon="13.68294">
        <ele>196.188676</ele>
        <time>2026-07-14T07:39:06.000Z</time>
      </trkpt>
      <trkpt lat="46.10255" lon="13.68309">
        <ele>195.690883</ele>
        <time>2026-07-14T07:39:14.000Z</time>
      </trkpt>
      <trkpt lat="46.10241" lon="13.68319">
        <ele>195.267584</ele>
        <time>2026-07-14T07:39:17.000Z</time>
      </trkpt>
      <trkpt lat="46.10231" lon="13.68326">
        <ele>194.950449</ele>
        <time>2026-07-14T07:39:19.000Z</time>
      </trkpt>
      <trkpt lat="46.10201" lon="13.68346">
        <ele>194.054377</ele>
        <time>2026-07-14T07:39:24.000Z</time>
      </trkpt>
      <trkpt lat="46.10172" lon="13.68359">
        <ele>193.22169</ele>
        <time>2026-07-14T07:39:28.000Z</time>
      </trkpt>
      <trkpt lat="46.10164" lon="13.68361">
        <ele>192.986201</ele>
        <time>2026-07-14T07:39:29.000Z</time>
      </trkpt>
      <trkpt lat="46.10142" lon="13.68367">
        <ele>192.372477</ele>
        <time>2026-07-14T07:39:32.000Z</time>
      </trkpt>
      <trkpt lat="46.10136" lon="13.68369">
        <ele>192.216026</ele>
        <time>2026-07-14T07:39:33.000Z</time>
      </trkpt>
      <trkpt lat="46.10131" lon="13.6837">
        <ele>192.075767</ele>
        <time>2026-07-14T07:39:34.000Z</time>
      </trkpt>
      <trkpt lat="46.10123" lon="13.68366">
        <ele>191.84619</ele>
        <time>2026-07-14T07:39:36.000Z</time>
      </trkpt>
      <trkpt lat="46.10119" lon="13.68353">
        <ele>191.577599</ele>
        <time>2026-07-14T07:39:39.000Z</time>
      </trkpt>
      <trkpt lat="46.10116" lon="13.68332">
        <ele>191.381113</ele>
        <time>2026-07-14T07:39:45.000Z</time>
      </trkpt>
      <trkpt lat="46.10113" lon="13.68317">
        <ele>191.287688</ele>
        <time>2026-07-14T07:39:50.000Z</time>
      </trkpt>
      <trkpt lat="46.10113" lon="13.68288">
        <ele>191.127242</ele>
        <time>2026-07-14T07:39:58.000Z</time>
      </trkpt>
      <trkpt lat="46.10113" lon="13.68283">
        <ele>191.098401</ele>
        <time>2026-07-14T07:40:00.000Z</time>
      </trkpt>
      <trkpt lat="46.10115" lon="13.68278">
        <ele>191.065062</ele>
        <time>2026-07-14T07:40:02.000Z</time>
      </trkpt>
      <trkpt lat="46.10121" lon="13.68258">
        <ele>190.941174</ele>
        <time>2026-07-14T07:40:08.000Z</time>
      </trkpt>
      <trkpt lat="46.10124" lon="13.68236">
        <ele>190.811487</ele>
        <time>2026-07-14T07:40:13.000Z</time>
      </trkpt>
      <trkpt lat="46.10124" lon="13.68222">
        <ele>190.733804</ele>
        <time>2026-07-14T07:40:15.000Z</time>
      </trkpt>
      <trkpt lat="46.10122" lon="13.68207">
        <ele>190.646283</ele>
        <time>2026-07-14T07:40:17.000Z</time>
      </trkpt>
      <trkpt lat="46.10116" lon="13.6817">
        <ele>190.429337</ele>
        <time>2026-07-14T07:40:21.000Z</time>
      </trkpt>
      <trkpt lat="46.10116" lon="13.6816">
        <ele>190.36877</ele>
        <time>2026-07-14T07:40:22.000Z</time>
      </trkpt>
      <trkpt lat="46.1012" lon="13.68137">
        <ele>190.238589</ele>
        <time>2026-07-14T07:40:24.000Z</time>
      </trkpt>
      <trkpt lat="46.10126" lon="13.68116">
        <ele>190.105214</ele>
        <time>2026-07-14T07:40:26.000Z</time>
      </trkpt>
      <trkpt lat="46.10139" lon="13.68062">
        <ele>189.397815</ele>
        <time>2026-07-14T07:40:31.000Z</time>
      </trkpt>
      <trkpt lat="46.10144" lon="13.68043">
        <ele>189.077545</ele>
        <time>2026-07-14T07:40:32.000Z</time>
      </trkpt>
      <trkpt lat="46.10155" lon="13.67986">
        <ele>188.126738</ele>
        <time>2026-07-14T07:40:39.000Z</time>
      </trkpt>
      <trkpt lat="46.1017" lon="13.6792">
        <ele>187.014797</ele>
        <time>2026-07-14T07:40:47.000Z</time>
      </trkpt>
      <trkpt lat="46.10182" lon="13.67865">
        <ele>186.093882</ele>
        <time>2026-07-14T07:40:54.000Z</time>
      </trkpt>
      <trkpt lat="46.10184" lon="13.67857">
        <ele>185.961718</ele>
        <time>2026-07-14T07:40:55.000Z</time>
      </trkpt>
      <trkpt lat="46.10195" lon="13.67812">
        <ele>184.372577</ele>
        <time>2026-07-14T07:41:01.000Z</time>
      </trkpt>
      <trkpt lat="46.10199" lon="13.67804">
        <ele>184.014085</ele>
        <time>2026-07-14T07:41:02.000Z</time>
      </trkpt>
      <trkpt lat="46.10211" lon="13.67786">
        <ele>183.069056</ele>
        <time>2026-07-14T07:41:05.000Z</time>
      </trkpt>
      <trkpt lat="46.10225" lon="13.6777">
        <ele>182.136317</ele>
        <time>2026-07-14T07:41:08.000Z</time>
      </trkpt>
      <trkpt lat="46.10231" lon="13.67753">
        <ele>181.453946</ele>
        <time>2026-07-14T07:41:10.000Z</time>
      </trkpt>
      <trkpt lat="46.1023" lon="13.67735">
        <ele>180.797542</ele>
        <time>2026-07-14T07:41:12.000Z</time>
      </trkpt>
      <trkpt lat="46.10227" lon="13.67726">
        <ele>180.436676</ele>
        <time>2026-07-14T07:41:13.000Z</time>
      </trkpt>
      <trkpt lat="46.10213" lon="13.677">
        <ele>179.188987</ele>
        <time>2026-07-14T07:41:16.000Z</time>
      </trkpt>
      <trkpt lat="46.10207" lon="13.6769">
        <ele>178.734127</ele>
        <time>2026-07-14T07:41:17.000Z</time>
      </trkpt>
      <trkpt lat="46.10201" lon="13.67681">
        <ele>178.260345</ele>
        <time>2026-07-14T07:41:18.000Z</time>
      </trkpt>
      <trkpt lat="46.10188" lon="13.67662">
        <ele>177.266456</ele>
        <time>2026-07-14T07:41:20.000Z</time>
      </trkpt>
      <trkpt lat="46.10167" lon="13.67632">
        <ele>175.6253</ele>
        <time>2026-07-14T07:41:23.000Z</time>
      </trkpt>
      <trkpt lat="46.10141" lon="13.67584">
        <ele>173.207573</ele>
        <time>2026-07-14T07:41:28.000Z</time>
      </trkpt>
      <trkpt lat="46.10137" lon="13.67562">
        <ele>172.256697</ele>
        <time>2026-07-14T07:41:30.000Z</time>
      </trkpt>
      <trkpt lat="46.10137" lon="13.6755">
        <ele>171.756827</ele>
        <time>2026-07-14T07:41:31.000Z</time>
      </trkpt>
      <trkpt lat="46.10141" lon="13.67503">
        <ele>169.843049</ele>
        <time>2026-07-14T07:41:35.000Z</time>
      </trkpt>
      <trkpt lat="46.10143" lon="13.67495">
        <ele>169.522378</ele>
        <time>2026-07-14T07:41:36.000Z</time>
      </trkpt>
      <trkpt lat="46.10146" lon="13.6749">
        <ele>169.271859</ele>
        <time>2026-07-14T07:41:37.000Z</time>
      </trkpt>
      <trkpt lat="46.1015" lon="13.67489">
        <ele>169.01349</ele>
        <time>2026-07-14T07:41:38.000Z</time>
      </trkpt>
      <trkpt lat="46.1016" lon="13.67495">
        <ele>168.34916</ele>
        <time>2026-07-14T07:41:40.000Z</time>
      </trkpt>
      <trkpt lat="46.10165" lon="13.67502">
        <ele>167.968767</ele>
        <time>2026-07-14T07:41:41.000Z</time>
      </trkpt>
      <trkpt lat="46.10176" lon="13.67515">
        <ele>167.128676</ele>
        <time>2026-07-14T07:41:43.000Z</time>
      </trkpt>
      <trkpt lat="46.1019" lon="13.67524">
        <ele>166.224942</ele>
        <time>2026-07-14T07:41:45.000Z</time>
      </trkpt>
      <trkpt lat="46.10206" lon="13.67525">
        <ele>165.276322</ele>
        <time>2026-07-14T07:41:47.000Z</time>
      </trkpt>
      <trkpt lat="46.10215" lon="13.67524">
        <ele>164.734118</ele>
        <time>2026-07-14T07:41:48.000Z</time>
      </trkpt>
      <trkpt lat="46.10224" lon="13.67521">
        <ele>164.166789</ele>
        <time>2026-07-14T07:41:49.000Z</time>
      </trkpt>
      <trkpt lat="46.10249" lon="13.67504">
        <ele>162.450183</ele>
        <time>2026-07-14T07:41:52.000Z</time>
      </trkpt>
      <trkpt lat="46.10265" lon="13.67484">
        <ele>161.192322</ele>
        <time>2026-07-14T07:41:54.000Z</time>
      </trkpt>
      <trkpt lat="46.1027" lon="13.67472">
        <ele>160.574566</ele>
        <time>2026-07-14T07:41:55.000Z</time>
      </trkpt>
      <trkpt lat="46.10275" lon="13.67459">
        <ele>159.940679</ele>
        <time>2026-07-14T07:41:56.000Z</time>
      </trkpt>
      <trkpt lat="46.10281" lon="13.67431">
        <ele>158.718305</ele>
        <time>2026-07-14T07:41:58.000Z</time>
      </trkpt>
      <trkpt lat="46.10281" lon="13.67403">
        <ele>157.52069</ele>
        <time>2026-07-14T07:42:00.000Z</time>
      </trkpt>
      <trkpt lat="46.10278" lon="13.67389">
        <ele>156.900237</ele>
        <time>2026-07-14T07:42:01.000Z</time>
      </trkpt>
      <trkpt lat="46.1026" lon="13.67306">
        <ele>152.874396</ele>
        <time>2026-07-14T07:42:07.000Z</time>
      </trkpt>
      <trkpt lat="46.10251" lon="13.67262">
        <ele>150.474704</ele>
        <time>2026-07-14T07:42:11.000Z</time>
      </trkpt>
      <trkpt lat="46.10232" lon="13.67218">
        <ele>147.721055</ele>
        <time>2026-07-14T07:42:15.000Z</time>
      </trkpt>
      <trkpt lat="46.10204" lon="13.67171">
        <ele>144.513544</ele>
        <time>2026-07-14T07:42:19.000Z</time>
      </trkpt>
      <trkpt lat="46.10191" lon="13.67145">
        <ele>142.811139</ele>
        <time>2026-07-14T07:42:21.000Z</time>
      </trkpt>
      <trkpt lat="46.10181" lon="13.67117">
        <ele>141.153024</ele>
        <time>2026-07-14T07:42:23.000Z</time>
      </trkpt>
      <trkpt lat="46.10174" lon="13.67049">
        <ele>142.02784</ele>
        <time>2026-07-14T07:42:27.000Z</time>
      </trkpt>
      <trkpt lat="46.10175" lon="13.67014">
        <ele>142.494965</ele>
        <time>2026-07-14T07:42:32.000Z</time>
      </trkpt>
      <trkpt lat="46.10176" lon="13.66985">
        <ele>142.875113</ele>
        <time>2026-07-14T07:42:37.000Z</time>
      </trkpt>
      <trkpt lat="46.10178" lon="13.66952">
        <ele>143.314482</ele>
        <time>2026-07-14T07:42:44.000Z</time>
      </trkpt>
      <trkpt lat="46.10179" lon="13.66935">
        <ele>143.529103</ele>
        <time>2026-07-14T07:42:48.000Z</time>
      </trkpt>
      <trkpt lat="46.10179" lon="13.66923">
        <ele>143.697901</ele>
        <time>2026-07-14T07:42:51.000Z</time>
      </trkpt>
      <trkpt lat="46.1018" lon="13.66914">
        <ele>143.809264</ele>
        <time>2026-07-14T07:42:53.000Z</time>
      </trkpt>
      <trkpt lat="46.10183" lon="13.66886">
        <ele>144.176147</ele>
        <time>2026-07-14T07:43:00.000Z</time>
      </trkpt>
      <trkpt lat="46.10187" lon="13.6686">
        <ele>144.533239</ele>
        <time>2026-07-14T07:43:07.000Z</time>
      </trkpt>
      <trkpt lat="46.10187" lon="13.66854">
        <ele>144.795773</ele>
        <time>2026-07-14T07:43:09.000Z</time>
      </trkpt>
      <trkpt lat="46.10191" lon="13.66827">
        <ele>146.111614</ele>
        <time>2026-07-14T07:43:17.000Z</time>
      </trkpt>
      <trkpt lat="46.10195" lon="13.66796">
        <ele>147.593171</ele>
        <time>2026-07-14T07:43:26.000Z</time>
      </trkpt>
      <trkpt lat="46.10197" lon="13.66775">
        <ele>148.62202</ele>
        <time>2026-07-14T07:43:32.000Z</time>
      </trkpt>
      <trkpt lat="46.10198" lon="13.66746">
        <ele>149.977763</ele>
        <time>2026-07-14T07:43:39.000Z</time>
      </trkpt>
      <trkpt lat="46.10198" lon="13.66728">
        <ele>150.860226</ele>
        <time>2026-07-14T07:43:44.000Z</time>
      </trkpt>
      <trkpt lat="46.102" lon="13.66695">
        <ele>152.444669</ele>
        <time>2026-07-14T07:43:53.000Z</time>
      </trkpt>
      <trkpt lat="46.10202" lon="13.6667">
        <ele>153.644964</ele>
        <time>2026-07-14T07:44:00.000Z</time>
      </trkpt>
      <trkpt lat="46.10202" lon="13.66649">
        <ele>154.647914</ele>
        <time>2026-07-14T07:44:06.000Z</time>
      </trkpt>
      <trkpt lat="46.10203" lon="13.66645">
        <ele>154.837296</ele>
        <time>2026-07-14T07:44:07.000Z</time>
      </trkpt>
      <trkpt lat="46.10203" lon="13.66641">
        <ele>155.004768</ele>
        <time>2026-07-14T07:44:08.000Z</time>
      </trkpt>
      <trkpt lat="46.10205" lon="13.66623">
        <ele>155.900337</ele>
        <time>2026-07-14T07:44:13.000Z</time>
      </trkpt>
      <trkpt lat="46.10208" lon="13.66598">
        <ele>156.984003</ele>
        <time>2026-07-14T07:44:20.000Z</time>
      </trkpt>
      <trkpt lat="46.10208" lon="13.66569">
        <ele>157.428333</ele>
        <time>2026-07-14T07:44:27.000Z</time>
      </trkpt>
      <trkpt lat="46.10211" lon="13.66549">
        <ele>157.739034</ele>
        <time>2026-07-14T07:44:34.000Z</time>
      </trkpt>
      <trkpt lat="46.10211" lon="13.66523">
        <ele>158.154235</ele>
        <time>2026-07-14T07:44:42.000Z</time>
      </trkpt>
      <trkpt lat="46.10209" lon="13.66493">
        <ele>158.628966</ele>
        <time>2026-07-14T07:44:50.000Z</time>
      </trkpt>
      <trkpt lat="46.10207" lon="13.66464">
        <ele>159.073196</ele>
        <time>2026-07-14T07:44:58.000Z</time>
      </trkpt>
      <trkpt lat="46.10207" lon="13.66431">
        <ele>159.584742</ele>
        <time>2026-07-14T07:45:06.000Z</time>
      </trkpt>
      <trkpt lat="46.1021" lon="13.66395">
        <ele>160.158327</ele>
        <time>2026-07-14T07:45:15.000Z</time>
      </trkpt>
      <trkpt lat="46.10212" lon="13.66366">
        <ele>160.608259</ele>
        <time>2026-07-14T07:45:22.000Z</time>
      </trkpt>
      <trkpt lat="46.10216" lon="13.66338">
        <ele>160.987845</ele>
        <time>2026-07-14T07:45:29.000Z</time>
      </trkpt>
      <trkpt lat="46.10225" lon="13.66296">
        <ele>161.201078</ele>
        <time>2026-07-14T07:45:40.000Z</time>
      </trkpt>
      <trkpt lat="46.10232" lon="13.66257">
        <ele>161.388407</ele>
        <time>2026-07-14T07:45:50.000Z</time>
      </trkpt>
      <trkpt lat="46.10239" lon="13.6622">
        <ele>161.571216</ele>
        <time>2026-07-14T07:45:59.000Z</time>
      </trkpt>
      <trkpt lat="46.10242" lon="13.66192">
        <ele>161.704023</ele>
        <time>2026-07-14T07:46:05.000Z</time>
      </trkpt>
      <trkpt lat="46.10245" lon="13.6616">
        <ele>161.85886</ele>
        <time>2026-07-14T07:46:12.000Z</time>
      </trkpt>
      <trkpt lat="46.10247" lon="13.66131">
        <ele>161.995867</ele>
        <time>2026-07-14T07:46:18.000Z</time>
      </trkpt>
      <trkpt lat="46.10247" lon="13.66082">
        <ele>162.378733</ele>
        <time>2026-07-14T07:46:29.000Z</time>
      </trkpt>
      <trkpt lat="46.10245" lon="13.66036">
        <ele>163.382575</ele>
        <time>2026-07-14T07:46:39.000Z</time>
      </trkpt>
      <trkpt lat="46.10241" lon="13.65992">
        <ele>164.35295</ele>
        <time>2026-07-14T07:46:48.000Z</time>
      </trkpt>
      <trkpt lat="46.10236" lon="13.65959">
        <ele>165.078841</ele>
        <time>2026-07-14T07:46:55.000Z</time>
      </trkpt>
      <trkpt lat="46.10232" lon="13.65924">
        <ele>165.85117</ele>
        <time>2026-07-14T07:47:02.000Z</time>
      </trkpt>
      <trkpt lat="46.10224" lon="13.65878">
        <ele>166.889209</ele>
        <time>2026-07-14T07:47:10.000Z</time>
      </trkpt>
      <trkpt lat="46.10214" lon="13.65856">
        <ele>167.465487</ele>
        <time>2026-07-14T07:47:14.000Z</time>
      </trkpt>
      <trkpt lat="46.10208" lon="13.65845">
        <ele>167.75429</ele>
        <time>2026-07-14T07:47:16.000Z</time>
      </trkpt>
      <trkpt lat="46.1019" lon="13.65813">
        <ele>168.387582</ele>
        <time>2026-07-14T07:47:23.000Z</time>
      </trkpt>
      <trkpt lat="46.10187" lon="13.65809">
        <ele>168.467756</ele>
        <time>2026-07-14T07:47:24.000Z</time>
      </trkpt>
      <trkpt lat="46.10172" lon="13.65783">
        <ele>168.95311</ele>
        <time>2026-07-14T07:47:31.000Z</time>
      </trkpt>
      <trkpt lat="46.10152" lon="13.6575">
        <ele>169.568385</ele>
        <time>2026-07-14T07:47:39.000Z</time>
      </trkpt>
      <trkpt lat="46.10147" lon="13.65742">
        <ele>169.728013</ele>
        <time>2026-07-14T07:47:41.000Z</time>
      </trkpt>
      <trkpt lat="46.10138" lon="13.65725">
        <ele>170.035799</ele>
        <time>2026-07-14T07:47:45.000Z</time>
      </trkpt>
      <trkpt lat="46.10133" lon="13.65716">
        <ele>170.192112</ele>
        <time>2026-07-14T07:47:47.000Z</time>
      </trkpt>
      <trkpt lat="46.10109" lon="13.65682">
        <ele>170.890394</ele>
        <time>2026-07-14T07:47:56.000Z</time>
      </trkpt>
      <trkpt lat="46.10097" lon="13.65665">
        <ele>171.231402</ele>
        <time>2026-07-14T07:48:00.000Z</time>
      </trkpt>
      <trkpt lat="46.10083" lon="13.6565">
        <ele>171.533498</ele>
        <time>2026-07-14T07:48:04.000Z</time>
      </trkpt>
      <trkpt lat="46.10065" lon="13.65631">
        <ele>171.386924</ele>
        <time>2026-07-14T07:48:09.000Z</time>
      </trkpt>
      <trkpt lat="46.10061" lon="13.65628">
        <ele>171.355672</ele>
        <time>2026-07-14T07:48:10.000Z</time>
      </trkpt>
      <trkpt lat="46.10056" lon="13.65624">
        <ele>171.323014</ele>
        <time>2026-07-14T07:48:11.000Z</time>
      </trkpt>
      <trkpt lat="46.10039" lon="13.65606">
        <ele>171.188281</ele>
        <time>2026-07-14T07:48:15.000Z</time>
      </trkpt>
      <trkpt lat="46.10008" lon="13.65574">
        <ele>170.939867</ele>
        <time>2026-07-14T07:48:22.000Z</time>
      </trkpt>
      <trkpt lat="46.10005" lon="13.65568">
        <ele>170.906458</ele>
        <time>2026-07-14T07:48:23.000Z</time>
      </trkpt>
      <trkpt lat="46.10002" lon="13.65562">
        <ele>170.872367</ele>
        <time>2026-07-14T07:48:24.000Z</time>
      </trkpt>
      <trkpt lat="46.09998" lon="13.65548">
        <ele>170.803161</ele>
        <time>2026-07-14T07:48:26.000Z</time>
      </trkpt>
      <trkpt lat="46.09997" lon="13.6554">
        <ele>170.769407</ele>
        <time>2026-07-14T07:48:27.000Z</time>
      </trkpt>
      <trkpt lat="46.09986" lon="13.65487">
        <ele>170.519072</ele>
        <time>2026-07-14T07:48:35.000Z</time>
      </trkpt>
      <trkpt lat="46.09981" lon="13.65468">
        <ele>170.426796</ele>
        <time>2026-07-14T07:48:38.000Z</time>
      </trkpt>
      <trkpt lat="46.09978" lon="13.65455">
        <ele>170.407282</ele>
        <time>2026-07-14T07:48:40.000Z</time>
      </trkpt>
      <trkpt lat="46.09976" lon="13.65449">
        <ele>170.480841</ele>
        <time>2026-07-14T07:48:41.000Z</time>
      </trkpt>
      <trkpt lat="46.09974" lon="13.65443">
        <ele>170.556697</ele>
        <time>2026-07-14T07:48:42.000Z</time>
      </trkpt>
      <trkpt lat="46.09962" lon="13.65418">
        <ele>170.883106</ele>
        <time>2026-07-14T07:48:46.000Z</time>
      </trkpt>
      <trkpt lat="46.0996" lon="13.65412">
        <ele>170.961735</ele>
        <time>2026-07-14T07:48:47.000Z</time>
      </trkpt>
      <trkpt lat="46.09955" lon="13.65398">
        <ele>171.125943</ele>
        <time>2026-07-14T07:48:49.000Z</time>
      </trkpt>
      <trkpt lat="46.09949" lon="13.6537">
        <ele>171.449462</ele>
        <time>2026-07-14T07:48:53.000Z</time>
      </trkpt>
      <trkpt lat="46.09933" lon="13.65331">
        <ele>171.941048</ele>
        <time>2026-07-14T07:48:59.000Z</time>
      </trkpt>
      <trkpt lat="46.0993" lon="13.65325">
        <ele>172.01881</ele>
        <time>2026-07-14T07:49:00.000Z</time>
      </trkpt>
      <trkpt lat="46.09905" lon="13.6529">
        <ele>172.565257</ele>
        <time>2026-07-14T07:49:06.000Z</time>
      </trkpt>
      <trkpt lat="46.09899" lon="13.65276">
        <ele>172.740376</ele>
        <time>2026-07-14T07:49:08.000Z</time>
      </trkpt>
      <trkpt lat="46.09895" lon="13.65262">
        <ele>172.904106</ele>
        <time>2026-07-14T07:49:10.000Z</time>
      </trkpt>
      <trkpt lat="46.09889" lon="13.65228">
        <ele>173.117686</ele>
        <time>2026-07-14T07:49:15.000Z</time>
      </trkpt>
      <trkpt lat="46.09877" lon="13.65194">
        <ele>172.781145</ele>
        <time>2026-07-14T07:49:20.000Z</time>
      </trkpt>
      <trkpt lat="46.09874" lon="13.65189">
        <ele>172.713386</ele>
        <time>2026-07-14T07:49:21.000Z</time>
      </trkpt>
      <trkpt lat="46.0987" lon="13.65184">
        <ele>172.641638</ele>
        <time>2026-07-14T07:49:22.000Z</time>
      </trkpt>
      <trkpt lat="46.0986" lon="13.65176">
        <ele>172.502642</ele>
        <time>2026-07-14T07:49:24.000Z</time>
      </trkpt>
      <trkpt lat="46.09855" lon="13.65173">
        <ele>172.429168</ele>
        <time>2026-07-14T07:49:25.000Z</time>
      </trkpt>
      <trkpt lat="46.09838" lon="13.65165">
        <ele>172.194645</ele>
        <time>2026-07-14T07:49:28.000Z</time>
      </trkpt>
      <trkpt lat="46.09829" lon="13.65156">
        <ele>172.059542</ele>
        <time>2026-07-14T07:49:30.000Z</time>
      </trkpt>
      <trkpt lat="46.09825" lon="13.65141">
        <ele>171.911163</ele>
        <time>2026-07-14T07:49:32.000Z</time>
      </trkpt>
      <trkpt lat="46.09826" lon="13.65133">
        <ele>171.836907</ele>
        <time>2026-07-14T07:49:33.000Z</time>
      </trkpt>
      <trkpt lat="46.09827" lon="13.65124">
        <ele>171.760844</ele>
        <time>2026-07-14T07:49:34.000Z</time>
      </trkpt>
      <trkpt lat="46.09832" lon="13.65108">
        <ele>171.603639</ele>
        <time>2026-07-14T07:49:36.000Z</time>
      </trkpt>
      <trkpt lat="46.09836" lon="13.65101">
        <ele>171.526068</ele>
        <time>2026-07-14T07:49:37.000Z</time>
      </trkpt>
      <trkpt lat="46.09864" lon="13.65048">
        <ele>170.920639</ele>
        <time>2026-07-14T07:49:45.000Z</time>
      </trkpt>
      <trkpt lat="46.09878" lon="13.65003">
        <ele>170.288357</ele>
        <time>2026-07-14T07:49:51.000Z</time>
      </trkpt>
      <trkpt lat="46.09879" lon="13.64995">
        <ele>170.179495</ele>
        <time>2026-07-14T07:49:52.000Z</time>
      </trkpt>
      <trkpt lat="46.09879" lon="13.64947">
        <ele>169.533702</ele>
        <time>2026-07-14T07:49:58.000Z</time>
      </trkpt>
      <trkpt lat="46.09878" lon="13.64938">
        <ele>169.400582</ele>
        <time>2026-07-14T07:49:59.000Z</time>
      </trkpt>
      <trkpt lat="46.0987" lon="13.64907">
        <ele>168.965767</ele>
        <time>2026-07-14T07:50:03.000Z</time>
      </trkpt>
      <trkpt lat="46.09862" lon="13.64887">
        <ele>168.651706</ele>
        <time>2026-07-14T07:50:06.000Z</time>
      </trkpt>
      <trkpt lat="46.09852" lon="13.64867">
        <ele>168.324145</ele>
        <time>2026-07-14T07:50:09.000Z</time>
      </trkpt>
      <trkpt lat="46.09834" lon="13.64817">
        <ele>167.560614</ele>
        <time>2026-07-14T07:50:16.000Z</time>
      </trkpt>
      <trkpt lat="46.09819" lon="13.64792">
        <ele>167.604093</ele>
        <time>2026-07-14T07:50:20.000Z</time>
      </trkpt>
      <trkpt lat="46.09815" lon="13.64787">
        <ele>167.706667</ele>
        <time>2026-07-14T07:50:21.000Z</time>
      </trkpt>
      <trkpt lat="46.0981" lon="13.64783">
        <ele>167.81355</ele>
        <time>2026-07-14T07:50:22.000Z</time>
      </trkpt>
      <trkpt lat="46.09795" lon="13.64771">
        <ele>168.143226</ele>
        <time>2026-07-14T07:50:25.000Z</time>
      </trkpt>
      <trkpt lat="46.09791" lon="13.64767">
        <ele>168.247388</ele>
        <time>2026-07-14T07:50:26.000Z</time>
      </trkpt>
      <trkpt lat="46.09786" lon="13.64761">
        <ele>168.357225</ele>
        <time>2026-07-14T07:50:27.000Z</time>
      </trkpt>
      <trkpt lat="46.09776" lon="13.64738">
        <ele>168.723294</ele>
        <time>2026-07-14T07:50:29.000Z</time>
      </trkpt>
      <trkpt lat="46.09771" lon="13.64722">
        <ele>168.955141</ele>
        <time>2026-07-14T07:50:32.000Z</time>
      </trkpt>
      <trkpt lat="46.09764" lon="13.64691">
        <ele>169.397614</ele>
        <time>2026-07-14T07:50:36.000Z</time>
      </trkpt>
      <trkpt lat="46.09752" lon="13.64639">
        <ele>170.117496</ele>
        <time>2026-07-14T07:50:43.000Z</time>
      </trkpt>
      <trkpt lat="46.09736" lon="13.6459">
        <ele>170.759124</ele>
        <time>2026-07-14T07:50:50.000Z</time>
      </trkpt>
      <trkpt lat="46.0973" lon="13.6457">
        <ele>170.343954</ele>
        <time>2026-07-14T07:50:53.000Z</time>
      </trkpt>
      <trkpt lat="46.09722" lon="13.64551">
        <ele>169.924468</ele>
        <time>2026-07-14T07:50:56.000Z</time>
      </trkpt>
      <trkpt lat="46.09719" lon="13.64544">
        <ele>169.788655</ele>
        <time>2026-07-14T07:50:57.000Z</time>
      </trkpt>
      <trkpt lat="46.09703" lon="13.64515">
        <ele>169.073378</ele>
        <time>2026-07-14T07:51:02.000Z</time>
      </trkpt>
      <trkpt lat="46.09696" lon="13.64505">
        <ele>168.810024</ele>
        <time>2026-07-14T07:51:04.000Z</time>
      </trkpt>
      <trkpt lat="46.09664" lon="13.64459">
        <ele>167.608099</ele>
        <time>2026-07-14T07:51:13.000Z</time>
      </trkpt>
      <trkpt lat="46.0963" lon="13.64412">
        <ele>166.327189</ele>
        <time>2026-07-14T07:51:22.000Z</time>
      </trkpt>
      <trkpt lat="46.09594" lon="13.64364">
        <ele>164.724221</ele>
        <time>2026-07-14T07:51:31.000Z</time>
      </trkpt>
      <trkpt lat="46.09581" lon="13.64346">
        <ele>164.106644</ele>
        <time>2026-07-14T07:51:34.000Z</time>
      </trkpt>
      <trkpt lat="46.09576" lon="13.6434">
        <ele>163.891776</ele>
        <time>2026-07-14T07:51:35.000Z</time>
      </trkpt>
      <trkpt lat="46.09559" lon="13.64316">
        <ele>163.064712</ele>
        <time>2026-07-14T07:51:39.000Z</time>
      </trkpt>
      <trkpt lat="46.09516" lon="13.64257">
        <ele>160.994024</ele>
        <time>2026-07-14T07:51:48.000Z</time>
      </trkpt>
      <trkpt lat="46.09482" lon="13.64229">
        <ele>159.605604</ele>
        <time>2026-07-14T07:51:53.000Z</time>
      </trkpt>
      <trkpt lat="46.09434" lon="13.64195">
        <ele>155.944916</ele>
        <time>2026-07-14T07:51:59.000Z</time>
      </trkpt>
      <trkpt lat="46.09411" lon="13.64179">
        <ele>154.229518</ele>
        <time>2026-07-14T07:52:02.000Z</time>
      </trkpt>
      <trkpt lat="46.09397" lon="13.64175">
        <ele>153.224186</ele>
        <time>2026-07-14T07:52:04.000Z</time>
      </trkpt>
      <trkpt lat="46.09384" lon="13.6418">
        <ele>152.285457</ele>
        <time>2026-07-14T07:52:06.000Z</time>
      </trkpt>
      <trkpt lat="46.09377" lon="13.64186">
        <ele>151.742247</ele>
        <time>2026-07-14T07:52:07.000Z</time>
      </trkpt>
      <trkpt lat="46.0937" lon="13.64194">
        <ele>151.151739</ele>
        <time>2026-07-14T07:52:08.000Z</time>
      </trkpt>
      <trkpt lat="46.09348" lon="13.6422">
        <ele>149.212015</ele>
        <time>2026-07-14T07:52:11.000Z</time>
      </trkpt>
      <trkpt lat="46.09317" lon="13.6426">
        <ele>146.613753</ele>
        <time>2026-07-14T07:52:16.000Z</time>
      </trkpt>
      <trkpt lat="46.09306" lon="13.64269">
        <ele>145.933479</ele>
        <time>2026-07-14T07:52:18.000Z</time>
      </trkpt>
      <trkpt lat="46.093" lon="13.6427">
        <ele>145.595392</ele>
        <time>2026-07-14T07:52:19.000Z</time>
      </trkpt>
      <trkpt lat="46.09294" lon="13.64269">
        <ele>145.262067</ele>
        <time>2026-07-14T07:52:20.000Z</time>
      </trkpt>
      <trkpt lat="46.09281" lon="13.6426">
        <ele>144.530016</ele>
        <time>2026-07-14T07:52:22.000Z</time>
      </trkpt>
      <trkpt lat="46.09277" lon="13.64245">
        <ele>143.919351</ele>
        <time>2026-07-14T07:52:24.000Z</time>
      </trkpt>
      <trkpt lat="46.09286" lon="13.64198">
        <ele>142.08887</ele>
        <time>2026-07-14T07:52:28.000Z</time>
      </trkpt>
      <trkpt lat="46.09298" lon="13.64154">
        <ele>140.355191</ele>
        <time>2026-07-14T07:52:33.000Z</time>
      </trkpt>
      <trkpt lat="46.09305" lon="13.64131">
        <ele>139.448359</ele>
        <time>2026-07-14T07:52:35.000Z</time>
      </trkpt>
      <trkpt lat="46.09307" lon="13.64108">
        <ele>138.584493</ele>
        <time>2026-07-14T07:52:37.000Z</time>
      </trkpt>
      <trkpt lat="46.09305" lon="13.64083">
        <ele>137.621505</ele>
        <time>2026-07-14T07:52:39.000Z</time>
      </trkpt>
      <trkpt lat="46.09304" lon="13.6402">
        <ele>134.824771</ele>
        <time>2026-07-14T07:52:44.000Z</time>
      </trkpt>
      <trkpt lat="46.09303" lon="13.64">
        <ele>133.913003</ele>
        <time>2026-07-14T07:52:46.000Z</time>
      </trkpt>
      <trkpt lat="46.09301" lon="13.63991">
        <ele>133.476215</ele>
        <time>2026-07-14T07:52:47.000Z</time>
      </trkpt>
      <trkpt lat="46.09296" lon="13.63983">
        <ele>133.025962</ele>
        <time>2026-07-14T07:52:48.000Z</time>
      </trkpt>
      <trkpt lat="46.09284" lon="13.63971">
        <ele>132.05487</ele>
        <time>2026-07-14T07:52:50.000Z</time>
      </trkpt>
      <trkpt lat="46.09261" lon="13.63956">
        <ele>130.485811</ele>
        <time>2026-07-14T07:52:53.000Z</time>
      </trkpt>
      <trkpt lat="46.09248" lon="13.63939">
        <ele>129.348011</ele>
        <time>2026-07-14T07:52:55.000Z</time>
      </trkpt>
      <trkpt lat="46.09212" lon="13.63876">
        <ele>126.065052</ele>
        <time>2026-07-14T07:53:01.000Z</time>
      </trkpt>
      <trkpt lat="46.09205" lon="13.63867">
        <ele>125.779113</ele>
        <time>2026-07-14T07:53:02.000Z</time>
      </trkpt>
      <trkpt lat="46.0919" lon="13.63849">
        <ele>125.214899</ele>
        <time>2026-07-14T07:53:04.000Z</time>
      </trkpt>
      <trkpt lat="46.09175" lon="13.63832">
        <ele>124.672</ele>
        <time>2026-07-14T07:53:06.000Z</time>
      </trkpt>
      <trkpt lat="46.09127" lon="13.63779">
        <ele>122.90346</ele>
        <time>2026-07-14T07:53:12.000Z</time>
      </trkpt>
      <trkpt lat="46.09118" lon="13.6377">
        <ele>122.590772</ele>
        <time>2026-07-14T07:53:13.000Z</time>
      </trkpt>
      <trkpt lat="46.09099" lon="13.63754">
        <ele>121.951586</ele>
        <time>2026-07-14T07:53:14.000Z</time>
      </trkpt>
      <trkpt lat="46.0908" lon="13.63742">
        <ele>121.339679</ele>
        <time>2026-07-14T07:53:17.000Z</time>
      </trkpt>
      <trkpt lat="46.09054" lon="13.63729">
        <ele>120.553766</ele>
        <time>2026-07-14T07:53:20.000Z</time>
      </trkpt>
      <trkpt lat="46.09045" lon="13.63726">
        <ele>120.308453</ele>
        <time>2026-07-14T07:53:21.000Z</time>
      </trkpt>
      <trkpt lat="46.09028" lon="13.63719">
        <ele>119.804301</ele>
        <time>2026-07-14T07:53:23.000Z</time>
      </trkpt>
      <trkpt lat="46.0902" lon="13.63715">
        <ele>119.577162</ele>
        <time>2026-07-14T07:53:24.000Z</time>
      </trkpt>
      <trkpt lat="46.09013" lon="13.63708">
        <ele>119.355166</ele>
        <time>2026-07-14T07:53:25.000Z</time>
      </trkpt>
      <trkpt lat="46.08981" lon="13.63666">
        <ele>118.139104</ele>
        <time>2026-07-14T07:53:31.000Z</time>
      </trkpt>
      <trkpt lat="46.08959" lon="13.6363">
        <ele>117.207442</ele>
        <time>2026-07-14T07:53:36.000Z</time>
      </trkpt>
      <trkpt lat="46.08953" lon="13.63624">
        <ele>117.022635</ele>
        <time>2026-07-14T07:53:37.000Z</time>
      </trkpt>
      <trkpt lat="46.08933" lon="13.63604">
        <ele>116.344207</ele>
        <time>2026-07-14T07:53:41.000Z</time>
      </trkpt>
      <trkpt lat="46.08917" lon="13.63588">
        <ele>116.15779</ele>
        <time>2026-07-14T07:53:44.000Z</time>
      </trkpt>
      <trkpt lat="46.08912" lon="13.63583">
        <ele>116.182809</ele>
        <time>2026-07-14T07:53:45.000Z</time>
      </trkpt>
      <trkpt lat="46.08907" lon="13.63578">
        <ele>116.207995</ele>
        <time>2026-07-14T07:53:46.000Z</time>
      </trkpt>
      <trkpt lat="46.08887" lon="13.63561">
        <ele>116.306255</ele>
        <time>2026-07-14T07:53:50.000Z</time>
      </trkpt>
      <trkpt lat="46.08848" lon="13.63538">
        <ele>116.477247</ele>
        <time>2026-07-14T07:53:57.000Z</time>
      </trkpt>
      <trkpt lat="46.08825" lon="13.63528">
        <ele>116.5762</ele>
        <time>2026-07-14T07:54:01.000Z</time>
      </trkpt>
      <trkpt lat="46.08807" lon="13.63519">
        <ele>116.653674</ele>
        <time>2026-07-14T07:54:04.000Z</time>
      </trkpt>
      <trkpt lat="46.08771" lon="13.63502">
        <ele>116.811761</ele>
        <time>2026-07-14T07:54:10.000Z</time>
      </trkpt>
      <trkpt lat="46.08745" lon="13.63491">
        <ele>116.028857</ele>
        <time>2026-07-14T07:54:14.000Z</time>
      </trkpt>
      <trkpt lat="46.08699" lon="13.63474">
        <ele>113.665332</ele>
        <time>2026-07-14T07:54:21.000Z</time>
      </trkpt>
      <trkpt lat="46.08653" lon="13.63454">
        <ele>111.289065</ele>
        <time>2026-07-14T07:54:28.000Z</time>
      </trkpt>
      <trkpt lat="46.08629" lon="13.63445">
        <ele>110.058234</ele>
        <time>2026-07-14T07:54:32.000Z</time>
      </trkpt>
      <trkpt lat="46.08623" lon="13.63444">
        <ele>109.733213</ele>
        <time>2026-07-14T07:54:33.000Z</time>
      </trkpt>
      <trkpt lat="46.08618" lon="13.63443">
        <ele>109.486701</ele>
        <time>2026-07-14T07:54:34.000Z</time>
      </trkpt>
      <trkpt lat="46.08604" lon="13.6344">
        <ele>108.793144</ele>
        <time>2026-07-14T07:54:37.000Z</time>
      </trkpt>
      <trkpt lat="46.08592" lon="13.63437">
        <ele>108.170087</ele>
        <time>2026-07-14T07:54:40.000Z</time>
      </trkpt>
      <trkpt lat="46.08581" lon="13.63436">
        <ele>108.135356</ele>
        <time>2026-07-14T07:54:42.000Z</time>
      </trkpt>
      <trkpt lat="46.08561" lon="13.63433">
        <ele>108.904414</ele>
        <time>2026-07-14T07:54:47.000Z</time>
      </trkpt>
      <trkpt lat="46.08554" lon="13.63433">
        <ele>109.155057</ele>
        <time>2026-07-14T07:54:49.000Z</time>
      </trkpt>
      <trkpt lat="46.08546" lon="13.6343">
        <ele>109.464525</ele>
        <time>2026-07-14T07:54:52.000Z</time>
      </trkpt>
      <trkpt lat="46.0854" lon="13.63429">
        <ele>109.679044</ele>
        <time>2026-07-14T07:54:55.000Z</time>
      </trkpt>
      <trkpt lat="46.08538" lon="13.63427">
        <ele>109.77307</ele>
        <time>2026-07-14T07:54:57.000Z</time>
      </trkpt>
      <trkpt lat="46.08538" lon="13.63425">
        <ele>109.838813</ele>
        <time>2026-07-14T07:54:58.000Z</time>
      </trkpt>
      <trkpt lat="46.08537" lon="13.63401">
        <ele>110.451715</ele>
        <time>2026-07-14T07:55:06.000Z</time>
      </trkpt>
      <trkpt lat="46.08539" lon="13.63376">
        <ele>111.106821</ele>
        <time>2026-07-14T07:55:14.000Z</time>
      </trkpt>
      <trkpt lat="46.08539" lon="13.63365">
        <ele>111.392073</ele>
        <time>2026-07-14T07:55:18.000Z</time>
      </trkpt>
      <trkpt lat="46.08536" lon="13.63361">
        <ele>111.547485</ele>
        <time>2026-07-14T07:55:20.000Z</time>
      </trkpt>
      <trkpt lat="46.08535" lon="13.6336">
        <ele>111.616506</ele>
        <time>2026-07-14T07:55:23.000Z</time>
      </trkpt>
      <trkpt lat="46.08522" lon="13.63359">
        <ele>112.089292</ele>
        <time>2026-07-14T07:55:53.000Z</time>
      </trkpt>
      <trkpt lat="46.08525" lon="13.63359">
        <ele>112.20887</ele>
        <time>2026-07-14T07:55:55.000Z</time>
      </trkpt>
      <trkpt lat="46.08525" lon="13.63359">
        <ele>112.217963</ele>
        <time>2026-07-14T07:55:59.000Z</time>
      </trkpt>
      <trkpt lat="46.08525" lon="13.63359">
        <ele>112.238196</ele>
        <time>2026-07-14T07:56:00.000Z</time>
      </trkpt>
      <trkpt lat="46.08526" lon="13.6336">
        <ele>112.270022</ele>
        <time>2026-07-14T07:56:01.000Z</time>
      </trkpt>
      <trkpt lat="46.08526" lon="13.63361">
        <ele>112.304284</ele>
        <time>2026-07-14T07:56:03.000Z</time>
      </trkpt>
      <trkpt lat="46.08527" lon="13.63361">
        <ele>112.32367</ele>
        <time>2026-07-14T07:56:04.000Z</time>
      </trkpt>
      <trkpt lat="46.08527" lon="13.63361">
        <ele>112.32367</ele>
        <time>2026-07-14T07:56:05.000Z</time>
      </trkpt>
      <trkpt lat="46.08527" lon="13.6336">
        <ele>112.354094</ele>
        <time>2026-07-14T07:56:09.000Z</time>
      </trkpt>
      <trkpt lat="46.08527" lon="13.6336">
        <ele>112.37228</ele>
        <time>2026-07-14T07:56:12.000Z</time>
      </trkpt>
      <trkpt lat="46.08529" lon="13.63361">
        <ele>112.457045</ele>
        <time>2026-07-14T07:56:24.000Z</time>
      </trkpt>
      <trkpt lat="46.08528" lon="13.63362">
        <ele>112.528875</ele>
        <time>2026-07-14T07:56:26.000Z</time>
      </trkpt>
      <trkpt lat="46.08529" lon="13.63363">
        <ele>112.562895</ele>
        <time>2026-07-14T07:56:27.000Z</time>
      </trkpt>
      <trkpt lat="46.08529" lon="13.63362">
        <ele>112.59208</ele>
        <time>2026-07-14T07:56:28.000Z</time>
      </trkpt>
      <trkpt lat="46.0853" lon="13.63362">
        <ele>112.601173</ele>
        <time>2026-07-14T07:56:29.000Z</time>
      </trkpt>
      <trkpt lat="46.08525" lon="13.6336">
        <ele>112.762877</ele>
        <time>2026-07-14T08:35:42.000Z</time>
      </trkpt>
      <trkpt lat="46.08525" lon="13.6336">
        <ele>112.765468</ele>
        <time>2026-07-14T08:35:43.000Z</time>
      </trkpt>
      <trkpt lat="46.08525" lon="13.6336">
        <ele>112.773376</ele>
        <time>2026-07-14T08:35:44.000Z</time>
      </trkpt>
      <trkpt lat="46.08522" lon="13.63366">
        <ele>112.979484</ele>
        <time>2026-07-14T08:38:10.000Z</time>
      </trkpt>
      <trkpt lat="46.08521" lon="13.63366">
        <ele>113.000846</ele>
        <time>2026-07-14T08:38:43.000Z</time>
      </trkpt>
      <trkpt lat="46.08521" lon="13.63367">
        <ele>113.017691</ele>
        <time>2026-07-14T08:38:44.000Z</time>
      </trkpt>
      <trkpt lat="46.08521" lon="13.63367">
        <ele>113.039726</ele>
        <time>2026-07-14T08:38:45.000Z</time>
      </trkpt>
      <trkpt lat="46.08522" lon="13.63367">
        <ele>113.065617</ele>
        <time>2026-07-14T08:38:48.000Z</time>
      </trkpt>
      <trkpt lat="46.08539" lon="13.63367">
        <ele>113.689606</ele>
        <time>2026-07-14T08:39:26.000Z</time>
      </trkpt>
      <trkpt lat="46.08539" lon="13.63364">
        <ele>113.774302</ele>
        <time>2026-07-14T08:39:27.000Z</time>
      </trkpt>
      <trkpt lat="46.08546" lon="13.63342">
        <ele>114.392157</ele>
        <time>2026-07-14T08:39:32.000Z</time>
      </trkpt>
      <trkpt lat="46.08552" lon="13.63312">
        <ele>114.32758</ele>
        <time>2026-07-14T08:39:38.000Z</time>
      </trkpt>
      <trkpt lat="46.08555" lon="13.6329">
        <ele>113.986743</ele>
        <time>2026-07-14T08:39:43.000Z</time>
      </trkpt>
      <trkpt lat="46.08557" lon="13.63283">
        <ele>113.878587</ele>
        <time>2026-07-14T08:39:46.000Z</time>
      </trkpt>
      <trkpt lat="46.08557" lon="13.63283">
        <ele>113.869851</ele>
        <time>2026-07-14T08:39:48.000Z</time>
      </trkpt>
      <trkpt lat="46.08556" lon="13.63276">
        <ele>113.758132</ele>
        <time>2026-07-14T08:41:03.000Z</time>
      </trkpt>
      <trkpt lat="46.08554" lon="13.63266">
        <ele>113.608604</ele>
        <time>2026-07-14T08:41:06.000Z</time>
      </trkpt>
      <trkpt lat="46.08552" lon="13.63239">
        <ele>113.195407</ele>
        <time>2026-07-14T08:41:13.000Z</time>
      </trkpt>
      <trkpt lat="46.08552" lon="13.6322">
        <ele>112.899616</ele>
        <time>2026-07-14T08:41:17.000Z</time>
      </trkpt>
      <trkpt lat="46.08554" lon="13.63217">
        <ele>112.857331</ele>
        <time>2026-07-14T08:41:18.000Z</time>
      </trkpt>
      <trkpt lat="46.08558" lon="13.6321">
        <ele>112.708654</ele>
        <time>2026-07-14T08:41:22.000Z</time>
      </trkpt>
      <trkpt lat="46.08558" lon="13.63207">
        <ele>112.670816</ele>
        <time>2026-07-14T08:41:23.000Z</time>
      </trkpt>
      <trkpt lat="46.0855" lon="13.63195">
        <ele>112.42633</ele>
        <time>2026-07-14T08:41:28.000Z</time>
      </trkpt>
      <trkpt lat="46.0855" lon="13.63172">
        <ele>112.071922</ele>
        <time>2026-07-14T08:41:34.000Z</time>
      </trkpt>
      <trkpt lat="46.08554" lon="13.63166">
        <ele>111.94121</ele>
        <time>2026-07-14T08:41:36.000Z</time>
      </trkpt>
      <trkpt lat="46.08552" lon="13.63161">
        <ele>111.847833</ele>
        <time>2026-07-14T08:41:37.000Z</time>
      </trkpt>
      <trkpt lat="46.08552" lon="13.63157">
        <ele>111.783928</ele>
        <time>2026-07-14T08:41:38.000Z</time>
      </trkpt>
      <trkpt lat="46.08552" lon="13.63151">
        <ele>111.68667</ele>
        <time>2026-07-14T08:41:40.000Z</time>
      </trkpt>
      <trkpt lat="46.08547" lon="13.63148">
        <ele>111.575696</ele>
        <time>2026-07-14T08:41:42.000Z</time>
      </trkpt>
      <trkpt lat="46.08537" lon="13.63144">
        <ele>111.341574</ele>
        <time>2026-07-14T08:41:46.000Z</time>
      </trkpt>
      <trkpt lat="46.08528" lon="13.63147">
        <ele>111.145849</ele>
        <time>2026-07-14T08:41:50.000Z</time>
      </trkpt>
      <trkpt lat="46.08526" lon="13.63147">
        <ele>111.11064</ele>
        <time>2026-07-14T08:41:51.000Z</time>
      </trkpt>
      <trkpt lat="46.08517" lon="13.63148">
        <ele>110.912935</ele>
        <time>2026-07-14T08:41:56.000Z</time>
      </trkpt>
      <trkpt lat="46.08514" lon="13.63149">
        <ele>110.833448</ele>
        <time>2026-07-14T08:41:58.000Z</time>
      </trkpt>
      <trkpt lat="46.0851" lon="13.63149">
        <ele>110.759238</ele>
        <time>2026-07-14T08:42:00.000Z</time>
      </trkpt>
      <trkpt lat="46.08506" lon="13.63149">
        <ele>110.926496</ele>
        <time>2026-07-14T08:42:02.000Z</time>
      </trkpt>
      <trkpt lat="46.08504" lon="13.63149">
        <ele>111.064661</ele>
        <time>2026-07-14T08:42:03.000Z</time>
      </trkpt>
      <trkpt lat="46.08493" lon="13.63148">
        <ele>111.952718</ele>
        <time>2026-07-14T08:42:10.000Z</time>
      </trkpt>
      <trkpt lat="46.08491" lon="13.63147">
        <ele>112.106043</ele>
        <time>2026-07-14T08:42:11.000Z</time>
      </trkpt>
      <trkpt lat="46.08485" lon="13.63146">
        <ele>112.508463</ele>
        <time>2026-07-14T08:42:14.000Z</time>
      </trkpt>
      <trkpt lat="46.08479" lon="13.63144">
        <ele>113.04489</ele>
        <time>2026-07-14T08:42:19.000Z</time>
      </trkpt>
      <trkpt lat="46.08475" lon="13.63142">
        <ele>113.366166</ele>
        <time>2026-07-14T08:42:22.000Z</time>
      </trkpt>
      <trkpt lat="46.08466" lon="13.63139">
        <ele>114.009957</ele>
        <time>2026-07-14T08:42:27.000Z</time>
      </trkpt>
      <trkpt lat="46.08462" lon="13.63138">
        <ele>114.34609</ele>
        <time>2026-07-14T08:42:30.000Z</time>
      </trkpt>
      <trkpt lat="46.08457" lon="13.63136">
        <ele>114.706906</ele>
        <time>2026-07-14T08:42:33.000Z</time>
      </trkpt>
      <trkpt lat="46.08438" lon="13.63133">
        <ele>116.199055</ele>
        <time>2026-07-14T08:42:44.000Z</time>
      </trkpt>
      <trkpt lat="46.08427" lon="13.63128">
        <ele>117.091557</ele>
        <time>2026-07-14T08:42:51.000Z</time>
      </trkpt>
      <trkpt lat="46.08425" lon="13.63127">
        <ele>117.233639</ele>
        <time>2026-07-14T08:42:52.000Z</time>
      </trkpt>
      <trkpt lat="46.08421" lon="13.63125">
        <ele>117.589728</ele>
        <time>2026-07-14T08:42:55.000Z</time>
      </trkpt>
      <trkpt lat="46.08414" lon="13.63121">
        <ele>118.153809</ele>
        <time>2026-07-14T08:43:00.000Z</time>
      </trkpt>
      <trkpt lat="46.08406" lon="13.63117">
        <ele>118.810168</ele>
        <time>2026-07-14T08:43:06.000Z</time>
      </trkpt>
      <trkpt lat="46.084" lon="13.63114">
        <ele>119.276556</ele>
        <time>2026-07-14T08:43:10.000Z</time>
      </trkpt>
      <trkpt lat="46.08395" lon="13.63112">
        <ele>119.663944</ele>
        <time>2026-07-14T08:43:13.000Z</time>
      </trkpt>
      <trkpt lat="46.08389" lon="13.63105">
        <ele>120.276305</ele>
        <time>2026-07-14T08:43:18.000Z</time>
      </trkpt>
      <trkpt lat="46.08387" lon="13.63103">
        <ele>120.391755</ele>
        <time>2026-07-14T08:43:19.000Z</time>
      </trkpt>
      <trkpt lat="46.08386" lon="13.63102">
        <ele>120.514713</ele>
        <time>2026-07-14T08:43:20.000Z</time>
      </trkpt>
      <trkpt lat="46.08384" lon="13.63099">
        <ele>120.759391</ele>
        <time>2026-07-14T08:43:22.000Z</time>
      </trkpt>
      <trkpt lat="46.08374" lon="13.63091">
        <ele>121.579783</ele>
        <time>2026-07-14T08:43:29.000Z</time>
      </trkpt>
      <trkpt lat="46.08368" lon="13.63086">
        <ele>122.142561</ele>
        <time>2026-07-14T08:43:34.000Z</time>
      </trkpt>
      <trkpt lat="46.08366" lon="13.63086">
        <ele>122.259954</ele>
        <time>2026-07-14T08:43:35.000Z</time>
      </trkpt>
      <trkpt lat="46.08361" lon="13.63082">
        <ele>122.740614</ele>
        <time>2026-07-14T08:43:39.000Z</time>
      </trkpt>
      <trkpt lat="46.08359" lon="13.63081">
        <ele>122.87053</ele>
        <time>2026-07-14T08:43:40.000Z</time>
      </trkpt>
      <trkpt lat="46.08353" lon="13.63078">
        <ele>123.339436</ele>
        <time>2026-07-14T08:43:43.000Z</time>
      </trkpt>
      <trkpt lat="46.08351" lon="13.63077">
        <ele>123.52421</ele>
        <time>2026-07-14T08:43:44.000Z</time>
      </trkpt>
      <trkpt lat="46.08335" lon="13.63065">
        <ele>124.707471</ele>
        <time>2026-07-14T08:43:50.000Z</time>
      </trkpt>
      <trkpt lat="46.08321" lon="13.63063">
        <ele>125.420009</ele>
        <time>2026-07-14T08:43:55.000Z</time>
      </trkpt>
      <trkpt lat="46.08314" lon="13.63075">
        <ele>125.902501</ele>
        <time>2026-07-14T08:43:59.000Z</time>
      </trkpt>
      <trkpt lat="46.08302" lon="13.63081">
        <ele>126.551963</ele>
        <time>2026-07-14T08:44:05.000Z</time>
      </trkpt>
      <trkpt lat="46.08288" lon="13.63083">
        <ele>127.201666</ele>
        <time>2026-07-14T08:44:12.000Z</time>
      </trkpt>
      <trkpt lat="46.0828" lon="13.63085">
        <ele>127.574836</ele>
        <time>2026-07-14T08:44:16.000Z</time>
      </trkpt>
      <trkpt lat="46.08277" lon="13.63085">
        <ele>127.732534</ele>
        <time>2026-07-14T08:44:18.000Z</time>
      </trkpt>
      <trkpt lat="46.08275" lon="13.63085">
        <ele>127.813328</ele>
        <time>2026-07-14T08:44:19.000Z</time>
      </trkpt>
      <trkpt lat="46.08268" lon="13.63085">
        <ele>128.174583</ele>
        <time>2026-07-14T08:44:24.000Z</time>
      </trkpt>
      <trkpt lat="46.08258" lon="13.63078">
        <ele>128.692909</ele>
        <time>2026-07-14T08:44:31.000Z</time>
      </trkpt>
      <trkpt lat="46.08255" lon="13.63072">
        <ele>128.934064</ele>
        <time>2026-07-14T08:44:34.000Z</time>
      </trkpt>
      <trkpt lat="46.08254" lon="13.6307">
        <ele>129.015949</ele>
        <time>2026-07-14T08:44:35.000Z</time>
      </trkpt>
      <trkpt lat="46.08253" lon="13.63065">
        <ele>129.1876</ele>
        <time>2026-07-14T08:44:37.000Z</time>
      </trkpt>
      <trkpt lat="46.08245" lon="13.63055">
        <ele>129.693582</ele>
        <time>2026-07-14T08:44:43.000Z</time>
      </trkpt>
      <trkpt lat="46.08242" lon="13.63051">
        <ele>129.854675</ele>
        <time>2026-07-14T08:44:45.000Z</time>
      </trkpt>
      <trkpt lat="46.08227" lon="13.63039">
        <ele>130.686326</ele>
        <time>2026-07-14T08:44:54.000Z</time>
      </trkpt>
      <trkpt lat="46.0822" lon="13.63028">
        <ele>131.176401</ele>
        <time>2026-07-14T08:44:59.000Z</time>
      </trkpt>
      <trkpt lat="46.08215" lon="13.63023">
        <ele>131.47924</ele>
        <time>2026-07-14T08:45:02.000Z</time>
      </trkpt>
      <trkpt lat="46.08211" lon="13.63019">
        <ele>131.705687</ele>
        <time>2026-07-14T08:45:04.000Z</time>
      </trkpt>
      <trkpt lat="46.08201" lon="13.63008">
        <ele>132.299414</ele>
        <time>2026-07-14T08:45:10.000Z</time>
      </trkpt>
      <trkpt lat="46.08199" lon="13.63006">
        <ele>132.395867</ele>
        <time>2026-07-14T08:45:11.000Z</time>
      </trkpt>
      <trkpt lat="46.08184" lon="13.62991">
        <ele>132.984108</ele>
        <time>2026-07-14T08:45:19.000Z</time>
      </trkpt>
      <trkpt lat="46.08167" lon="13.62973">
        <ele>132.965547</ele>
        <time>2026-07-14T08:45:28.000Z</time>
      </trkpt>
      <trkpt lat="46.08153" lon="13.62952">
        <ele>132.946787</ele>
        <time>2026-07-14T08:45:37.000Z</time>
      </trkpt>
      <trkpt lat="46.0813" lon="13.6292">
        <ele>132.918394</ele>
        <time>2026-07-14T08:45:50.000Z</time>
      </trkpt>
      <trkpt lat="46.08113" lon="13.62903">
        <ele>132.899835</ele>
        <time>2026-07-14T08:45:58.000Z</time>
      </trkpt>
      <trkpt lat="46.081" lon="13.62894">
        <ele>132.886844</ele>
        <time>2026-07-14T08:46:02.000Z</time>
      </trkpt>
      <trkpt lat="46.08096" lon="13.62892">
        <ele>132.882962</ele>
        <time>2026-07-14T08:46:03.000Z</time>
      </trkpt>
      <trkpt lat="46.08091" lon="13.6289">
        <ele>132.878841</ele>
        <time>2026-07-14T08:46:04.000Z</time>
      </trkpt>
      <trkpt lat="46.08071" lon="13.62876">
        <ele>132.85817</ele>
        <time>2026-07-14T08:46:09.000Z</time>
      </trkpt>
      <trkpt lat="46.08066" lon="13.62873">
        <ele>132.85407</ele>
        <time>2026-07-14T08:46:10.000Z</time>
      </trkpt>
      <trkpt lat="46.08057" lon="13.6287">
        <ele>132.845637</ele>
        <time>2026-07-14T08:46:12.000Z</time>
      </trkpt>
      <trkpt lat="46.08047" lon="13.62868">
        <ele>132.836136</ele>
        <time>2026-07-14T08:46:14.000Z</time>
      </trkpt>
      <trkpt lat="46.08015" lon="13.62868">
        <ele>132.301075</ele>
        <time>2026-07-14T08:46:19.000Z</time>
      </trkpt>
      <trkpt lat="46.07995" lon="13.62868">
        <ele>131.834113</ele>
        <time>2026-07-14T08:46:22.000Z</time>
      </trkpt>
      <trkpt lat="46.07976" lon="13.62865">
        <ele>131.388905</ele>
        <time>2026-07-14T08:46:25.000Z</time>
      </trkpt>
      <trkpt lat="46.0794" lon="13.62854">
        <ele>130.541255</ele>
        <time>2026-07-14T08:46:31.000Z</time>
      </trkpt>
      <trkpt lat="46.07908" lon="13.62842">
        <ele>129.763571</ele>
        <time>2026-07-14T08:46:37.000Z</time>
      </trkpt>
      <trkpt lat="46.07893" lon="13.62833">
        <ele>129.388601</ele>
        <time>2026-07-14T08:46:40.000Z</time>
      </trkpt>
      <trkpt lat="46.07874" lon="13.62825">
        <ele>128.917616</ele>
        <time>2026-07-14T08:46:44.000Z</time>
      </trkpt>
      <trkpt lat="46.07841" lon="13.62811">
        <ele>128.260455</ele>
        <time>2026-07-14T08:46:51.000Z</time>
      </trkpt>
      <trkpt lat="46.07832" lon="13.62808">
        <ele>128.092007</ele>
        <time>2026-07-14T08:46:53.000Z</time>
      </trkpt>
      <trkpt lat="46.07813" lon="13.62803">
        <ele>127.759499</ele>
        <time>2026-07-14T08:46:57.000Z</time>
      </trkpt>
      <trkpt lat="46.07803" lon="13.62801">
        <ele>127.593371</ele>
        <time>2026-07-14T08:46:59.000Z</time>
      </trkpt>
      <trkpt lat="46.07798" lon="13.62801">
        <ele>127.504574</ele>
        <time>2026-07-14T08:47:00.000Z</time>
      </trkpt>
      <trkpt lat="46.07783" lon="13.62803">
        <ele>127.234149</ele>
        <time>2026-07-14T08:47:03.000Z</time>
      </trkpt>
      <trkpt lat="46.07748" lon="13.62804">
        <ele>126.624883</ele>
        <time>2026-07-14T08:47:08.000Z</time>
      </trkpt>
      <trkpt lat="46.07709" lon="13.62805">
        <ele>125.944669</ele>
        <time>2026-07-14T08:47:12.000Z</time>
      </trkpt>
      <trkpt lat="46.0768" lon="13.62808">
        <ele>125.364314</ele>
        <time>2026-07-14T08:47:15.000Z</time>
      </trkpt>
      <trkpt lat="46.0765" lon="13.62809">
        <ele>124.370983</ele>
        <time>2026-07-14T08:47:18.000Z</time>
      </trkpt>
      <trkpt lat="46.07606" lon="13.62808">
        <ele>122.891163</ele>
        <time>2026-07-14T08:47:22.000Z</time>
      </trkpt>
      <trkpt lat="46.07595" lon="13.62809">
        <ele>122.521952</ele>
        <time>2026-07-14T08:47:23.000Z</time>
      </trkpt>
      <trkpt lat="46.07541" lon="13.62812">
        <ele>120.708949</ele>
        <time>2026-07-14T08:47:28.000Z</time>
      </trkpt>
      <trkpt lat="46.07521" lon="13.62812">
        <ele>120.027804</ele>
        <time>2026-07-14T08:47:30.000Z</time>
      </trkpt>
      <trkpt lat="46.07483" lon="13.62811">
        <ele>118.942845</ele>
        <time>2026-07-14T08:47:34.000Z</time>
      </trkpt>
      <trkpt lat="46.07445" lon="13.62808">
        <ele>117.964973</ele>
        <time>2026-07-14T08:47:39.000Z</time>
      </trkpt>
      <trkpt lat="46.07433" lon="13.62807">
        <ele>117.660411</ele>
        <time>2026-07-14T08:47:41.000Z</time>
      </trkpt>
      <trkpt lat="46.07422" lon="13.62805">
        <ele>117.371513</ele>
        <time>2026-07-14T08:47:43.000Z</time>
      </trkpt>
      <trkpt lat="46.07397" lon="13.62801">
        <ele>116.732884</ele>
        <time>2026-07-14T08:47:47.000Z</time>
      </trkpt>
      <trkpt lat="46.07386" lon="13.62798">
        <ele>116.435091</ele>
        <time>2026-07-14T08:47:49.000Z</time>
      </trkpt>
      <trkpt lat="46.0738" lon="13.62796">
        <ele>116.281652</ele>
        <time>2026-07-14T08:47:50.000Z</time>
      </trkpt>
      <trkpt lat="46.07369" lon="13.62793">
        <ele>115.982993</ele>
        <time>2026-07-14T08:47:52.000Z</time>
      </trkpt>
      <trkpt lat="46.07353" lon="13.62784">
        <ele>115.551391</ele>
        <time>2026-07-14T08:47:55.000Z</time>
      </trkpt>
      <trkpt lat="46.07342" lon="13.62778">
        <ele>115.267457</ele>
        <time>2026-07-14T08:47:57.000Z</time>
      </trkpt>
      <trkpt lat="46.07327" lon="13.62768">
        <ele>114.88065</ele>
        <time>2026-07-14T08:48:00.000Z</time>
      </trkpt>
      <trkpt lat="46.07309" lon="13.62753">
        <ele>114.805098</ele>
        <time>2026-07-14T08:48:04.000Z</time>
      </trkpt>
      <trkpt lat="46.07277" lon="13.62729">
        <ele>114.677046</ele>
        <time>2026-07-14T08:48:11.000Z</time>
      </trkpt>
      <trkpt lat="46.07273" lon="13.62725">
        <ele>114.659451</ele>
        <time>2026-07-14T08:48:12.000Z</time>
      </trkpt>
      <trkpt lat="46.07267" lon="13.62714">
        <ele>114.623685</ele>
        <time>2026-07-14T08:48:14.000Z</time>
      </trkpt>
      <trkpt lat="46.07264" lon="13.62708">
        <ele>114.606172</ele>
        <time>2026-07-14T08:48:15.000Z</time>
      </trkpt>
      <trkpt lat="46.07249" lon="13.62676">
        <ele>114.507076</ele>
        <time>2026-07-14T08:48:21.000Z</time>
      </trkpt>
      <trkpt lat="46.07239" lon="13.62663">
        <ele>114.460947</ele>
        <time>2026-07-14T08:48:24.000Z</time>
      </trkpt>
      <trkpt lat="46.07233" lon="13.62658">
        <ele>114.434637</ele>
        <time>2026-07-14T08:48:26.000Z</time>
      </trkpt>
      <trkpt lat="46.07212" lon="13.6265">
        <ele>114.354971</ele>
        <time>2026-07-14T08:48:33.000Z</time>
      </trkpt>
      <trkpt lat="46.07185" lon="13.62646">
        <ele>114.25769</ele>
        <time>2026-07-14T08:48:41.000Z</time>
      </trkpt>
      <trkpt lat="46.07154" lon="13.62649">
        <ele>113.573034</ele>
        <time>2026-07-14T08:48:49.000Z</time>
      </trkpt>
      <trkpt lat="46.07125" lon="13.62659">
        <ele>112.804123</ele>
        <time>2026-07-14T08:48:55.000Z</time>
      </trkpt>
      <trkpt lat="46.07096" lon="13.62668">
        <ele>112.019116</ele>
        <time>2026-07-14T08:49:00.000Z</time>
      </trkpt>
      <trkpt lat="46.07084" lon="13.6267">
        <ele>111.702684</ele>
        <time>2026-07-14T08:49:02.000Z</time>
      </trkpt>
      <trkpt lat="46.07047" lon="13.62672">
        <ele>110.737429</ele>
        <time>2026-07-14T08:49:09.000Z</time>
      </trkpt>
      <trkpt lat="46.07021" lon="13.62671">
        <ele>110.06663</ele>
        <time>2026-07-14T08:49:14.000Z</time>
      </trkpt>
      <trkpt lat="46.07003" lon="13.62672">
        <ele>109.611614</ele>
        <time>2026-07-14T08:49:17.000Z</time>
      </trkpt>
      <trkpt lat="46.06979" lon="13.62671">
        <ele>110.097005</ele>
        <time>2026-07-14T08:49:21.000Z</time>
      </trkpt>
      <trkpt lat="46.06974" lon="13.62668">
        <ele>110.229918</ele>
        <time>2026-07-14T08:49:22.000Z</time>
      </trkpt>
      <trkpt lat="46.06969" lon="13.62665">
        <ele>110.354473</ele>
        <time>2026-07-14T08:49:23.000Z</time>
      </trkpt>
      <trkpt lat="46.06964" lon="13.62655">
        <ele>110.553047</ele>
        <time>2026-07-14T08:49:25.000Z</time>
      </trkpt>
      <trkpt lat="46.06962" lon="13.62642">
        <ele>110.782583</ele>
        <time>2026-07-14T08:49:27.000Z</time>
      </trkpt>
      <trkpt lat="46.06962" lon="13.62627">
        <ele>111.016117</ele>
        <time>2026-07-14T08:49:29.000Z</time>
      </trkpt>
      <trkpt lat="46.06961" lon="13.62612">
        <ele>111.266152</ele>
        <time>2026-07-14T08:49:31.000Z</time>
      </trkpt>
      <trkpt lat="46.06958" lon="13.62599">
        <ele>111.485622</ele>
        <time>2026-07-14T08:49:33.000Z</time>
      </trkpt>
      <trkpt lat="46.06956" lon="13.62587">
        <ele>111.694661</ele>
        <time>2026-07-14T08:49:35.000Z</time>
      </trkpt>
      <trkpt lat="46.06954" lon="13.62574">
        <ele>111.917334</ele>
        <time>2026-07-14T08:49:37.000Z</time>
      </trkpt>
      <trkpt lat="46.06952" lon="13.62559">
        <ele>112.160224</ele>
        <time>2026-07-14T08:49:39.000Z</time>
      </trkpt>
      <trkpt lat="46.0695" lon="13.62554">
        <ele>112.265643</ele>
        <time>2026-07-14T08:49:40.000Z</time>
      </trkpt>
      <trkpt lat="46.06946" lon="13.62551">
        <ele>112.373102</ele>
        <time>2026-07-14T08:49:41.000Z</time>
      </trkpt>
      <trkpt lat="46.06936" lon="13.62553">
        <ele>112.604746</ele>
        <time>2026-07-14T08:49:43.000Z</time>
      </trkpt>
      <trkpt lat="46.0693" lon="13.62563">
        <ele>112.81642</ele>
        <time>2026-07-14T08:49:45.000Z</time>
      </trkpt>
      <trkpt lat="46.06928" lon="13.62569">
        <ele>112.92182</ele>
        <time>2026-07-14T08:49:46.000Z</time>
      </trkpt>
      <trkpt lat="46.06925" lon="13.62579">
        <ele>113.104277</ele>
        <time>2026-07-14T08:49:48.000Z</time>
      </trkpt>
      <trkpt lat="46.06924" lon="13.62587">
        <ele>113.248428</ele>
        <time>2026-07-14T08:49:50.000Z</time>
      </trkpt>
      <trkpt lat="46.06918" lon="13.62605">
        <ele>113.558662</ele>
        <time>2026-07-14T08:49:55.000Z</time>
      </trkpt>
      <trkpt lat="46.06906" lon="13.62619">
        <ele>113.944579</ele>
        <time>2026-07-14T08:50:01.000Z</time>
      </trkpt>
      <trkpt lat="46.06892" lon="13.62628">
        <ele>114.282796</ele>
        <time>2026-07-14T08:50:07.000Z</time>
      </trkpt>
      <trkpt lat="46.06874" lon="13.62637">
        <ele>114.739476</ele>
        <time>2026-07-14T08:50:14.000Z</time>
      </trkpt>
      <trkpt lat="46.06859" lon="13.62634">
        <ele>115.093599</ele>
        <time>2026-07-14T08:50:19.000Z</time>
      </trkpt>
      <trkpt lat="46.0685" lon="13.62627">
        <ele>115.32809</ele>
        <time>2026-07-14T08:50:22.000Z</time>
      </trkpt>
      <trkpt lat="46.06844" lon="13.62625">
        <ele>115.477602</ele>
        <time>2026-07-14T08:50:24.000Z</time>
      </trkpt>
      <trkpt lat="46.06825" lon="13.62615">
        <ele>115.938449</ele>
        <time>2026-07-14T08:50:28.000Z</time>
      </trkpt>
      <trkpt lat="46.06799" lon="13.626">
        <ele>116.603568</ele>
        <time>2026-07-14T08:50:33.000Z</time>
      </trkpt>
      <trkpt lat="46.06793" lon="13.62597">
        <ele>116.745845</ele>
        <time>2026-07-14T08:50:34.000Z</time>
      </trkpt>
      <trkpt lat="46.06781" lon="13.62588">
        <ele>117.063011</ele>
        <time>2026-07-14T08:50:36.000Z</time>
      </trkpt>
      <trkpt lat="46.06774" lon="13.62586">
        <ele>117.222802</ele>
        <time>2026-07-14T08:50:37.000Z</time>
      </trkpt>
      <trkpt lat="46.06756" lon="13.6258">
        <ele>117.669389</ele>
        <time>2026-07-14T08:50:40.000Z</time>
      </trkpt>
      <trkpt lat="46.06749" lon="13.62582">
        <ele>117.82243</ele>
        <time>2026-07-14T08:50:41.000Z</time>
      </trkpt>
      <trkpt lat="46.06735" lon="13.62589">
        <ele>117.954875</ele>
        <time>2026-07-14T08:50:43.000Z</time>
      </trkpt>
      <trkpt lat="46.06717" lon="13.62603">
        <ele>117.714962</ele>
        <time>2026-07-14T08:50:46.000Z</time>
      </trkpt>
      <trkpt lat="46.06685" lon="13.62628">
        <ele>117.300402</ele>
        <time>2026-07-14T08:50:51.000Z</time>
      </trkpt>
      <trkpt lat="46.06678" lon="13.6263">
        <ele>117.209772</ele>
        <time>2026-07-14T08:50:52.000Z</time>
      </trkpt>
      <trkpt lat="46.06663" lon="13.62633">
        <ele>117.035238</ele>
        <time>2026-07-14T08:50:54.000Z</time>
      </trkpt>
      <trkpt lat="46.06649" lon="13.62634">
        <ele>116.879517</ele>
        <time>2026-07-14T08:50:56.000Z</time>
      </trkpt>
      <trkpt lat="46.06624" lon="13.62635">
        <ele>116.586621</ele>
        <time>2026-07-14T08:51:01.000Z</time>
      </trkpt>
      <trkpt lat="46.06615" lon="13.62637">
        <ele>116.485324</ele>
        <time>2026-07-14T08:51:03.000Z</time>
      </trkpt>
      <trkpt lat="46.06599" lon="13.6264">
        <ele>116.301845</ele>
        <time>2026-07-14T08:51:07.000Z</time>
      </trkpt>
      <trkpt lat="46.06581" lon="13.62646">
        <ele>116.087192</ele>
        <time>2026-07-14T08:51:12.000Z</time>
      </trkpt>
      <trkpt lat="46.06564" lon="13.62651">
        <ele>115.894604</ele>
        <time>2026-07-14T08:51:17.000Z</time>
      </trkpt>
      <trkpt lat="46.06538" lon="13.62656">
        <ele>115.616583</ele>
        <time>2026-07-14T08:51:24.000Z</time>
      </trkpt>
      <trkpt lat="46.06518" lon="13.62658">
        <ele>115.416051</ele>
        <time>2026-07-14T08:51:29.000Z</time>
      </trkpt>
      <trkpt lat="46.06492" lon="13.6266">
        <ele>115.145942</ele>
        <time>2026-07-14T08:51:36.000Z</time>
      </trkpt>
      <trkpt lat="46.06474" lon="13.62656">
        <ele>114.956142</ele>
        <time>2026-07-14T08:51:40.000Z</time>
      </trkpt>
      <trkpt lat="46.06463" lon="13.62654">
        <ele>114.840377</ele>
        <time>2026-07-14T08:51:42.000Z</time>
      </trkpt>
      <trkpt lat="46.06451" lon="13.62652">
        <ele>114.717491</ele>
        <time>2026-07-14T08:51:44.000Z</time>
      </trkpt>
      <trkpt lat="46.0644" lon="13.62646">
        <ele>114.589174</ele>
        <time>2026-07-14T08:51:46.000Z</time>
      </trkpt>
      <trkpt lat="46.06434" lon="13.62644">
        <ele>114.526316</ele>
        <time>2026-07-14T08:51:47.000Z</time>
      </trkpt>
      <trkpt lat="46.0641" lon="13.62632">
        <ele>114.263482</ele>
        <time>2026-07-14T08:51:51.000Z</time>
      </trkpt>
      <trkpt lat="46.06404" lon="13.62629">
        <ele>114.195423</ele>
        <time>2026-07-14T08:51:52.000Z</time>
      </trkpt>
      <trkpt lat="46.06391" lon="13.62619">
        <ele>114.012208</ele>
        <time>2026-07-14T08:51:54.000Z</time>
      </trkpt>
      <trkpt lat="46.06379" lon="13.62608">
        <ele>113.752277</ele>
        <time>2026-07-14T08:51:56.000Z</time>
      </trkpt>
      <trkpt lat="46.06375" lon="13.62603">
        <ele>113.646345</ele>
        <time>2026-07-14T08:51:57.000Z</time>
      </trkpt>
      <trkpt lat="46.06366" lon="13.62595">
        <ele>113.444195</ele>
        <time>2026-07-14T08:51:59.000Z</time>
      </trkpt>
      <trkpt lat="46.06356" lon="13.62584">
        <ele>113.207751</ele>
        <time>2026-07-14T08:52:01.000Z</time>
      </trkpt>
      <trkpt lat="46.06334" lon="13.62557">
        <ele>112.662482</ele>
        <time>2026-07-14T08:52:06.000Z</time>
      </trkpt>
      <trkpt lat="46.06328" lon="13.62545">
        <ele>112.476103</ele>
        <time>2026-07-14T08:52:08.000Z</time>
      </trkpt>
      <trkpt lat="46.0632" lon="13.62535">
        <ele>112.279564</ele>
        <time>2026-07-14T08:52:10.000Z</time>
      </trkpt>
      <trkpt lat="46.06307" lon="13.6252">
        <ele>111.963979</ele>
        <time>2026-07-14T08:52:13.000Z</time>
      </trkpt>
      <trkpt lat="46.06286" lon="13.62496">
        <ele>111.455751</ele>
        <time>2026-07-14T08:52:17.000Z</time>
      </trkpt>
      <trkpt lat="46.06245" lon="13.62444">
        <ele>110.326502</ele>
        <time>2026-07-14T08:52:25.000Z</time>
      </trkpt>
      <trkpt lat="46.06224" lon="13.62414">
        <ele>109.562917</ele>
        <time>2026-07-14T08:52:30.000Z</time>
      </trkpt>
      <trkpt lat="46.06216" lon="13.62403">
        <ele>109.283479</ele>
        <time>2026-07-14T08:52:32.000Z</time>
      </trkpt>
      <trkpt lat="46.06184" lon="13.62364">
        <ele>108.205608</ele>
        <time>2026-07-14T08:52:40.000Z</time>
      </trkpt>
      <trkpt lat="46.0616" lon="13.62337">
        <ele>107.424863</ele>
        <time>2026-07-14T08:52:46.000Z</time>
      </trkpt>
      <trkpt lat="46.06147" lon="13.62325">
        <ele>107.041922</ele>
        <time>2026-07-14T08:52:49.000Z</time>
      </trkpt>
      <trkpt lat="46.06113" lon="13.62287">
        <ele>106.073128</ele>
        <time>2026-07-14T08:52:58.000Z</time>
      </trkpt>
      <trkpt lat="46.06093" lon="13.62263">
        <ele>106.039613</ele>
        <time>2026-07-14T08:53:03.000Z</time>
      </trkpt>
      <trkpt lat="46.06077" lon="13.62243">
        <ele>106.01222</ele>
        <time>2026-07-14T08:53:07.000Z</time>
      </trkpt>
      <trkpt lat="46.06044" lon="13.62197">
        <ele>105.953976</ele>
        <time>2026-07-14T08:53:16.000Z</time>
      </trkpt>
      <trkpt lat="46.0603" lon="13.62174">
        <ele>105.927633</ele>
        <time>2026-07-14T08:53:20.000Z</time>
      </trkpt>
      <trkpt lat="46.06023" lon="13.62163">
        <ele>105.914237</ele>
        <time>2026-07-14T08:53:22.000Z</time>
      </trkpt>
      <trkpt lat="46.06019" lon="13.62158">
        <ele>105.907823</ele>
        <time>2026-07-14T08:53:23.000Z</time>
      </trkpt>
      <trkpt lat="46.06016" lon="13.62153">
        <ele>105.901263</ele>
        <time>2026-07-14T08:53:24.000Z</time>
      </trkpt>
      <trkpt lat="46.06003" lon="13.62127">
        <ele>105.873725</ele>
        <time>2026-07-14T08:53:28.000Z</time>
      </trkpt>
      <trkpt lat="46.05975" lon="13.62079">
        <ele>105.667725</ele>
        <time>2026-07-14T08:53:36.000Z</time>
      </trkpt>
      <trkpt lat="46.05957" lon="13.6204">
        <ele>105.438958</ele>
        <time>2026-07-14T08:53:42.000Z</time>
      </trkpt>
      <trkpt lat="46.05946" lon="13.62014">
        <ele>105.29291</ele>
        <time>2026-07-14T08:53:46.000Z</time>
      </trkpt>
      <trkpt lat="46.0594" lon="13.62001">
        <ele>105.216077</ele>
        <time>2026-07-14T08:53:48.000Z</time>
      </trkpt>
      <trkpt lat="46.05923" lon="13.61952">
        <ele>104.953259</ele>
        <time>2026-07-14T08:53:55.000Z</time>
      </trkpt>
      <trkpt lat="46.05921" lon="13.61945">
        <ele>104.916868</ele>
        <time>2026-07-14T08:53:56.000Z</time>
      </trkpt>
      <trkpt lat="46.05919" lon="13.61938">
        <ele>104.877571</ele>
        <time>2026-07-14T08:53:57.000Z</time>
      </trkpt>
      <trkpt lat="46.0591" lon="13.61918">
        <ele>104.764746</ele>
        <time>2026-07-14T08:54:00.000Z</time>
      </trkpt>
      <trkpt lat="46.05903" lon="13.61897">
        <ele>104.650907</ele>
        <time>2026-07-14T08:54:03.000Z</time>
      </trkpt>
      <trkpt lat="46.05897" lon="13.61876">
        <ele>104.559185</ele>
        <time>2026-07-14T08:54:06.000Z</time>
      </trkpt>
      <trkpt lat="46.05894" lon="13.61869">
        <ele>104.534419</ele>
        <time>2026-07-14T08:54:07.000Z</time>
      </trkpt>
      <trkpt lat="46.05889" lon="13.61856">
        <ele>104.486592</ele>
        <time>2026-07-14T08:54:09.000Z</time>
      </trkpt>
      <trkpt lat="46.05884" lon="13.61845">
        <ele>104.44408</ele>
        <time>2026-07-14T08:54:11.000Z</time>
      </trkpt>
      <trkpt lat="46.05877" lon="13.61828">
        <ele>104.378898</ele>
        <time>2026-07-14T08:54:14.000Z</time>
      </trkpt>
      <trkpt lat="46.05873" lon="13.61816">
        <ele>104.337448</ele>
        <time>2026-07-14T08:54:16.000Z</time>
      </trkpt>
      <trkpt lat="46.05869" lon="13.61805">
        <ele>104.298307</ele>
        <time>2026-07-14T08:54:18.000Z</time>
      </trkpt>
      <trkpt lat="46.05864" lon="13.61789">
        <ele>104.241014</ele>
        <time>2026-07-14T08:54:21.000Z</time>
      </trkpt>
      <trkpt lat="46.05853" lon="13.61753">
        <ele>104.116243</ele>
        <time>2026-07-14T08:54:27.000Z</time>
      </trkpt>
      <trkpt lat="46.05852" lon="13.61747">
        <ele>104.095918</ele>
        <time>2026-07-14T08:54:28.000Z</time>
      </trkpt>
      <trkpt lat="46.0585" lon="13.61736">
        <ele>104.05962</ele>
        <time>2026-07-14T08:54:30.000Z</time>
      </trkpt>
      <trkpt lat="46.05842" lon="13.61708">
        <ele>103.96273</ele>
        <time>2026-07-14T08:54:35.000Z</time>
      </trkpt>
      <trkpt lat="46.05835" lon="13.61693">
        <ele>103.903147</ele>
        <time>2026-07-14T08:54:38.000Z</time>
      </trkpt>
      <trkpt lat="46.05828" lon="13.61685">
        <ele>103.862775</ele>
        <time>2026-07-14T08:54:40.000Z</time>
      </trkpt>
      <trkpt lat="46.05805" lon="13.61659">
        <ele>103.670625</ele>
        <time>2026-07-14T08:54:46.000Z</time>
      </trkpt>
      <trkpt lat="46.05783" lon="13.61635">
        <ele>103.344733</ele>
        <time>2026-07-14T08:54:50.000Z</time>
      </trkpt>
      <trkpt lat="46.05778" lon="13.61629">
        <ele>103.271483</ele>
        <time>2026-07-14T08:54:51.000Z</time>
      </trkpt>
      <trkpt lat="46.05773" lon="13.61625">
        <ele>103.207654</ele>
        <time>2026-07-14T08:54:52.000Z</time>
      </trkpt>
      <trkpt lat="46.05763" lon="13.61624">
        <ele>103.088922</ele>
        <time>2026-07-14T08:54:54.000Z</time>
      </trkpt>
      <trkpt lat="46.05754" lon="13.61631">
        <ele>102.961467</ele>
        <time>2026-07-14T08:54:56.000Z</time>
      </trkpt>
      <trkpt lat="46.05734" lon="13.61661">
        <ele>102.6303</ele>
        <time>2026-07-14T08:55:01.000Z</time>
      </trkpt>
      <trkpt lat="46.05706" lon="13.61695">
        <ele>102.200343</ele>
        <time>2026-07-14T08:55:08.000Z</time>
      </trkpt>
      <trkpt lat="46.05674" lon="13.61728">
        <ele>101.739234</ele>
        <time>2026-07-14T08:55:14.000Z</time>
      </trkpt>
      <trkpt lat="46.05651" lon="13.6175">
        <ele>100.777052</ele>
        <time>2026-07-14T08:55:19.000Z</time>
      </trkpt>
      <trkpt lat="46.05648" lon="13.61753">
        <ele>100.620626</ele>
        <time>2026-07-14T08:55:20.000Z</time>
      </trkpt>
      <trkpt lat="46.0564" lon="13.61755">
        <ele>100.259434</ele>
        <time>2026-07-14T08:55:23.000Z</time>
      </trkpt>
      <trkpt lat="46.05633" lon="13.61741">
        <ele>99.75448</ele>
        <time>2026-07-14T08:55:27.000Z</time>
      </trkpt>
      <trkpt lat="46.05628" lon="13.61723">
        <ele>99.210026</ele>
        <time>2026-07-14T08:55:31.000Z</time>
      </trkpt>
      <trkpt lat="46.05621" lon="13.61701">
        <ele>98.471367</ele>
        <time>2026-07-14T08:55:36.000Z</time>
      </trkpt>
      <trkpt lat="46.05601" lon="13.61649">
        <ele>96.725371</ele>
        <time>2026-07-14T08:55:47.000Z</time>
      </trkpt>
      <trkpt lat="46.05589" lon="13.61614">
        <ele>95.57467</ele>
        <time>2026-07-14T08:55:55.000Z</time>
      </trkpt>
      <trkpt lat="46.05583" lon="13.61599">
        <ele>95.050419</ele>
        <time>2026-07-14T08:55:57.000Z</time>
      </trkpt>
      <trkpt lat="46.0557" lon="13.61566">
        <ele>93.975782</ele>
        <time>2026-07-14T08:56:03.000Z</time>
      </trkpt>
      <trkpt lat="46.05565" lon="13.61555">
        <ele>93.816902</ele>
        <time>2026-07-14T08:56:05.000Z</time>
      </trkpt>
      <trkpt lat="46.05551" lon="13.61508">
        <ele>93.205189</ele>
        <time>2026-07-14T08:56:13.000Z</time>
      </trkpt>
      <trkpt lat="46.05543" lon="13.61462">
        <ele>92.640292</ele>
        <time>2026-07-14T08:56:20.000Z</time>
      </trkpt>
      <trkpt lat="46.05535" lon="13.61427">
        <ele>92.202894</ele>
        <time>2026-07-14T08:56:24.000Z</time>
      </trkpt>
      <trkpt lat="46.05532" lon="13.61419">
        <ele>92.093414</ele>
        <time>2026-07-14T08:56:25.000Z</time>
      </trkpt>
      <trkpt lat="46.0552" lon="13.61377">
        <ele>91.55394</ele>
        <time>2026-07-14T08:56:30.000Z</time>
      </trkpt>
      <trkpt lat="46.05518" lon="13.6137">
        <ele>91.462262</ele>
        <time>2026-07-14T08:56:31.000Z</time>
      </trkpt>
      <trkpt lat="46.05516" lon="13.61364">
        <ele>91.378881</ele>
        <time>2026-07-14T08:56:32.000Z</time>
      </trkpt>
      <trkpt lat="46.05506" lon="13.6135">
        <ele>91.138742</ele>
        <time>2026-07-14T08:56:35.000Z</time>
      </trkpt>
      <trkpt lat="46.055" lon="13.61339">
        <ele>90.976285</ele>
        <time>2026-07-14T08:56:37.000Z</time>
      </trkpt>
      <trkpt lat="46.05494" lon="13.61328">
        <ele>90.870477</ele>
        <time>2026-07-14T08:56:39.000Z</time>
      </trkpt>
      <trkpt lat="46.05492" lon="13.61321">
        <ele>90.835259</ele>
        <time>2026-07-14T08:56:40.000Z</time>
      </trkpt>
      <trkpt lat="46.05487" lon="13.613">
        <ele>90.720841</ele>
        <time>2026-07-14T08:56:43.000Z</time>
      </trkpt>
      <trkpt lat="46.05484" lon="13.61285">
        <ele>90.644471</ele>
        <time>2026-07-14T08:56:45.000Z</time>
      </trkpt>
      <trkpt lat="46.05483" lon="13.61269">
        <ele>90.566442</ele>
        <time>2026-07-14T08:56:47.000Z</time>
      </trkpt>
      <trkpt lat="46.05479" lon="13.61237">
        <ele>90.406318</ele>
        <time>2026-07-14T08:56:51.000Z</time>
      </trkpt>
      <trkpt lat="46.05478" lon="13.61214">
        <ele>90.291031</ele>
        <time>2026-07-14T08:56:54.000Z</time>
      </trkpt>
      <trkpt lat="46.05476" lon="13.61186">
        <ele>90.150132</ele>
        <time>2026-07-14T08:56:58.000Z</time>
      </trkpt>
      <trkpt lat="46.05474" lon="13.61173">
        <ele>90.085145</ele>
        <time>2026-07-14T08:57:00.000Z</time>
      </trkpt>
      <trkpt lat="46.05473" lon="13.61167">
        <ele>90.054099</ele>
        <time>2026-07-14T08:57:01.000Z</time>
      </trkpt>
      <trkpt lat="46.05471" lon="13.61153">
        <ele>89.98587</ele>
        <time>2026-07-14T08:57:03.000Z</time>
      </trkpt>
      <trkpt lat="46.05468" lon="13.61139">
        <ele>89.912138</ele>
        <time>2026-07-14T08:57:05.000Z</time>
      </trkpt>
      <trkpt lat="46.05466" lon="13.61131">
        <ele>89.872232</ele>
        <time>2026-07-14T08:57:06.000Z</time>
      </trkpt>
      <trkpt lat="46.05463" lon="13.611">
        <ele>89.712753</ele>
        <time>2026-07-14T08:57:10.000Z</time>
      </trkpt>
      <trkpt lat="46.05463" lon="13.61086">
        <ele>89.644366</ele>
        <time>2026-07-14T08:57:12.000Z</time>
      </trkpt>
      <trkpt lat="46.05464" lon="13.61065">
        <ele>90.025692</ele>
        <time>2026-07-14T08:57:15.000Z</time>
      </trkpt>
      <trkpt lat="46.05463" lon="13.61051">
        <ele>90.359043</ele>
        <time>2026-07-14T08:57:17.000Z</time>
      </trkpt>
      <trkpt lat="46.05461" lon="13.61045">
        <ele>90.526446</ele>
        <time>2026-07-14T08:57:18.000Z</time>
      </trkpt>
      <trkpt lat="46.05459" lon="13.61031">
        <ele>90.861132</ele>
        <time>2026-07-14T08:57:20.000Z</time>
      </trkpt>
      <trkpt lat="46.05457" lon="13.61004">
        <ele>91.503733</ele>
        <time>2026-07-14T08:57:24.000Z</time>
      </trkpt>
      <trkpt lat="46.05452" lon="13.60992">
        <ele>91.802472</ele>
        <time>2026-07-14T08:57:26.000Z</time>
      </trkpt>
      <trkpt lat="46.05447" lon="13.60982">
        <ele>92.103368</ele>
        <time>2026-07-14T08:57:28.000Z</time>
      </trkpt>
      <trkpt lat="46.05442" lon="13.60973">
        <ele>92.381128</ele>
        <time>2026-07-14T08:57:30.000Z</time>
      </trkpt>
      <trkpt lat="46.05432" lon="13.60954">
        <ele>92.942294</ele>
        <time>2026-07-14T08:57:34.000Z</time>
      </trkpt>
      <trkpt lat="46.05422" lon="13.60936">
        <ele>93.468896</ele>
        <time>2026-07-14T08:57:38.000Z</time>
      </trkpt>
      <trkpt lat="46.0542" lon="13.60931">
        <ele>93.606361</ele>
        <time>2026-07-14T08:57:39.000Z</time>
      </trkpt>
      <trkpt lat="46.05411" lon="13.60908">
        <ele>94.241952</ele>
        <time>2026-07-14T08:57:44.000Z</time>
      </trkpt>
      <trkpt lat="46.054" lon="13.60893">
        <ele>94.742163</ele>
        <time>2026-07-14T08:57:49.000Z</time>
      </trkpt>
      <trkpt lat="46.05392" lon="13.60877">
        <ele>95.205146</ele>
        <time>2026-07-14T08:57:54.000Z</time>
      </trkpt>
      <trkpt lat="46.05389" lon="13.60865">
        <ele>95.510024</ele>
        <time>2026-07-14T08:57:57.000Z</time>
      </trkpt>
      <trkpt lat="46.05384" lon="13.60848">
        <ele>95.731955</ele>
        <time>2026-07-14T08:58:01.000Z</time>
      </trkpt>
      <trkpt lat="46.05377" lon="13.60819">
        <ele>95.802125</ele>
        <time>2026-07-14T08:58:07.000Z</time>
      </trkpt>
      <trkpt lat="46.05374" lon="13.6081">
        <ele>95.826032</ele>
        <time>2026-07-14T08:58:09.000Z</time>
      </trkpt>
      <trkpt lat="46.05369" lon="13.60778">
        <ele>95.902463</ele>
        <time>2026-07-14T08:58:16.000Z</time>
      </trkpt>
      <trkpt lat="46.05368" lon="13.60761">
        <ele>95.940091</ele>
        <time>2026-07-14T08:58:19.000Z</time>
      </trkpt>
      <trkpt lat="46.05366" lon="13.60741">
        <ele>95.987998</ele>
        <time>2026-07-14T08:58:23.000Z</time>
      </trkpt>
      <trkpt lat="46.05366" lon="13.60731">
        <ele>96.011634</ele>
        <time>2026-07-14T08:58:25.000Z</time>
      </trkpt>
      <trkpt lat="46.05365" lon="13.60721">
        <ele>96.035089</ele>
        <time>2026-07-14T08:58:27.000Z</time>
      </trkpt>
      <trkpt lat="46.05365" lon="13.60711">
        <ele>96.05758</ele>
        <time>2026-07-14T08:58:29.000Z</time>
      </trkpt>
      <trkpt lat="46.05364" lon="13.60692">
        <ele>96.101744</ele>
        <time>2026-07-14T08:58:33.000Z</time>
      </trkpt>
      <trkpt lat="46.05364" lon="13.60665">
        <ele>96.163141</ele>
        <time>2026-07-14T08:58:38.000Z</time>
      </trkpt>
      <trkpt lat="46.05363" lon="13.60639">
        <ele>96.223673</ele>
        <time>2026-07-14T08:58:43.000Z</time>
      </trkpt>
      <trkpt lat="46.05359" lon="13.60597">
        <ele>96.274947</ele>
        <time>2026-07-14T08:58:51.000Z</time>
      </trkpt>
      <trkpt lat="46.0535" lon="13.60547">
        <ele>95.980152</ele>
        <time>2026-07-14T08:58:59.000Z</time>
      </trkpt>
      <trkpt lat="46.05336" lon="13.60493">
        <ele>95.642921</ele>
        <time>2026-07-14T08:59:07.000Z</time>
      </trkpt>
      <trkpt lat="46.05309" lon="13.60418">
        <ele>95.163712</ele>
        <time>2026-07-14T08:59:18.000Z</time>
      </trkpt>
      <trkpt lat="46.05288" lon="13.60362">
        <ele>94.778216</ele>
        <time>2026-07-14T08:59:27.000Z</time>
      </trkpt>
      <trkpt lat="46.05272" lon="13.60322">
        <ele>94.277921</ele>
        <time>2026-07-14T08:59:34.000Z</time>
      </trkpt>
      <trkpt lat="46.05269" lon="13.60316">
        <ele>94.201555</ele>
        <time>2026-07-14T08:59:35.000Z</time>
      </trkpt>
      <trkpt lat="46.05261" lon="13.60291">
        <ele>93.907652</ele>
        <time>2026-07-14T08:59:39.000Z</time>
      </trkpt>
      <trkpt lat="46.05243" lon="13.60243">
        <ele>93.320796</ele>
        <time>2026-07-14T08:59:47.000Z</time>
      </trkpt>
      <trkpt lat="46.05223" lon="13.60187">
        <ele>92.658164</ele>
        <time>2026-07-14T08:59:56.000Z</time>
      </trkpt>
      <trkpt lat="46.05201" lon="13.60126">
        <ele>91.926672</ele>
        <time>2026-07-14T09:00:06.000Z</time>
      </trkpt>
      <trkpt lat="46.0519" lon="13.60089">
        <ele>91.530787</ele>
        <time>2026-07-14T09:00:11.000Z</time>
      </trkpt>
      <trkpt lat="46.05173" lon="13.60006">
        <ele>90.678225</ele>
        <time>2026-07-14T09:00:21.000Z</time>
      </trkpt>
      <trkpt lat="46.05172" lon="13.59997">
        <ele>90.586753</ele>
        <time>2026-07-14T09:00:22.000Z</time>
      </trkpt>
      <trkpt lat="46.0516" lon="13.59924">
        <ele>89.850037</ele>
        <time>2026-07-14T09:00:30.000Z</time>
      </trkpt>
      <trkpt lat="46.05154" lon="13.5988">
        <ele>89.324622</ele>
        <time>2026-07-14T09:00:35.000Z</time>
      </trkpt>
      <trkpt lat="46.0515" lon="13.59848">
        <ele>88.6524</ele>
        <time>2026-07-14T09:00:39.000Z</time>
      </trkpt>
      <trkpt lat="46.0514" lon="13.59783">
        <ele>87.319394</ele>
        <time>2026-07-14T09:00:46.000Z</time>
      </trkpt>
      <trkpt lat="46.05124" lon="13.59731">
        <ele>86.170855</ele>
        <time>2026-07-14T09:00:51.000Z</time>
      </trkpt>
      <trkpt lat="46.05106" lon="13.59674">
        <ele>84.916401</ele>
        <time>2026-07-14T09:00:57.000Z</time>
      </trkpt>
      <trkpt lat="46.05095" lon="13.59617">
        <ele>84.249045</ele>
        <time>2026-07-14T09:01:04.000Z</time>
      </trkpt>
      <trkpt lat="46.05089" lon="13.59587">
        <ele>84.225016</ele>
        <time>2026-07-14T09:01:08.000Z</time>
      </trkpt>
      <trkpt lat="46.05086" lon="13.59581">
        <ele>84.219559</ele>
        <time>2026-07-14T09:01:09.000Z</time>
      </trkpt>
      <trkpt lat="46.05083" lon="13.59576">
        <ele>84.214483</ele>
        <time>2026-07-14T09:01:10.000Z</time>
      </trkpt>
      <trkpt lat="46.05078" lon="13.59563">
        <ele>84.203624</ele>
        <time>2026-07-14T09:01:13.000Z</time>
      </trkpt>
      <trkpt lat="46.05069" lon="13.59529">
        <ele>84.17557</ele>
        <time>2026-07-14T09:01:21.000Z</time>
      </trkpt>
      <trkpt lat="46.05069" lon="13.59511">
        <ele>84.162024</ele>
        <time>2026-07-14T09:01:25.000Z</time>
      </trkpt>
      <trkpt lat="46.05068" lon="13.59507">
        <ele>84.158631</ele>
        <time>2026-07-14T09:01:26.000Z</time>
      </trkpt>
      <trkpt lat="46.05054" lon="13.59481">
        <ele>84.13355</ele>
        <time>2026-07-14T09:01:32.000Z</time>
      </trkpt>
      <trkpt lat="46.0504" lon="13.59454">
        <ele>84.10853</ele>
        <time>2026-07-14T09:01:37.000Z</time>
      </trkpt>
      <trkpt lat="46.05037" lon="13.59449">
        <ele>84.103126</ele>
        <time>2026-07-14T09:01:38.000Z</time>
      </trkpt>
      <trkpt lat="46.05009" lon="13.59407">
        <ele>84.08405</ele>
        <time>2026-07-14T09:01:46.000Z</time>
      </trkpt>
      <trkpt lat="46.04986" lon="13.59375">
        <ele>84.113656</ele>
        <time>2026-07-14T09:01:53.000Z</time>
      </trkpt>
      <trkpt lat="46.04964" lon="13.5935">
        <ele>84.140311</ele>
        <time>2026-07-14T09:02:00.000Z</time>
      </trkpt>
      <trkpt lat="46.04948" lon="13.59331">
        <ele>84.159824</ele>
        <time>2026-07-14T09:02:06.000Z</time>
      </trkpt>
      <trkpt lat="46.04937" lon="13.59321">
        <ele>84.172486</ele>
        <time>2026-07-14T09:02:10.000Z</time>
      </trkpt>
      <trkpt lat="46.04927" lon="13.59313">
        <ele>84.183117</ele>
        <time>2026-07-14T09:02:13.000Z</time>
      </trkpt>
      <trkpt lat="46.04917" lon="13.59304">
        <ele>84.194551</ele>
        <time>2026-07-14T09:02:16.000Z</time>
      </trkpt>
      <trkpt lat="46.04896" lon="13.59287">
        <ele>84.216744</ele>
        <time>2026-07-14T09:02:22.000Z</time>
      </trkpt>
      <trkpt lat="46.04887" lon="13.59281">
        <ele>84.22686</ele>
        <time>2026-07-14T09:02:25.000Z</time>
      </trkpt>
      <trkpt lat="46.04875" lon="13.59274">
        <ele>84.238373</ele>
        <time>2026-07-14T09:02:28.000Z</time>
      </trkpt>
      <trkpt lat="46.04866" lon="13.59266">
        <ele>84.280033</ele>
        <time>2026-07-14T09:02:31.000Z</time>
      </trkpt>
      <trkpt lat="46.04859" lon="13.59261">
        <ele>84.323023</ele>
        <time>2026-07-14T09:02:33.000Z</time>
      </trkpt>
      <trkpt lat="46.04845" lon="13.59249">
        <ele>84.408894</ele>
        <time>2026-07-14T09:02:37.000Z</time>
      </trkpt>
      <trkpt lat="46.04812" lon="13.59222">
        <ele>84.61127</ele>
        <time>2026-07-14T09:02:46.000Z</time>
      </trkpt>
      <trkpt lat="46.04803" lon="13.59214">
        <ele>84.672291</ele>
        <time>2026-07-14T09:02:49.000Z</time>
      </trkpt>
      <trkpt lat="46.04787" lon="13.59202">
        <ele>84.765863</ele>
        <time>2026-07-14T09:02:53.000Z</time>
      </trkpt>
      <trkpt lat="46.04784" lon="13.59199">
        <ele>84.786902</ele>
        <time>2026-07-14T09:02:54.000Z</time>
      </trkpt>
      <trkpt lat="46.04764" lon="13.59173">
        <ele>84.933662</ele>
        <time>2026-07-14T09:03:01.000Z</time>
      </trkpt>
      <trkpt lat="46.04748" lon="13.59147">
        <ele>85.062987</ele>
        <time>2026-07-14T09:03:07.000Z</time>
      </trkpt>
      <trkpt lat="46.04741" lon="13.59134">
        <ele>85.123725</ele>
        <time>2026-07-14T09:03:10.000Z</time>
      </trkpt>
      <trkpt lat="46.04722" lon="13.59109">
        <ele>85.861807</ele>
        <time>2026-07-14T09:03:17.000Z</time>
      </trkpt>
      <trkpt lat="46.04698" lon="13.59101">
        <ele>87.576346</ele>
        <time>2026-07-14T09:03:24.000Z</time>
      </trkpt>
      <trkpt lat="46.04683" lon="13.59093">
        <ele>88.759693</ele>
        <time>2026-07-14T09:03:30.000Z</time>
      </trkpt>
      <trkpt lat="46.04676" lon="13.59088">
        <ele>89.289403</ele>
        <time>2026-07-14T09:03:33.000Z</time>
      </trkpt>
      <trkpt lat="46.04663" lon="13.5908">
        <ele>90.232144</ele>
        <time>2026-07-14T09:03:38.000Z</time>
      </trkpt>
      <trkpt lat="46.0464" lon="13.59063">
        <ele>92.079446</ele>
        <time>2026-07-14T09:03:48.000Z</time>
      </trkpt>
      <trkpt lat="46.04629" lon="13.59055">
        <ele>92.936499</ele>
        <time>2026-07-14T09:03:53.000Z</time>
      </trkpt>
      <trkpt lat="46.04625" lon="13.59051">
        <ele>93.274591</ele>
        <time>2026-07-14T09:03:55.000Z</time>
      </trkpt>
      <trkpt lat="46.04618" lon="13.59046">
        <ele>93.836289</ele>
        <time>2026-07-14T09:03:59.000Z</time>
      </trkpt>
      <trkpt lat="46.0461" lon="13.59038">
        <ele>94.46555</ele>
        <time>2026-07-14T09:04:03.000Z</time>
      </trkpt>
      <trkpt lat="46.04595" lon="13.5903">
        <ele>95.600934</ele>
        <time>2026-07-14T09:04:09.000Z</time>
      </trkpt>
      <trkpt lat="46.04578" lon="13.59019">
        <ele>96.932246</ele>
        <time>2026-07-14T09:04:17.000Z</time>
      </trkpt>
      <trkpt lat="46.04558" lon="13.59005">
        <ele>97.976997</ele>
        <time>2026-07-14T09:04:26.000Z</time>
      </trkpt>
      <trkpt lat="46.04542" lon="13.58994">
        <ele>98.357448</ele>
        <time>2026-07-14T09:04:33.000Z</time>
      </trkpt>
      <trkpt lat="46.04523" lon="13.58967">
        <ele>98.91947</ele>
        <time>2026-07-14T09:04:43.000Z</time>
      </trkpt>
      <trkpt lat="46.04503" lon="13.58939">
        <ele>99.521835</ele>
        <time>2026-07-14T09:04:51.000Z</time>
      </trkpt>
      <trkpt lat="46.04484" lon="13.58926">
        <ele>99.953142</ele>
        <time>2026-07-14T09:04:57.000Z</time>
      </trkpt>
      <trkpt lat="46.04466" lon="13.58918">
        <ele>100.366363</ele>
        <time>2026-07-14T09:05:03.000Z</time>
      </trkpt>
      <trkpt lat="46.04443" lon="13.58909">
        <ele>100.874866</ele>
        <time>2026-07-14T09:05:10.000Z</time>
      </trkpt>
      <trkpt lat="46.04421" lon="13.589">
        <ele>101.352752</ele>
        <time>2026-07-14T09:05:16.000Z</time>
      </trkpt>
      <trkpt lat="46.04411" lon="13.58894">
        <ele>101.591532</ele>
        <time>2026-07-14T09:05:19.000Z</time>
      </trkpt>
      <trkpt lat="46.04401" lon="13.5889">
        <ele>101.51803</ele>
        <time>2026-07-14T09:05:21.000Z</time>
      </trkpt>
      <trkpt lat="46.04392" lon="13.58885">
        <ele>101.435549</ele>
        <time>2026-07-14T09:05:23.000Z</time>
      </trkpt>
      <trkpt lat="46.04356" lon="13.5887">
        <ele>101.122348</ele>
        <time>2026-07-14T09:05:30.000Z</time>
      </trkpt>
      <trkpt lat="46.0433" lon="13.5887">
        <ele>100.909012</ele>
        <time>2026-07-14T09:05:36.000Z</time>
      </trkpt>
      <trkpt lat="46.04322" lon="13.5887">
        <ele>100.844511</ele>
        <time>2026-07-14T09:05:38.000Z</time>
      </trkpt>
      <trkpt lat="46.04311" lon="13.58869">
        <ele>100.75408</ele>
        <time>2026-07-14T09:05:41.000Z</time>
      </trkpt>
      <trkpt lat="46.04308" lon="13.58867">
        <ele>100.722949</ele>
        <time>2026-07-14T09:05:42.000Z</time>
      </trkpt>
      <trkpt lat="46.04304" lon="13.58864">
        <ele>100.690388</ele>
        <time>2026-07-14T09:05:43.000Z</time>
      </trkpt>
      <trkpt lat="46.04297" lon="13.58859">
        <ele>100.626189</ele>
        <time>2026-07-14T09:05:45.000Z</time>
      </trkpt>
      <trkpt lat="46.04291" lon="13.58852">
        <ele>100.558697</ele>
        <time>2026-07-14T09:05:47.000Z</time>
      </trkpt>
      <trkpt lat="46.04271" lon="13.58825">
        <ele>100.336062</ele>
        <time>2026-07-14T09:05:53.000Z</time>
      </trkpt>
      <trkpt lat="46.04268" lon="13.58821">
        <ele>100.297761</ele>
        <time>2026-07-14T09:05:54.000Z</time>
      </trkpt>
      <trkpt lat="46.0425" lon="13.58811">
        <ele>100.137066</ele>
        <time>2026-07-14T09:05:58.000Z</time>
      </trkpt>
      <trkpt lat="46.04222" lon="13.588">
        <ele>99.516874</ele>
        <time>2026-07-14T09:06:05.000Z</time>
      </trkpt>
      <trkpt lat="46.04217" lon="13.588">
        <ele>99.41717</ele>
        <time>2026-07-14T09:06:06.000Z</time>
      </trkpt>
      <trkpt lat="46.04213" lon="13.58801">
        <ele>99.323346</ele>
        <time>2026-07-14T09:06:07.000Z</time>
      </trkpt>
      <trkpt lat="46.04192" lon="13.58807">
        <ele>98.826127</ele>
        <time>2026-07-14T09:06:12.000Z</time>
      </trkpt>
      <trkpt lat="46.04187" lon="13.58807">
        <ele>98.714875</ele>
        <time>2026-07-14T09:06:13.000Z</time>
      </trkpt>
      <trkpt lat="46.04173" lon="13.58804">
        <ele>98.373097</ele>
        <time>2026-07-14T09:06:16.000Z</time>
      </trkpt>
      <trkpt lat="46.04164" lon="13.58798">
        <ele>98.148026</ele>
        <time>2026-07-14T09:06:18.000Z</time>
      </trkpt>
      <trkpt lat="46.04155" lon="13.58789">
        <ele>97.885704</ele>
        <time>2026-07-14T09:06:20.000Z</time>
      </trkpt>
      <trkpt lat="46.04141" lon="13.5877">
        <ele>97.451118</ele>
        <time>2026-07-14T09:06:23.000Z</time>
      </trkpt>
      <trkpt lat="46.04129" lon="13.58765">
        <ele>97.166397</ele>
        <time>2026-07-14T09:06:25.000Z</time>
      </trkpt>
      <trkpt lat="46.04118" lon="13.58769">
        <ele>96.893824</ele>
        <time>2026-07-14T09:06:27.000Z</time>
      </trkpt>
      <trkpt lat="46.04113" lon="13.58773">
        <ele>96.760494</ele>
        <time>2026-07-14T09:06:28.000Z</time>
      </trkpt>
      <trkpt lat="46.04103" lon="13.58781">
        <ele>96.501023</ele>
        <time>2026-07-14T09:06:30.000Z</time>
      </trkpt>
      <trkpt lat="46.04092" lon="13.58785">
        <ele>96.232819</ele>
        <time>2026-07-14T09:06:32.000Z</time>
      </trkpt>
      <trkpt lat="46.04087" lon="13.58786">
        <ele>96.10643</ele>
        <time>2026-07-14T09:06:33.000Z</time>
      </trkpt>
      <trkpt lat="46.04063" lon="13.58786">
        <ele>95.554716</ele>
        <time>2026-07-14T09:06:37.000Z</time>
      </trkpt>
      <trkpt lat="46.04042" lon="13.58786">
        <ele>95.079958</ele>
        <time>2026-07-14T09:06:41.000Z</time>
      </trkpt>
      <trkpt lat="46.04031" lon="13.58787">
        <ele>94.818291</ele>
        <time>2026-07-14T09:06:43.000Z</time>
      </trkpt>
      <trkpt lat="46.04026" lon="13.58789">
        <ele>94.706216</ele>
        <time>2026-07-14T09:06:44.000Z</time>
      </trkpt>
      <trkpt lat="46.04019" lon="13.58794">
        <ele>94.528933</ele>
        <time>2026-07-14T09:06:46.000Z</time>
      </trkpt>
      <trkpt lat="46.04016" lon="13.588">
        <ele>94.40662</ele>
        <time>2026-07-14T09:06:48.000Z</time>
      </trkpt>
      <trkpt lat="46.04017" lon="13.58803">
        <ele>94.352049</ele>
        <time>2026-07-14T09:06:49.000Z</time>
      </trkpt>
      <trkpt lat="46.04021" lon="13.58812">
        <ele>94.171753</ele>
        <time>2026-07-14T09:06:52.000Z</time>
      </trkpt>
      <trkpt lat="46.04023" lon="13.58819">
        <ele>94.050027</ele>
        <time>2026-07-14T09:06:54.000Z</time>
      </trkpt>
      <trkpt lat="46.04025" lon="13.5883">
        <ele>93.870246</ele>
        <time>2026-07-14T09:06:59.000Z</time>
      </trkpt>
      <trkpt lat="46.04024" lon="13.58838">
        <ele>93.7432</ele>
        <time>2026-07-14T09:07:02.000Z</time>
      </trkpt>
      <trkpt lat="46.04023" lon="13.58857">
        <ele>93.436024</ele>
        <time>2026-07-14T09:07:07.000Z</time>
      </trkpt>
      <trkpt lat="46.04024" lon="13.5886">
        <ele>93.391245</ele>
        <time>2026-07-14T09:07:08.000Z</time>
      </trkpt>
      <trkpt lat="46.04027" lon="13.58855">
        <ele>93.292584</ele>
        <time>2026-07-14T09:07:11.000Z</time>
      </trkpt>
      <trkpt lat="46.04026" lon="13.58827">
        <ele>92.843668</ele>
        <time>2026-07-14T09:07:17.000Z</time>
      </trkpt>
      <trkpt lat="46.04014" lon="13.58807">
        <ele>92.41442</ele>
        <time>2026-07-14T09:07:22.000Z</time>
      </trkpt>
      <trkpt lat="46.04" lon="13.58798">
        <ele>92.067047</ele>
        <time>2026-07-14T09:07:26.000Z</time>
      </trkpt>
      <trkpt lat="46.03993" lon="13.58797">
        <ele>91.896632</ele>
        <time>2026-07-14T09:07:28.000Z</time>
      </trkpt>
      <trkpt lat="46.03977" lon="13.58797">
        <ele>91.378879</ele>
        <time>2026-07-14T09:07:33.000Z</time>
      </trkpt>
      <trkpt lat="46.03974" lon="13.58796">
        <ele>91.289816</ele>
        <time>2026-07-14T09:07:34.000Z</time>
      </trkpt>
      <trkpt lat="46.03973" lon="13.58796">
        <ele>91.253904</ele>
        <time>2026-07-14T09:07:37.000Z</time>
      </trkpt>
      <trkpt lat="46.03967" lon="13.58812">
        <ele>90.816945</ele>
        <time>2026-07-14T09:08:40.000Z</time>
      </trkpt>
      <trkpt lat="46.03958" lon="13.58834">
        <ele>90.173001</ele>
        <time>2026-07-14T09:08:44.000Z</time>
      </trkpt>
      <trkpt lat="46.03949" lon="13.58859">
        <ele>89.479178</ele>
        <time>2026-07-14T09:08:47.000Z</time>
      </trkpt>
      <trkpt lat="46.03944" lon="13.58867">
        <ele>89.231297</ele>
        <time>2026-07-14T09:08:48.000Z</time>
      </trkpt>
      <trkpt lat="46.03939" lon="13.58874">
        <ele>88.975564</ele>
        <time>2026-07-14T09:08:49.000Z</time>
      </trkpt>
      <trkpt lat="46.03921" lon="13.58891">
        <ele>88.203683</ele>
        <time>2026-07-14T09:08:52.000Z</time>
      </trkpt>
      <trkpt lat="46.03892" lon="13.58914">
        <ele>87.012023</ele>
        <time>2026-07-14T09:08:57.000Z</time>
      </trkpt>
      <trkpt lat="46.03886" lon="13.58919">
        <ele>86.784007</ele>
        <time>2026-07-14T09:08:58.000Z</time>
      </trkpt>
      <trkpt lat="46.03859" lon="13.58963">
        <ele>85.337176</ele>
        <time>2026-07-14T09:09:05.000Z</time>
      </trkpt>
      <trkpt lat="46.03839" lon="13.59006">
        <ele>84.287253</ele>
        <time>2026-07-14T09:09:12.000Z</time>
      </trkpt>
      <trkpt lat="46.03827" lon="13.59033">
        <ele>83.658869</ele>
        <time>2026-07-14T09:09:16.000Z</time>
      </trkpt>
      <trkpt lat="46.03822" lon="13.59043">
        <ele>83.395984</ele>
        <time>2026-07-14T09:09:18.000Z</time>
      </trkpt>
      <trkpt lat="46.03817" lon="13.59056">
        <ele>83.089142</ele>
        <time>2026-07-14T09:09:20.000Z</time>
      </trkpt>
      <trkpt lat="46.03815" lon="13.59062">
        <ele>82.953045</ele>
        <time>2026-07-14T09:09:21.000Z</time>
      </trkpt>
      <trkpt lat="46.03811" lon="13.59075">
        <ele>82.674112</ele>
        <time>2026-07-14T09:09:23.000Z</time>
      </trkpt>
      <trkpt lat="46.03804" lon="13.59092">
        <ele>82.27672</ele>
        <time>2026-07-14T09:09:26.000Z</time>
      </trkpt>
      <trkpt lat="46.038" lon="13.591">
        <ele>82.08033</ele>
        <time>2026-07-14T09:09:28.000Z</time>
      </trkpt>
      <trkpt lat="46.03794" lon="13.59114">
        <ele>81.745689</ele>
        <time>2026-07-14T09:09:33.000Z</time>
      </trkpt>
      <trkpt lat="46.03794" lon="13.59114">
        <ele>81.732208</ele>
        <time>2026-07-14T09:09:34.000Z</time>
      </trkpt>
      <trkpt lat="46.03787" lon="13.59117">
        <ele>81.529663</ele>
        <time>2026-07-14T09:10:59.000Z</time>
      </trkpt>
      <trkpt lat="46.03785" lon="13.5912">
        <ele>81.462266</ele>
        <time>2026-07-14T09:11:00.000Z</time>
      </trkpt>
      <trkpt lat="46.03783" lon="13.59123">
        <ele>81.361172</ele>
        <time>2026-07-14T09:11:02.000Z</time>
      </trkpt>
      <trkpt lat="46.03773" lon="13.59138">
        <ele>80.940818</ele>
        <time>2026-07-14T09:11:09.000Z</time>
      </trkpt>
      <trkpt lat="46.03769" lon="13.59144">
        <ele>80.774813</ele>
        <time>2026-07-14T09:11:12.000Z</time>
      </trkpt>
      <trkpt lat="46.03764" lon="13.59156">
        <ele>80.509738</ele>
        <time>2026-07-14T09:11:17.000Z</time>
      </trkpt>
      <trkpt lat="46.0376" lon="13.59166">
        <ele>80.263591</ele>
        <time>2026-07-14T09:11:23.000Z</time>
      </trkpt>
      <trkpt lat="46.0376" lon="13.59167">
        <ele>80.245174</ele>
        <time>2026-07-14T09:11:25.000Z</time>
      </trkpt>
      <trkpt lat="46.03759" lon="13.59173">
        <ele>80.20525</ele>
        <time>2026-07-14T09:11:41.000Z</time>
      </trkpt>
      <trkpt lat="46.03758" lon="13.59178">
        <ele>80.35972</ele>
        <time>2026-07-14T09:11:43.000Z</time>
      </trkpt>
      <trkpt lat="46.03758" lon="13.59181">
        <ele>80.470122</ele>
        <time>2026-07-14T09:11:44.000Z</time>
      </trkpt>
      <trkpt lat="46.03753" lon="13.59192">
        <ele>80.850722</ele>
        <time>2026-07-14T09:11:47.000Z</time>
      </trkpt>
      <trkpt lat="46.03751" lon="13.59199">
        <ele>81.10549</ele>
        <time>2026-07-14T09:11:49.000Z</time>
      </trkpt>
      <trkpt lat="46.03748" lon="13.59205">
        <ele>81.334408</ele>
        <time>2026-07-14T09:11:51.000Z</time>
      </trkpt>
      <trkpt lat="46.03737" lon="13.59244">
        <ele>82.66099</ele>
        <time>2026-07-14T09:12:01.000Z</time>
      </trkpt>
      <trkpt lat="46.03735" lon="13.59256">
        <ele>83.047397</ele>
        <time>2026-07-14T09:12:04.000Z</time>
      </trkpt>
      <trkpt lat="46.0373" lon="13.59274">
        <ele>83.65753</ele>
        <time>2026-07-14T09:12:09.000Z</time>
      </trkpt>
      <trkpt lat="46.03722" lon="13.59298">
        <ele>84.503073</ele>
        <time>2026-07-14T09:12:15.000Z</time>
      </trkpt>
      <trkpt lat="46.03717" lon="13.59311">
        <ele>84.949876</ele>
        <time>2026-07-14T09:12:18.000Z</time>
      </trkpt>
      <trkpt lat="46.03709" lon="13.59327">
        <ele>85.570923</ele>
        <time>2026-07-14T09:12:22.000Z</time>
      </trkpt>
      <trkpt lat="46.03705" lon="13.59335">
        <ele>85.886339</ele>
        <time>2026-07-14T09:12:24.000Z</time>
      </trkpt>
      <trkpt lat="46.03703" lon="13.59339">
        <ele>86.038869</ele>
        <time>2026-07-14T09:12:25.000Z</time>
      </trkpt>
      <trkpt lat="46.03696" lon="13.59355">
        <ele>86.636081</ele>
        <time>2026-07-14T09:12:30.000Z</time>
      </trkpt>
      <trkpt lat="46.03694" lon="13.59357">
        <ele>86.730004</ele>
        <time>2026-07-14T09:12:31.000Z</time>
      </trkpt>
      <trkpt lat="46.03689" lon="13.5937">
        <ele>87.200473</ele>
        <time>2026-07-14T09:12:37.000Z</time>
      </trkpt>
      <trkpt lat="46.03684" lon="13.59382">
        <ele>87.666019</ele>
        <time>2026-07-14T09:12:43.000Z</time>
      </trkpt>
      <trkpt lat="46.03676" lon="13.59401">
        <ele>88.432907</ele>
        <time>2026-07-14T09:12:51.000Z</time>
      </trkpt>
      <trkpt lat="46.03666" lon="13.59419">
        <ele>89.916007</ele>
        <time>2026-07-14T09:13:00.000Z</time>
      </trkpt>
      <trkpt lat="46.03665" lon="13.59421">
        <ele>90.077235</ele>
        <time>2026-07-14T09:13:01.000Z</time>
      </trkpt>
      <trkpt lat="46.03657" lon="13.59432">
        <ele>91.135997</ele>
        <time>2026-07-14T09:13:08.000Z</time>
      </trkpt>
      <trkpt lat="46.03653" lon="13.59437">
        <ele>91.623559</ele>
        <time>2026-07-14T09:13:11.000Z</time>
      </trkpt>
      <trkpt lat="46.03643" lon="13.59447">
        <ele>92.736227</ele>
        <time>2026-07-14T09:13:18.000Z</time>
      </trkpt>
      <trkpt lat="46.0363" lon="13.59459">
        <ele>94.190098</ele>
        <time>2026-07-14T09:13:27.000Z</time>
      </trkpt>
      <trkpt lat="46.03622" lon="13.5947">
        <ele>95.229891</ele>
        <time>2026-07-14T09:13:34.000Z</time>
      </trkpt>
      <trkpt lat="46.03614" lon="13.59478">
        <ele>96.163041</ele>
        <time>2026-07-14T09:13:40.000Z</time>
      </trkpt>
      <trkpt lat="46.03609" lon="13.5948">
        <ele>96.666706</ele>
        <time>2026-07-14T09:13:43.000Z</time>
      </trkpt>
      <trkpt lat="46.03596" lon="13.59489">
        <ele>98.015113</ele>
        <time>2026-07-14T09:13:51.000Z</time>
      </trkpt>
      <trkpt lat="46.03594" lon="13.5949">
        <ele>98.190139</ele>
        <time>2026-07-14T09:13:52.000Z</time>
      </trkpt>
      <trkpt lat="46.03582" lon="13.59498">
        <ele>99.394729</ele>
        <time>2026-07-14T09:13:59.000Z</time>
      </trkpt>
      <trkpt lat="46.03572" lon="13.59502">
        <ele>100.402241</ele>
        <time>2026-07-14T09:14:05.000Z</time>
      </trkpt>
      <trkpt lat="46.03569" lon="13.59505">
        <ele>100.726368</ele>
        <time>2026-07-14T09:14:07.000Z</time>
      </trkpt>
      <trkpt lat="46.03555" lon="13.59514">
        <ele>102.170924</ele>
        <time>2026-07-14T09:14:16.000Z</time>
      </trkpt>
      <trkpt lat="46.03547" lon="13.59518">
        <ele>103.023391</ele>
        <time>2026-07-14T09:14:21.000Z</time>
      </trkpt>
      <trkpt lat="46.03541" lon="13.59518">
        <ele>103.567908</ele>
        <time>2026-07-14T09:14:24.000Z</time>
      </trkpt>
      <trkpt lat="46.03539" lon="13.59518">
        <ele>103.765047</ele>
        <time>2026-07-14T09:14:25.000Z</time>
      </trkpt>
      <trkpt lat="46.03526" lon="13.59517">
        <ele>104.988366</ele>
        <time>2026-07-14T09:14:32.000Z</time>
      </trkpt>
      <trkpt lat="46.03505" lon="13.59514">
        <ele>106.833512</ele>
        <time>2026-07-14T09:14:43.000Z</time>
      </trkpt>
      <trkpt lat="46.03496" lon="13.59513">
        <ele>107.608102</ele>
        <time>2026-07-14T09:14:48.000Z</time>
      </trkpt>
      <trkpt lat="46.03488" lon="13.59513">
        <ele>108.234633</ele>
        <time>2026-07-14T09:14:52.000Z</time>
      </trkpt>
      <trkpt lat="46.03485" lon="13.59512">
        <ele>108.540822</ele>
        <time>2026-07-14T09:14:54.000Z</time>
      </trkpt>
      <trkpt lat="46.03472" lon="13.59509">
        <ele>109.687535</ele>
        <time>2026-07-14T09:15:01.000Z</time>
      </trkpt>
      <trkpt lat="46.03456" lon="13.59508">
        <ele>111.052978</ele>
        <time>2026-07-14T09:15:09.000Z</time>
      </trkpt>
      <trkpt lat="46.03445" lon="13.59509">
        <ele>111.939714</ele>
        <time>2026-07-14T09:15:15.000Z</time>
      </trkpt>
      <trkpt lat="46.03445" lon="13.59509">
        <ele>111.939714</ele>
        <time>2026-07-14T09:15:17.000Z</time>
      </trkpt>
      <trkpt lat="46.03444" lon="13.59501">
        <ele>112.402196</ele>
        <time>2026-07-14T09:15:35.000Z</time>
      </trkpt>
      <trkpt lat="46.03444" lon="13.59499">
        <ele>112.52883</ele>
        <time>2026-07-14T09:15:36.000Z</time>
      </trkpt>
      <trkpt lat="46.0344" lon="13.5949">
        <ele>113.191445</ele>
        <time>2026-07-14T09:15:41.000Z</time>
      </trkpt>
      <trkpt lat="46.03436" lon="13.59486">
        <ele>113.60348</ele>
        <time>2026-07-14T09:15:43.000Z</time>
      </trkpt>
      <trkpt lat="46.03426" lon="13.59483">
        <ele>114.440674</ele>
        <time>2026-07-14T09:15:47.000Z</time>
      </trkpt>
      <trkpt lat="46.03404" lon="13.59476">
        <ele>116.370941</ele>
        <time>2026-07-14T09:15:58.000Z</time>
      </trkpt>
      <trkpt lat="46.03386" lon="13.5947">
        <ele>117.993114</ele>
        <time>2026-07-14T09:16:07.000Z</time>
      </trkpt>
      <trkpt lat="46.03384" lon="13.59469">
        <ele>118.156614</ele>
        <time>2026-07-14T09:16:08.000Z</time>
      </trkpt>
      <trkpt lat="46.03364" lon="13.59458">
        <ele>120.021641</ele>
        <time>2026-07-14T09:16:18.000Z</time>
      </trkpt>
      <trkpt lat="46.03358" lon="13.59454">
        <ele>120.545451</ele>
        <time>2026-07-14T09:16:21.000Z</time>
      </trkpt>
      <trkpt lat="46.03353" lon="13.59446">
        <ele>120.772451</ele>
        <time>2026-07-14T09:16:25.000Z</time>
      </trkpt>
      <trkpt lat="46.03346" lon="13.59434">
        <ele>121.021969</ele>
        <time>2026-07-14T09:16:31.000Z</time>
      </trkpt>
      <trkpt lat="46.03341" lon="13.59429">
        <ele>121.170779</ele>
        <time>2026-07-14T09:16:34.000Z</time>
      </trkpt>
      <trkpt lat="46.03327" lon="13.59421">
        <ele>121.526978</ele>
        <time>2026-07-14T09:16:41.000Z</time>
      </trkpt>
      <trkpt lat="46.03321" lon="13.59417">
        <ele>121.677654</ele>
        <time>2026-07-14T09:16:44.000Z</time>
      </trkpt>
      <trkpt lat="46.03313" lon="13.59413">
        <ele>121.880541</ele>
        <time>2026-07-14T09:16:48.000Z</time>
      </trkpt>
      <trkpt lat="46.03305" lon="13.59408">
        <ele>122.072568</ele>
        <time>2026-07-14T09:16:52.000Z</time>
      </trkpt>
      <trkpt lat="46.03289" lon="13.594">
        <ele>122.456427</ele>
        <time>2026-07-14T09:17:00.000Z</time>
      </trkpt>
      <trkpt lat="46.03271" lon="13.59394">
        <ele>122.894474</ele>
        <time>2026-07-14T09:17:09.000Z</time>
      </trkpt>
      <trkpt lat="46.0325" lon="13.59386">
        <ele>123.404168</ele>
        <time>2026-07-14T09:17:18.000Z</time>
      </trkpt>
      <trkpt lat="46.03232" lon="13.59382">
        <ele>123.811432</ele>
        <time>2026-07-14T09:17:26.000Z</time>
      </trkpt>
      <trkpt lat="46.03215" lon="13.59377">
        <ele>124.231867</ele>
        <time>2026-07-14T09:17:31.000Z</time>
      </trkpt>
      <trkpt lat="46.03206" lon="13.59371">
        <ele>124.445942</ele>
        <time>2026-07-14T09:17:33.000Z</time>
      </trkpt>
      <trkpt lat="46.03191" lon="13.59361">
        <ele>124.719044</ele>
        <time>2026-07-14T09:17:36.000Z</time>
      </trkpt>
      <trkpt lat="46.03185" lon="13.59358">
        <ele>124.462866</ele>
        <time>2026-07-14T09:17:37.000Z</time>
      </trkpt>
      <trkpt lat="46.03173" lon="13.59353">
        <ele>123.934436</ele>
        <time>2026-07-14T09:17:39.000Z</time>
      </trkpt>
      <trkpt lat="46.03167" lon="13.59353">
        <ele>123.713875</ele>
        <time>2026-07-14T09:17:40.000Z</time>
      </trkpt>
      <trkpt lat="46.03162" lon="13.59353">
        <ele>123.517752</ele>
        <time>2026-07-14T09:17:41.000Z</time>
      </trkpt>
      <trkpt lat="46.03153" lon="13.59357">
        <ele>123.125663</ele>
        <time>2026-07-14T09:17:44.000Z</time>
      </trkpt>
      <trkpt lat="46.03141" lon="13.59365">
        <ele>122.581431</ele>
        <time>2026-07-14T09:17:48.000Z</time>
      </trkpt>
      <trkpt lat="46.03134" lon="13.59371">
        <ele>122.260503</ele>
        <time>2026-07-14T09:17:50.000Z</time>
      </trkpt>
      <trkpt lat="46.03113" lon="13.59387">
        <ele>121.284737</ele>
        <time>2026-07-14T09:17:54.000Z</time>
      </trkpt>
      <trkpt lat="46.03078" lon="13.59419">
        <ele>119.585923</ele>
        <time>2026-07-14T09:18:00.000Z</time>
      </trkpt>
      <trkpt lat="46.03061" lon="13.59427">
        <ele>118.847774</ele>
        <time>2026-07-14T09:18:02.000Z</time>
      </trkpt>
      <trkpt lat="46.03045" lon="13.59434">
        <ele>118.177507</ele>
        <time>2026-07-14T09:18:04.000Z</time>
      </trkpt>
      <trkpt lat="46.03016" lon="13.59441">
        <ele>116.771213</ele>
        <time>2026-07-14T09:18:07.000Z</time>
      </trkpt>
      <trkpt lat="46.02999" lon="13.5944">
        <ele>115.769575</ele>
        <time>2026-07-14T09:18:09.000Z</time>
      </trkpt>
      <trkpt lat="46.02976" lon="13.59435">
        <ele>114.412335</ele>
        <time>2026-07-14T09:18:12.000Z</time>
      </trkpt>
      <trkpt lat="46.0297" lon="13.59433">
        <ele>114.010114</ele>
        <time>2026-07-14T09:18:13.000Z</time>
      </trkpt>
      <trkpt lat="46.02963" lon="13.59433">
        <ele>113.620822</ele>
        <time>2026-07-14T09:18:14.000Z</time>
      </trkpt>
      <trkpt lat="46.02949" lon="13.59437">
        <ele>112.804029</ele>
        <time>2026-07-14T09:18:16.000Z</time>
      </trkpt>
      <trkpt lat="46.02937" lon="13.59441">
        <ele>112.081371</ele>
        <time>2026-07-14T09:18:18.000Z</time>
      </trkpt>
      <trkpt lat="46.02923" lon="13.59439">
        <ele>111.253088</ele>
        <time>2026-07-14T09:18:20.000Z</time>
      </trkpt>
      <trkpt lat="46.0289" lon="13.5943">
        <ele>109.22192</ele>
        <time>2026-07-14T09:18:24.000Z</time>
      </trkpt>
      <trkpt lat="46.02863" lon="13.59419">
        <ele>107.574773</ele>
        <time>2026-07-14T09:18:27.000Z</time>
      </trkpt>
      <trkpt lat="46.02855" lon="13.59412">
        <ele>107.054141</ele>
        <time>2026-07-14T09:18:28.000Z</time>
      </trkpt>
      <trkpt lat="46.02834" lon="13.59389">
        <ele>104.965153</ele>
        <time>2026-07-14T09:18:31.000Z</time>
      </trkpt>
      <trkpt lat="46.02827" lon="13.59385">
        <ele>104.343786</ele>
        <time>2026-07-14T09:18:32.000Z</time>
      </trkpt>
      <trkpt lat="46.02816" lon="13.59381">
        <ele>103.429059</ele>
        <time>2026-07-14T09:18:34.000Z</time>
      </trkpt>
      <trkpt lat="46.02812" lon="13.59382">
        <ele>103.093885</ele>
        <time>2026-07-14T09:18:35.000Z</time>
      </trkpt>
      <trkpt lat="46.02809" lon="13.59387">
        <ele>102.769406</ele>
        <time>2026-07-14T09:18:36.000Z</time>
      </trkpt>
      <trkpt lat="46.02809" lon="13.59393">
        <ele>102.429175</ele>
        <time>2026-07-14T09:18:37.000Z</time>
      </trkpt>
      <trkpt lat="46.0281" lon="13.594">
        <ele>102.043339</ele>
        <time>2026-07-14T09:18:38.000Z</time>
      </trkpt>
      <trkpt lat="46.02816" lon="13.59425">
        <ele>100.548768</ele>
        <time>2026-07-14T09:18:41.000Z</time>
      </trkpt>
      <trkpt lat="46.02822" lon="13.59451">
        <ele>98.979461</ele>
        <time>2026-07-14T09:18:45.000Z</time>
      </trkpt>
      <trkpt lat="46.0282" lon="13.59465">
        <ele>98.176799</ele>
        <time>2026-07-14T09:18:47.000Z</time>
      </trkpt>
      <trkpt lat="46.02818" lon="13.59472">
        <ele>97.788523</ele>
        <time>2026-07-14T09:18:48.000Z</time>
      </trkpt>
      <trkpt lat="46.02809" lon="13.59491">
        <ele>96.469664</ele>
        <time>2026-07-14T09:18:52.000Z</time>
      </trkpt>
      <trkpt lat="46.02808" lon="13.59495">
        <ele>96.258477</ele>
        <time>2026-07-14T09:18:53.000Z</time>
      </trkpt>
      <trkpt lat="46.02794" lon="13.59522">
        <ele>94.352686</ele>
        <time>2026-07-14T09:19:00.000Z</time>
      </trkpt>
      <trkpt lat="46.02778" lon="13.5955">
        <ele>92.321217</ele>
        <time>2026-07-14T09:19:04.000Z</time>
      </trkpt>
      <trkpt lat="46.02752" lon="13.59579">
        <ele>90.552574</ele>
        <time>2026-07-14T09:19:08.000Z</time>
      </trkpt>
      <trkpt lat="46.0273" lon="13.59616">
        <ele>88.748641</ele>
        <time>2026-07-14T09:19:12.000Z</time>
      </trkpt>
      <trkpt lat="46.02723" lon="13.59635">
        <ele>87.935348</ele>
        <time>2026-07-14T09:19:14.000Z</time>
      </trkpt>
      <trkpt lat="46.02721" lon="13.59646">
        <ele>87.507359</ele>
        <time>2026-07-14T09:19:15.000Z</time>
      </trkpt>
      <trkpt lat="46.02719" lon="13.59655">
        <ele>87.169701</ele>
        <time>2026-07-14T09:19:16.000Z</time>
      </trkpt>
      <trkpt lat="46.02717" lon="13.59675">
        <ele>86.419047</ele>
        <time>2026-07-14T09:19:18.000Z</time>
      </trkpt>
      <trkpt lat="46.02714" lon="13.59687">
        <ele>85.948255</ele>
        <time>2026-07-14T09:19:19.000Z</time>
      </trkpt>
      <trkpt lat="46.02701" lon="13.59712">
        <ele>84.80183</ele>
        <time>2026-07-14T09:19:22.000Z</time>
      </trkpt>
      <trkpt lat="46.02695" lon="13.59727">
        <ele>84.162971</ele>
        <time>2026-07-14T09:19:24.000Z</time>
      </trkpt>
      <trkpt lat="46.02676" lon="13.59771">
        <ele>82.495194</ele>
        <time>2026-07-14T09:19:30.000Z</time>
      </trkpt>
      <trkpt lat="46.02661" lon="13.59815">
        <ele>81.793908</ele>
        <time>2026-07-14T09:19:36.000Z</time>
      </trkpt>
      <trkpt lat="46.02659" lon="13.59822">
        <ele>81.678464</ele>
        <time>2026-07-14T09:19:37.000Z</time>
      </trkpt>
      <trkpt lat="46.02657" lon="13.59829">
        <ele>81.57088</ele>
        <time>2026-07-14T09:19:38.000Z</time>
      </trkpt>
      <trkpt lat="46.02648" lon="13.59858">
        <ele>81.124414</ele>
        <time>2026-07-14T09:19:42.000Z</time>
      </trkpt>
      <trkpt lat="46.02646" lon="13.59865">
        <ele>81.013322</ele>
        <time>2026-07-14T09:19:43.000Z</time>
      </trkpt>
      <trkpt lat="46.02642" lon="13.59886">
        <ele>80.695786</ele>
        <time>2026-07-14T09:19:46.000Z</time>
      </trkpt>
      <trkpt lat="46.02639" lon="13.59903">
        <ele>80.447005</ele>
        <time>2026-07-14T09:19:48.000Z</time>
      </trkpt>
      <trkpt lat="46.02638" lon="13.5995">
        <ele>79.781208</ele>
        <time>2026-07-14T09:19:54.000Z</time>
      </trkpt>
      <trkpt lat="46.02637" lon="13.59979">
        <ele>79.35574</ele>
        <time>2026-07-14T09:19:58.000Z</time>
      </trkpt>
      <trkpt lat="46.02635" lon="13.60003">
        <ele>79.016688</ele>
        <time>2026-07-14T09:20:01.000Z</time>
      </trkpt>
      <trkpt lat="46.02633" lon="13.60019">
        <ele>79.060987</ele>
        <time>2026-07-14T09:20:03.000Z</time>
      </trkpt>
      <trkpt lat="46.02632" lon="13.60028">
        <ele>79.143556</ele>
        <time>2026-07-14T09:20:04.000Z</time>
      </trkpt>
      <trkpt lat="46.02629" lon="13.60044">
        <ele>79.312631</ele>
        <time>2026-07-14T09:20:06.000Z</time>
      </trkpt>
      <trkpt lat="46.02628" lon="13.60053">
        <ele>79.39921</ele>
        <time>2026-07-14T09:20:07.000Z</time>
      </trkpt>
      <trkpt lat="46.02618" lon="13.60113">
        <ele>80.004625</ele>
        <time>2026-07-14T09:20:14.000Z</time>
      </trkpt>
      <trkpt lat="46.0261" lon="13.60162">
        <ele>80.498035</ele>
        <time>2026-07-14T09:20:20.000Z</time>
      </trkpt>
      <trkpt lat="46.02607" lon="13.60185">
        <ele>80.72667</ele>
        <time>2026-07-14T09:20:23.000Z</time>
      </trkpt>
      <trkpt lat="46.02604" lon="13.602">
        <ele>80.877399</ele>
        <time>2026-07-14T09:20:25.000Z</time>
      </trkpt>
      <trkpt lat="46.02589" lon="13.60262">
        <ele>81.488815</ele>
        <time>2026-07-14T09:20:33.000Z</time>
      </trkpt>
      <trkpt lat="46.02585" lon="13.60278">
        <ele>81.507629</ele>
        <time>2026-07-14T09:20:35.000Z</time>
      </trkpt>
      <trkpt lat="46.02577" lon="13.60298">
        <ele>81.533024</ele>
        <time>2026-07-14T09:20:38.000Z</time>
      </trkpt>
      <trkpt lat="46.02563" lon="13.60333">
        <ele>81.575857</ele>
        <time>2026-07-14T09:20:43.000Z</time>
      </trkpt>
      <trkpt lat="46.02557" lon="13.60346">
        <ele>81.593809</ele>
        <time>2026-07-14T09:20:45.000Z</time>
      </trkpt>
      <trkpt lat="46.02538" lon="13.60377">
        <ele>81.637942</ele>
        <time>2026-07-14T09:20:50.000Z</time>
      </trkpt>
      <trkpt lat="46.02534" lon="13.60387">
        <ele>81.650698</ele>
        <time>2026-07-14T09:20:52.000Z</time>
      </trkpt>
      <trkpt lat="46.0253" lon="13.60392">
        <ele>81.658541</ele>
        <time>2026-07-14T09:20:53.000Z</time>
      </trkpt>
      <trkpt lat="46.02508" lon="13.60414">
        <ele>81.700981</ele>
        <time>2026-07-14T09:20:58.000Z</time>
      </trkpt>
      <trkpt lat="46.02504" lon="13.60419">
        <ele>81.709881</ele>
        <time>2026-07-14T09:20:59.000Z</time>
      </trkpt>
      <trkpt lat="46.02481" lon="13.60445">
        <ele>81.755653</ele>
        <time>2026-07-14T09:21:04.000Z</time>
      </trkpt>
      <trkpt lat="46.02476" lon="13.6045">
        <ele>81.764049</ele>
        <time>2026-07-14T09:21:05.000Z</time>
      </trkpt>
      <trkpt lat="46.02472" lon="13.60455">
        <ele>81.784326</ele>
        <time>2026-07-14T09:21:06.000Z</time>
      </trkpt>
      <trkpt lat="46.02454" lon="13.60474">
        <ele>81.869055</ele>
        <time>2026-07-14T09:21:10.000Z</time>
      </trkpt>
      <trkpt lat="46.02444" lon="13.60484">
        <ele>81.916313</ele>
        <time>2026-07-14T09:21:12.000Z</time>
      </trkpt>
      <trkpt lat="46.02421" lon="13.60505">
        <ele>82.02312</ele>
        <time>2026-07-14T09:21:17.000Z</time>
      </trkpt>
      <trkpt lat="46.02413" lon="13.60513">
        <ele>82.062347</ele>
        <time>2026-07-14T09:21:19.000Z</time>
      </trkpt>
      <trkpt lat="46.02394" lon="13.6053">
        <ele>82.148492</ele>
        <time>2026-07-14T09:21:23.000Z</time>
      </trkpt>
      <trkpt lat="46.02374" lon="13.60543">
        <ele>82.234882</ele>
        <time>2026-07-14T09:21:27.000Z</time>
      </trkpt>
      <trkpt lat="46.02338" lon="13.60568">
        <ele>82.388805</ele>
        <time>2026-07-14T09:21:34.000Z</time>
      </trkpt>
      <trkpt lat="46.02297" lon="13.60584">
        <ele>83.429993</ele>
        <time>2026-07-14T09:21:42.000Z</time>
      </trkpt>
      <trkpt lat="46.02279" lon="13.60589">
        <ele>84.213324</ele>
        <time>2026-07-14T09:21:45.000Z</time>
      </trkpt>
      <trkpt lat="46.02268" lon="13.60591">
        <ele>84.674142</ele>
        <time>2026-07-14T09:21:47.000Z</time>
      </trkpt>
      <trkpt lat="46.02258" lon="13.60594">
        <ele>85.103451</ele>
        <time>2026-07-14T09:21:49.000Z</time>
      </trkpt>
      <trkpt lat="46.02237" lon="13.60597">
        <ele>86.008213</ele>
        <time>2026-07-14T09:21:53.000Z</time>
      </trkpt>
      <trkpt lat="46.02225" lon="13.60599">
        <ele>86.517634</ele>
        <time>2026-07-14T09:21:55.000Z</time>
      </trkpt>
      <trkpt lat="46.02213" lon="13.60602">
        <ele>87.028029</ele>
        <time>2026-07-14T09:21:57.000Z</time>
      </trkpt>
      <trkpt lat="46.02174" lon="13.60615">
        <ele>88.706197</ele>
        <time>2026-07-14T09:22:04.000Z</time>
      </trkpt>
      <trkpt lat="46.02138" lon="13.60631">
        <ele>90.253363</ele>
        <time>2026-07-14T09:22:11.000Z</time>
      </trkpt>
      <trkpt lat="46.02102" lon="13.60633">
        <ele>91.567862</ele>
        <time>2026-07-14T09:22:17.000Z</time>
      </trkpt>
      <trkpt lat="46.02095" lon="13.60635">
        <ele>91.807802</ele>
        <time>2026-07-14T09:22:18.000Z</time>
      </trkpt>
      <trkpt lat="46.02082" lon="13.60637">
        <ele>92.273056</ele>
        <time>2026-07-14T09:22:20.000Z</time>
      </trkpt>
      <trkpt lat="46.02077" lon="13.60636">
        <ele>92.482626</ele>
        <time>2026-07-14T09:22:21.000Z</time>
      </trkpt>
      <trkpt lat="46.02065" lon="13.60635">
        <ele>92.916321</ele>
        <time>2026-07-14T09:22:23.000Z</time>
      </trkpt>
      <trkpt lat="46.02053" lon="13.60636">
        <ele>93.334901</ele>
        <time>2026-07-14T09:22:25.000Z</time>
      </trkpt>
      <trkpt lat="46.02048" lon="13.60635">
        <ele>93.533529</ele>
        <time>2026-07-14T09:22:26.000Z</time>
      </trkpt>
      <trkpt lat="46.02019" lon="13.60631">
        <ele>94.580948</ele>
        <time>2026-07-14T09:22:31.000Z</time>
      </trkpt>
      <trkpt lat="46.01981" lon="13.60618">
        <ele>95.993195</ele>
        <time>2026-07-14T09:22:38.000Z</time>
      </trkpt>
      <trkpt lat="46.01965" lon="13.60614">
        <ele>96.549888</ele>
        <time>2026-07-14T09:22:41.000Z</time>
      </trkpt>
      <trkpt lat="46.01954" lon="13.60613">
        <ele>96.262473</ele>
        <time>2026-07-14T09:22:43.000Z</time>
      </trkpt>
      <trkpt lat="46.01933" lon="13.60607">
        <ele>95.713045</ele>
        <time>2026-07-14T09:22:47.000Z</time>
      </trkpt>
      <trkpt lat="46.0192" lon="13.60602">
        <ele>95.363961</ele>
        <time>2026-07-14T09:22:50.000Z</time>
      </trkpt>
      <trkpt lat="46.01903" lon="13.60592">
        <ele>94.89589</ele>
        <time>2026-07-14T09:22:55.000Z</time>
      </trkpt>
      <trkpt lat="46.01892" lon="13.60582">
        <ele>94.563865</ele>
        <time>2026-07-14T09:23:00.000Z</time>
      </trkpt>
      <trkpt lat="46.01884" lon="13.60575">
        <ele>94.304846</ele>
        <time>2026-07-14T09:23:04.000Z</time>
      </trkpt>
      <trkpt lat="46.01866" lon="13.60558">
        <ele>93.755331</ele>
        <time>2026-07-14T09:23:12.000Z</time>
      </trkpt>
      <trkpt lat="46.01851" lon="13.60551">
        <ele>93.347959</ele>
        <time>2026-07-14T09:23:17.000Z</time>
      </trkpt>
      <trkpt lat="46.01832" lon="13.60545">
        <ele>92.855661</ele>
        <time>2026-07-14T09:23:20.000Z</time>
      </trkpt>
      <trkpt lat="46.0179" lon="13.60542">
        <ele>92.095336</ele>
        <time>2026-07-14T09:23:27.000Z</time>
      </trkpt>
      <trkpt lat="46.01773" lon="13.60543">
        <ele>92.618115</ele>
        <time>2026-07-14T09:23:30.000Z</time>
      </trkpt>
      <trkpt lat="46.0176" lon="13.60547">
        <ele>93.028499</ele>
        <time>2026-07-14T09:23:33.000Z</time>
      </trkpt>
      <trkpt lat="46.0175" lon="13.60551">
        <ele>93.34147</ele>
        <time>2026-07-14T09:23:35.000Z</time>
      </trkpt>
      <trkpt lat="46.01734" lon="13.60558">
        <ele>93.863255</ele>
        <time>2026-07-14T09:23:38.000Z</time>
      </trkpt>
      <trkpt lat="46.0173" lon="13.60561">
        <ele>93.993658</ele>
        <time>2026-07-14T09:23:39.000Z</time>
      </trkpt>
      <trkpt lat="46.0172" lon="13.60567">
        <ele>94.319582</ele>
        <time>2026-07-14T09:23:41.000Z</time>
      </trkpt>
      <trkpt lat="46.01711" lon="13.60573">
        <ele>94.605114</ele>
        <time>2026-07-14T09:23:43.000Z</time>
      </trkpt>
      <trkpt lat="46.01688" lon="13.6058">
        <ele>95.336486</ele>
        <time>2026-07-14T09:23:48.000Z</time>
      </trkpt>
      <trkpt lat="46.0168" lon="13.60585">
        <ele>95.611044</ele>
        <time>2026-07-14T09:23:50.000Z</time>
      </trkpt>
      <trkpt lat="46.01671" lon="13.60595">
        <ele>95.949569</ele>
        <time>2026-07-14T09:23:53.000Z</time>
      </trkpt>
      <trkpt lat="46.01656" lon="13.60613">
        <ele>96.558413</ele>
        <time>2026-07-14T09:23:57.000Z</time>
      </trkpt>
      <trkpt lat="46.01652" lon="13.6062">
        <ele>96.747849</ele>
        <time>2026-07-14T09:23:58.000Z</time>
      </trkpt>
      <trkpt lat="46.01628" lon="13.60654">
        <ele>96.943571</ele>
        <time>2026-07-14T09:24:03.000Z</time>
      </trkpt>
      <trkpt lat="46.01617" lon="13.60671">
        <ele>96.290153</ele>
        <time>2026-07-14T09:24:07.000Z</time>
      </trkpt>
      <trkpt lat="46.0161" lon="13.60688">
        <ele>95.719329</ele>
        <time>2026-07-14T09:24:11.000Z</time>
      </trkpt>
      <trkpt lat="46.01606" lon="13.60693">
        <ele>95.512433</ele>
        <time>2026-07-14T09:24:12.000Z</time>
      </trkpt>
      <trkpt lat="46.016" lon="13.60703">
        <ele>95.12199</ele>
        <time>2026-07-14T09:24:14.000Z</time>
      </trkpt>
      <trkpt lat="46.01585" lon="13.60725">
        <ele>94.249725</ele>
        <time>2026-07-14T09:24:18.000Z</time>
      </trkpt>
      <trkpt lat="46.01565" lon="13.60754">
        <ele>93.073503</ele>
        <time>2026-07-14T09:24:23.000Z</time>
      </trkpt>
      <trkpt lat="46.01562" lon="13.60761">
        <ele>92.848992</ele>
        <time>2026-07-14T09:24:24.000Z</time>
      </trkpt>
      <trkpt lat="46.01558" lon="13.60766">
        <ele>92.621356</ele>
        <time>2026-07-14T09:24:25.000Z</time>
      </trkpt>
      <trkpt lat="46.01544" lon="13.60791">
        <ele>91.739127</ele>
        <time>2026-07-14T09:24:29.000Z</time>
      </trkpt>
      <trkpt lat="46.01537" lon="13.6081">
        <ele>91.123313</ele>
        <time>2026-07-14T09:24:32.000Z</time>
      </trkpt>
      <trkpt lat="46.01533" lon="13.60821">
        <ele>90.758405</ele>
        <time>2026-07-14T09:24:34.000Z</time>
      </trkpt>
      <trkpt lat="46.01526" lon="13.60835">
        <ele>90.245525</ele>
        <time>2026-07-14T09:24:36.000Z</time>
      </trkpt>
      <trkpt lat="46.01511" lon="13.60863">
        <ele>89.325214</ele>
        <time>2026-07-14T09:24:40.000Z</time>
      </trkpt>
      <trkpt lat="46.01498" lon="13.6089">
        <ele>88.462534</ele>
        <time>2026-07-14T09:24:44.000Z</time>
      </trkpt>
      <trkpt lat="46.01486" lon="13.60916">
        <ele>87.644906</ele>
        <time>2026-07-14T09:24:48.000Z</time>
      </trkpt>
      <trkpt lat="46.01464" lon="13.60963">
        <ele>86.166294</ele>
        <time>2026-07-14T09:24:55.000Z</time>
      </trkpt>
      <trkpt lat="46.0145" lon="13.60994">
        <ele>85.191378</ele>
        <time>2026-07-14T09:25:00.000Z</time>
      </trkpt>
      <trkpt lat="46.01439" lon="13.61018">
        <ele>84.450622</ele>
        <time>2026-07-14T09:25:04.000Z</time>
      </trkpt>
      <trkpt lat="46.0143" lon="13.61041">
        <ele>83.753357</ele>
        <time>2026-07-14T09:25:08.000Z</time>
      </trkpt>
      <trkpt lat="46.01421" lon="13.61057">
        <ele>83.344332</ele>
        <time>2026-07-14T09:25:11.000Z</time>
      </trkpt>
      <trkpt lat="46.01409" lon="13.61075">
        <ele>84.137093</ele>
        <time>2026-07-14T09:25:16.000Z</time>
      </trkpt>
      <trkpt lat="46.01392" lon="13.61092">
        <ele>85.083076</ele>
        <time>2026-07-14T09:25:23.000Z</time>
      </trkpt>
      <trkpt lat="46.01389" lon="13.61095">
        <ele>85.229511</ele>
        <time>2026-07-14T09:25:26.000Z</time>
      </trkpt>
      <trkpt lat="46.01385" lon="13.61097">
        <ele>85.444148</ele>
        <time>2026-07-14T09:25:28.000Z</time>
      </trkpt>
      <trkpt lat="46.01383" lon="13.61098">
        <ele>85.53804</ele>
        <time>2026-07-14T09:25:29.000Z</time>
      </trkpt>
      <trkpt lat="46.01369" lon="13.61103">
        <ele>86.20933</ele>
        <time>2026-07-14T09:25:36.000Z</time>
      </trkpt>
      <trkpt lat="46.01355" lon="13.61104">
        <ele>86.812158</ele>
        <time>2026-07-14T09:25:43.000Z</time>
      </trkpt>
      <trkpt lat="46.0135" lon="13.61108">
        <ele>87.109752</ele>
        <time>2026-07-14T09:25:47.000Z</time>
      </trkpt>
      <trkpt lat="46.01347" lon="13.61109">
        <ele>87.211691</ele>
        <time>2026-07-14T09:25:49.000Z</time>
      </trkpt>
      <trkpt lat="46.01332" lon="13.61118">
        <ele>87.955536</ele>
        <time>2026-07-14T09:25:57.000Z</time>
      </trkpt>
      <trkpt lat="46.0132" lon="13.61123">
        <ele>88.544015</ele>
        <time>2026-07-14T09:26:00.000Z</time>
      </trkpt>
      <trkpt lat="46.01315" lon="13.61126">
        <ele>88.77796</ele>
        <time>2026-07-14T09:26:01.000Z</time>
      </trkpt>
      <trkpt lat="46.0131" lon="13.61128">
        <ele>89.03442</ele>
        <time>2026-07-14T09:26:02.000Z</time>
      </trkpt>
      <trkpt lat="46.01282" lon="13.61146">
        <ele>90.397963</ele>
        <time>2026-07-14T09:26:07.000Z</time>
      </trkpt>
      <trkpt lat="46.01276" lon="13.61149">
        <ele>90.730706</ele>
        <time>2026-07-14T09:26:08.000Z</time>
      </trkpt>
      <trkpt lat="46.01247" lon="13.61161">
        <ele>92.514408</ele>
        <time>2026-07-14T09:26:13.000Z</time>
      </trkpt>
      <trkpt lat="46.01233" lon="13.61159">
        <ele>93.601057</ele>
        <time>2026-07-14T09:26:17.000Z</time>
      </trkpt>
      <trkpt lat="46.01231" lon="13.61158">
        <ele>93.765049</ele>
        <time>2026-07-14T09:26:18.000Z</time>
      </trkpt>
      <trkpt lat="46.0123" lon="13.61153">
        <ele>94.03119</ele>
        <time>2026-07-14T09:26:20.000Z</time>
      </trkpt>
      <trkpt lat="46.0123" lon="13.61153">
        <ele>94.03119</ele>
        <time>2026-07-14T09:26:25.000Z</time>
      </trkpt>
      <trkpt lat="46.01226" lon="13.61122">
        <ele>95.751528</ele>
        <time>2026-07-14T09:26:37.000Z</time>
      </trkpt>
      <trkpt lat="46.01216" lon="13.61126">
        <ele>96.568289</ele>
        <time>2026-07-14T09:27:29.000Z</time>
      </trkpt>
      <trkpt lat="46.01217" lon="13.61125">
        <ele>96.617514</ele>
        <time>2026-07-14T09:27:32.000Z</time>
      </trkpt>
      <trkpt lat="46.01199" lon="13.61133">
        <ele>98.081404</ele>
        <time>2026-07-14T09:28:43.000Z</time>
      </trkpt>
      <trkpt lat="46.01194" lon="13.61131">
        <ele>98.461199</ele>
        <time>2026-07-14T09:28:46.000Z</time>
      </trkpt>
      <trkpt lat="46.01187" lon="13.61133">
        <ele>98.99065</ele>
        <time>2026-07-14T09:28:48.000Z</time>
      </trkpt>
      <trkpt lat="46.01166" lon="13.61134">
        <ele>100.627984</ele>
        <time>2026-07-14T09:28:54.000Z</time>
      </trkpt>
      <trkpt lat="46.01152" lon="13.61134">
        <ele>101.742988</ele>
        <time>2026-07-14T09:29:00.000Z</time>
      </trkpt>
      <trkpt lat="46.01137" lon="13.61144">
        <ele>103.045778</ele>
        <time>2026-07-14T09:29:07.000Z</time>
      </trkpt>
      <trkpt lat="46.01135" lon="13.61145">
        <ele>103.160679</ele>
        <time>2026-07-14T09:29:08.000Z</time>
      </trkpt>
      <trkpt lat="46.01129" lon="13.61149">
        <ele>103.660224</ele>
        <time>2026-07-14T09:29:12.000Z</time>
      </trkpt>
      <trkpt lat="46.01128" lon="13.61149">
        <ele>103.804259</ele>
        <time>2026-07-14T09:29:13.000Z</time>
      </trkpt>
      <trkpt lat="46.01118" lon="13.61155">
        <ele>104.610813</ele>
        <time>2026-07-14T09:29:18.000Z</time>
      </trkpt>
      <trkpt lat="46.01109" lon="13.61155">
        <ele>105.35141</ele>
        <time>2026-07-14T09:29:24.000Z</time>
      </trkpt>
      <trkpt lat="46.01099" lon="13.61159">
        <ele>105.388496</ele>
        <time>2026-07-14T09:29:30.000Z</time>
      </trkpt>
      <trkpt lat="46.01095" lon="13.61163">
        <ele>105.317522</ele>
        <time>2026-07-14T09:29:35.000Z</time>
      </trkpt>
      <trkpt lat="46.01092" lon="13.61164">
        <ele>105.271162</ele>
        <time>2026-07-14T09:29:37.000Z</time>
      </trkpt>
      <trkpt lat="46.01075" lon="13.61173">
        <ele>105.012152</ele>
        <time>2026-07-14T09:29:46.000Z</time>
      </trkpt>
      <trkpt lat="46.0106" lon="13.61185">
        <ele>104.762683</ele>
        <time>2026-07-14T09:29:51.000Z</time>
      </trkpt>
      <trkpt lat="46.0105" lon="13.61194">
        <ele>104.596208</ele>
        <time>2026-07-14T09:29:53.000Z</time>
      </trkpt>
      <trkpt lat="46.01046" lon="13.612">
        <ele>104.505863</ele>
        <time>2026-07-14T09:29:54.000Z</time>
      </trkpt>
      <trkpt lat="46.01014" lon="13.61226">
        <ele>103.980151</ele>
        <time>2026-07-14T09:30:00.000Z</time>
      </trkpt>
      <trkpt lat="46.01003" lon="13.6123">
        <ele>103.818953</ele>
        <time>2026-07-14T09:30:05.000Z</time>
      </trkpt>
      <trkpt lat="46.01002" lon="13.61231">
        <ele>103.799506</ele>
        <time>2026-07-14T09:30:06.000Z</time>
      </trkpt>
      <trkpt lat="46.0099" lon="13.61244">
        <ele>103.580286</ele>
        <time>2026-07-14T09:30:10.000Z</time>
      </trkpt>
      <trkpt lat="46.00982" lon="13.61256">
        <ele>103.400683</ele>
        <time>2026-07-14T09:30:14.000Z</time>
      </trkpt>
      <trkpt lat="46.00976" lon="13.61264">
        <ele>103.286843</ele>
        <time>2026-07-14T09:30:16.000Z</time>
      </trkpt>
      <trkpt lat="46.00963" lon="13.61279">
        <ele>103.046706</ele>
        <time>2026-07-14T09:30:19.000Z</time>
      </trkpt>
      <trkpt lat="46.00959" lon="13.61286">
        <ele>102.958899</ele>
        <time>2026-07-14T09:30:20.000Z</time>
      </trkpt>
      <trkpt lat="46.00949" lon="13.61301">
        <ele>102.622327</ele>
        <time>2026-07-14T09:30:22.000Z</time>
      </trkpt>
      <trkpt lat="46.00937" lon="13.61319">
        <ele>102.162022</ele>
        <time>2026-07-14T09:30:24.000Z</time>
      </trkpt>
      <trkpt lat="46.00912" lon="13.61366">
        <ele>101.043741</ele>
        <time>2026-07-14T09:30:28.000Z</time>
      </trkpt>
      <trkpt lat="46.00887" lon="13.61447">
        <ele>99.399954</ele>
        <time>2026-07-14T09:30:34.000Z</time>
      </trkpt>
      <trkpt lat="46.00873" lon="13.61517">
        <ele>98.08742</ele>
        <time>2026-07-14T09:30:40.000Z</time>
      </trkpt>
      <trkpt lat="46.00866" lon="13.61573">
        <ele>98.938344</ele>
        <time>2026-07-14T09:30:46.000Z</time>
      </trkpt>
      <trkpt lat="46.00869" lon="13.61599">
        <ele>99.328358</ele>
        <time>2026-07-14T09:30:50.000Z</time>
      </trkpt>
      <trkpt lat="46.00874" lon="13.61627">
        <ele>99.762884</ele>
        <time>2026-07-14T09:30:56.000Z</time>
      </trkpt>
      <trkpt lat="46.00876" lon="13.61663">
        <ele>100.306457</ele>
        <time>2026-07-14T09:31:03.000Z</time>
      </trkpt>
      <trkpt lat="46.00871" lon="13.61705">
        <ele>100.933873</ele>
        <time>2026-07-14T09:31:11.000Z</time>
      </trkpt>
      <trkpt lat="46.0087" lon="13.61725">
        <ele>101.243417</ele>
        <time>2026-07-14T09:31:15.000Z</time>
      </trkpt>
      <trkpt lat="46.00863" lon="13.61759">
        <ele>101.772303</ele>
        <time>2026-07-14T09:31:21.000Z</time>
      </trkpt>
      <trkpt lat="46.00861" lon="13.61772">
        <ele>101.961985</ele>
        <time>2026-07-14T09:31:23.000Z</time>
      </trkpt>
      <trkpt lat="46.00858" lon="13.61794">
        <ele>102.331249</ele>
        <time>2026-07-14T09:31:27.000Z</time>
      </trkpt>
      <trkpt lat="46.00852" lon="13.6182">
        <ele>102.777398</ele>
        <time>2026-07-14T09:31:31.000Z</time>
      </trkpt>
      <trkpt lat="46.0085" lon="13.61833">
        <ele>102.986014</ele>
        <time>2026-07-14T09:31:33.000Z</time>
      </trkpt>
      <trkpt lat="46.00848" lon="13.61843">
        <ele>103.165832</ele>
        <time>2026-07-14T09:31:35.000Z</time>
      </trkpt>
      <trkpt lat="46.0084" lon="13.61875">
        <ele>103.706671</ele>
        <time>2026-07-14T09:31:41.000Z</time>
      </trkpt>
      <trkpt lat="46.00827" lon="13.61912">
        <ele>104.380071</ele>
        <time>2026-07-14T09:31:48.000Z</time>
      </trkpt>
      <trkpt lat="46.00823" lon="13.61934">
        <ele>104.751237</ele>
        <time>2026-07-14T09:31:53.000Z</time>
      </trkpt>
      <trkpt lat="46.00813" lon="13.61952">
        <ele>105.117855</ele>
        <time>2026-07-14T09:31:58.000Z</time>
      </trkpt>
      <trkpt lat="46.00803" lon="13.61971">
        <ele>105.502232</ele>
        <time>2026-07-14T09:32:03.000Z</time>
      </trkpt>
      <trkpt lat="46.00799" lon="13.61979">
        <ele>105.660338</ele>
        <time>2026-07-14T09:32:05.000Z</time>
      </trkpt>
      <trkpt lat="46.00788" lon="13.61996">
        <ele>106.042961</ele>
        <time>2026-07-14T09:32:10.000Z</time>
      </trkpt>
      <trkpt lat="46.00779" lon="13.62013">
        <ele>106.507942</ele>
        <time>2026-07-14T09:32:15.000Z</time>
      </trkpt>
      <trkpt lat="46.00771" lon="13.62033">
        <ele>107.074788</ele>
        <time>2026-07-14T09:32:22.000Z</time>
      </trkpt>
      <trkpt lat="46.00769" lon="13.62039">
        <ele>107.231093</ele>
        <time>2026-07-14T09:32:24.000Z</time>
      </trkpt>
      <trkpt lat="46.00766" lon="13.62043">
        <ele>107.373368</ele>
        <time>2026-07-14T09:32:26.000Z</time>
      </trkpt>
      <trkpt lat="46.00758" lon="13.62061">
        <ele>107.88703</ele>
        <time>2026-07-14T09:32:33.000Z</time>
      </trkpt>
      <trkpt lat="46.00745" lon="13.62081">
        <ele>108.534668</ele>
        <time>2026-07-14T09:32:40.000Z</time>
      </trkpt>
      <trkpt lat="46.00744" lon="13.62083">
        <ele>108.619403</ele>
        <time>2026-07-14T09:32:41.000Z</time>
      </trkpt>
      <trkpt lat="46.00735" lon="13.62094">
        <ele>109.014741</ele>
        <time>2026-07-14T09:32:46.000Z</time>
      </trkpt>
      <trkpt lat="46.00731" lon="13.62105">
        <ele>109.319056</ele>
        <time>2026-07-14T09:32:50.000Z</time>
      </trkpt>
      <trkpt lat="46.00723" lon="13.62118">
        <ele>109.729214</ele>
        <time>2026-07-14T09:32:55.000Z</time>
      </trkpt>
      <trkpt lat="46.00714" lon="13.62138">
        <ele>110.302423</ele>
        <time>2026-07-14T09:33:00.000Z</time>
      </trkpt>
      <trkpt lat="46.00705" lon="13.62154">
        <ele>110.803808</ele>
        <time>2026-07-14T09:33:05.000Z</time>
      </trkpt>
      <trkpt lat="46.00691" lon="13.62182">
        <ele>111.646393</ele>
        <time>2026-07-14T09:33:12.000Z</time>
      </trkpt>
      <trkpt lat="46.00671" lon="13.6222">
        <ele>112.15863</ele>
        <time>2026-07-14T09:33:20.000Z</time>
      </trkpt>
      <trkpt lat="46.00667" lon="13.62225">
        <ele>112.053332</ele>
        <time>2026-07-14T09:33:21.000Z</time>
      </trkpt>
      <trkpt lat="46.00658" lon="13.62247">
        <ele>111.724793</ele>
        <time>2026-07-14T09:33:24.000Z</time>
      </trkpt>
      <trkpt lat="46.00652" lon="13.62261">
        <ele>111.519027</ele>
        <time>2026-07-14T09:33:26.000Z</time>
      </trkpt>
      <trkpt lat="46.00639" lon="13.62286">
        <ele>111.115972</ele>
        <time>2026-07-14T09:33:29.000Z</time>
      </trkpt>
      <trkpt lat="46.00616" lon="13.62325">
        <ele>110.470265</ele>
        <time>2026-07-14T09:33:34.000Z</time>
      </trkpt>
      <trkpt lat="46.00607" lon="13.6234">
        <ele>110.224736</ele>
        <time>2026-07-14T09:33:36.000Z</time>
      </trkpt>
      <trkpt lat="46.00583" lon="13.62391">
        <ele>109.433618</ele>
        <time>2026-07-14T09:33:43.000Z</time>
      </trkpt>
      <trkpt lat="46.00578" lon="13.62399">
        <ele>109.303185</ele>
        <time>2026-07-14T09:33:44.000Z</time>
      </trkpt>
      <trkpt lat="46.00574" lon="13.62406">
        <ele>109.192267</ele>
        <time>2026-07-14T09:33:45.000Z</time>
      </trkpt>
      <trkpt lat="46.00563" lon="13.62432">
        <ele>108.858483</ele>
        <time>2026-07-14T09:33:49.000Z</time>
      </trkpt>
      <trkpt lat="46.00547" lon="13.62466">
        <ele>108.439346</ele>
        <time>2026-07-14T09:33:54.000Z</time>
      </trkpt>
      <trkpt lat="46.00541" lon="13.62479">
        <ele>108.27033</ele>
        <time>2026-07-14T09:33:56.000Z</time>
      </trkpt>
      <trkpt lat="46.00514" lon="13.62531">
        <ele>107.614115</ele>
        <time>2026-07-14T09:34:04.000Z</time>
      </trkpt>
      <trkpt lat="46.00493" lon="13.62565">
        <ele>107.15129</ele>
        <time>2026-07-14T09:34:10.000Z</time>
      </trkpt>
      <trkpt lat="46.0049" lon="13.62571">
        <ele>107.080294</ele>
        <time>2026-07-14T09:34:11.000Z</time>
      </trkpt>
      <trkpt lat="46.0048" lon="13.62584">
        <ele>106.887026</ele>
        <time>2026-07-14T09:34:14.000Z</time>
      </trkpt>
      <trkpt lat="46.00474" lon="13.62592">
        <ele>106.753621</ele>
        <time>2026-07-14T09:34:16.000Z</time>
      </trkpt>
      <trkpt lat="46.00458" lon="13.62613">
        <ele>106.44158</ele>
        <time>2026-07-14T09:34:21.000Z</time>
      </trkpt>
      <trkpt lat="46.00455" lon="13.62618">
        <ele>106.499525</ele>
        <time>2026-07-14T09:34:22.000Z</time>
      </trkpt>
      <trkpt lat="46.00445" lon="13.62631">
        <ele>106.668887</ele>
        <time>2026-07-14T09:34:25.000Z</time>
      </trkpt>
      <trkpt lat="46.00435" lon="13.62643">
        <ele>106.82938</ele>
        <time>2026-07-14T09:34:28.000Z</time>
      </trkpt>
      <trkpt lat="46.00432" lon="13.62647">
        <ele>106.885701</ele>
        <time>2026-07-14T09:34:29.000Z</time>
      </trkpt>
      <trkpt lat="46.00419" lon="13.62666">
        <ele>107.120595</ele>
        <time>2026-07-14T09:34:33.000Z</time>
      </trkpt>
      <trkpt lat="46.00417" lon="13.62672">
        <ele>107.175941</ele>
        <time>2026-07-14T09:34:34.000Z</time>
      </trkpt>
      <trkpt lat="46.00402" lon="13.62701">
        <ele>107.495604</ele>
        <time>2026-07-14T09:34:40.000Z</time>
      </trkpt>
      <trkpt lat="46.00397" lon="13.6271">
        <ele>107.601844</ele>
        <time>2026-07-14T09:34:42.000Z</time>
      </trkpt>
      <trkpt lat="46.00386" lon="13.62729">
        <ele>107.816723</ele>
        <time>2026-07-14T09:34:46.000Z</time>
      </trkpt>
      <trkpt lat="46.00375" lon="13.62749">
        <ele>108.042733</ele>
        <time>2026-07-14T09:34:50.000Z</time>
      </trkpt>
      <trkpt lat="46.00364" lon="13.62765">
        <ele>108.24014</ele>
        <time>2026-07-14T09:34:53.000Z</time>
      </trkpt>
      <trkpt lat="46.00361" lon="13.6277">
        <ele>108.304576</ele>
        <time>2026-07-14T09:34:54.000Z</time>
      </trkpt>
      <trkpt lat="46.00355" lon="13.6278">
        <ele>108.418566</ele>
        <time>2026-07-14T09:34:56.000Z</time>
      </trkpt>
      <trkpt lat="46.00345" lon="13.62794">
        <ele>108.595539</ele>
        <time>2026-07-14T09:34:59.000Z</time>
      </trkpt>
      <trkpt lat="46.00332" lon="13.62814">
        <ele>108.58065</ele>
        <time>2026-07-14T09:35:03.000Z</time>
      </trkpt>
      <trkpt lat="46.00319" lon="13.62828">
        <ele>108.316626</ele>
        <time>2026-07-14T09:35:06.000Z</time>
      </trkpt>
      <trkpt lat="46.00314" lon="13.62838">
        <ele>108.162508</ele>
        <time>2026-07-14T09:35:08.000Z</time>
      </trkpt>
      <trkpt lat="46.00301" lon="13.62858">
        <ele>107.847471</ele>
        <time>2026-07-14T09:35:12.000Z</time>
      </trkpt>
      <trkpt lat="46.00298" lon="13.62863">
        <ele>107.768021</ele>
        <time>2026-07-14T09:35:13.000Z</time>
      </trkpt>
      <trkpt lat="46.0029" lon="13.62871">
        <ele>107.603624</ele>
        <time>2026-07-14T09:35:15.000Z</time>
      </trkpt>
      <trkpt lat="46.00284" lon="13.62881">
        <ele>107.455757</ele>
        <time>2026-07-14T09:35:17.000Z</time>
      </trkpt>
      <trkpt lat="46.00256" lon="13.6291">
        <ele>106.866237</ele>
        <time>2026-07-14T09:35:24.000Z</time>
      </trkpt>
      <trkpt lat="46.00226" lon="13.62938">
        <ele>106.257347</ele>
        <time>2026-07-14T09:35:31.000Z</time>
      </trkpt>
      <trkpt lat="46.00217" lon="13.62945">
        <ele>106.083818</ele>
        <time>2026-07-14T09:35:33.000Z</time>
      </trkpt>
      <trkpt lat="46.002" lon="13.62959">
        <ele>105.753105</ele>
        <time>2026-07-14T09:35:37.000Z</time>
      </trkpt>
      <trkpt lat="46.00174" lon="13.62979">
        <ele>105.474665</ele>
        <time>2026-07-14T09:35:43.000Z</time>
      </trkpt>
      <trkpt lat="46.00153" lon="13.62994">
        <ele>105.278648</ele>
        <time>2026-07-14T09:35:48.000Z</time>
      </trkpt>
      <trkpt lat="46.00147" lon="13.62997">
        <ele>105.226658</ele>
        <time>2026-07-14T09:35:49.000Z</time>
      </trkpt>
      <trkpt lat="46.00111" lon="13.63021">
        <ele>104.892973</ele>
        <time>2026-07-14T09:35:57.000Z</time>
      </trkpt>
      <trkpt lat="46.00106" lon="13.63023">
        <ele>104.855838</ele>
        <time>2026-07-14T09:35:58.000Z</time>
      </trkpt>
      <trkpt lat="46.00069" lon="13.63043">
        <ele>104.524543</ele>
        <time>2026-07-14T09:36:06.000Z</time>
      </trkpt>
      <trkpt lat="46.00037" lon="13.63058">
        <ele>104.243044</ele>
        <time>2026-07-14T09:36:13.000Z</time>
      </trkpt>
      <trkpt lat="46" lon="13.63079">
        <ele>104.648623</ele>
        <time>2026-07-14T09:36:21.000Z</time>
      </trkpt>
      <trkpt lat="45.99995" lon="13.63082">
        <ele>104.71549</ele>
        <time>2026-07-14T09:36:22.000Z</time>
      </trkpt>
      <trkpt lat="45.99973" lon="13.63099">
        <ele>105.062696</ele>
        <time>2026-07-14T09:36:27.000Z</time>
      </trkpt>
      <trkpt lat="45.99939" lon="13.63129">
        <ele>105.606322</ele>
        <time>2026-07-14T09:36:35.000Z</time>
      </trkpt>
      <trkpt lat="45.99913" lon="13.63152">
        <ele>106.024564</ele>
        <time>2026-07-14T09:36:41.000Z</time>
      </trkpt>
      <trkpt lat="45.99884" lon="13.63182">
        <ele>106.516044</ele>
        <time>2026-07-14T09:36:48.000Z</time>
      </trkpt>
      <trkpt lat="45.99879" lon="13.63187">
        <ele>106.596771</ele>
        <time>2026-07-14T09:36:49.000Z</time>
      </trkpt>
      <trkpt lat="45.99871" lon="13.63197">
        <ele>106.657951</ele>
        <time>2026-07-14T09:36:51.000Z</time>
      </trkpt>
      <trkpt lat="45.99855" lon="13.63218">
        <ele>106.663356</ele>
        <time>2026-07-14T09:36:55.000Z</time>
      </trkpt>
      <trkpt lat="45.99852" lon="13.63223">
        <ele>106.664714</ele>
        <time>2026-07-14T09:36:56.000Z</time>
      </trkpt>
      <trkpt lat="45.99841" lon="13.6324">
        <ele>106.668849</ele>
        <time>2026-07-14T09:36:59.000Z</time>
      </trkpt>
      <trkpt lat="45.99827" lon="13.63263">
        <ele>106.674199</ele>
        <time>2026-07-14T09:37:03.000Z</time>
      </trkpt>
      <trkpt lat="45.9982" lon="13.63274">
        <ele>106.676851</ele>
        <time>2026-07-14T09:37:05.000Z</time>
      </trkpt>
      <trkpt lat="45.99796" lon="13.63312">
        <ele>106.685983</ele>
        <time>2026-07-14T09:37:12.000Z</time>
      </trkpt>
      <trkpt lat="45.99792" lon="13.63317">
        <ele>106.687277</ele>
        <time>2026-07-14T09:37:13.000Z</time>
      </trkpt>
      <trkpt lat="45.99785" lon="13.63329">
        <ele>106.690072</ele>
        <time>2026-07-14T09:37:15.000Z</time>
      </trkpt>
      <trkpt lat="45.99781" lon="13.6334">
        <ele>106.692397</ele>
        <time>2026-07-14T09:37:17.000Z</time>
      </trkpt>
      <trkpt lat="45.99775" lon="13.63354">
        <ele>106.695272</ele>
        <time>2026-07-14T09:37:19.000Z</time>
      </trkpt>
      <trkpt lat="45.99765" lon="13.63378">
        <ele>106.700254</ele>
        <time>2026-07-14T09:37:23.000Z</time>
      </trkpt>
      <trkpt lat="45.99744" lon="13.63433">
        <ele>106.519908</ele>
        <time>2026-07-14T09:37:31.000Z</time>
      </trkpt>
      <trkpt lat="45.99742" lon="13.63441">
        <ele>106.488312</ele>
        <time>2026-07-14T09:37:32.000Z</time>
      </trkpt>
      <trkpt lat="45.99736" lon="13.63457">
        <ele>106.423386</ele>
        <time>2026-07-14T09:37:34.000Z</time>
      </trkpt>
      <trkpt lat="45.99732" lon="13.63465">
        <ele>106.388888</ele>
        <time>2026-07-14T09:37:35.000Z</time>
      </trkpt>
      <trkpt lat="45.99719" lon="13.63497">
        <ele>106.257114</ele>
        <time>2026-07-14T09:37:39.000Z</time>
      </trkpt>
      <trkpt lat="45.99716" lon="13.63504">
        <ele>106.227025</ele>
        <time>2026-07-14T09:37:40.000Z</time>
      </trkpt>
      <trkpt lat="45.99698" lon="13.63542">
        <ele>106.060824</ele>
        <time>2026-07-14T09:37:46.000Z</time>
      </trkpt>
      <trkpt lat="45.99688" lon="13.63558">
        <ele>105.982595</ele>
        <time>2026-07-14T09:37:49.000Z</time>
      </trkpt>
      <trkpt lat="45.99685" lon="13.63564">
        <ele>105.95607</ele>
        <time>2026-07-14T09:37:50.000Z</time>
      </trkpt>
      <trkpt lat="45.99678" lon="13.63577">
        <ele>105.900269</ele>
        <time>2026-07-14T09:37:52.000Z</time>
      </trkpt>
      <trkpt lat="45.99658" lon="13.63625">
        <ele>105.573322</ele>
        <time>2026-07-14T09:37:59.000Z</time>
      </trkpt>
      <trkpt lat="45.99652" lon="13.6364">
        <ele>105.406677</ele>
        <time>2026-07-14T09:38:01.000Z</time>
      </trkpt>
      <trkpt lat="45.99634" lon="13.63667">
        <ele>105.060763</ele>
        <time>2026-07-14T09:38:05.000Z</time>
      </trkpt>
      <trkpt lat="45.99604" lon="13.63717">
        <ele>104.431788</ele>
        <time>2026-07-14T09:38:13.000Z</time>
      </trkpt>
      <trkpt lat="45.99573" lon="13.63759">
        <ele>103.849206</ele>
        <time>2026-07-14T09:38:20.000Z</time>
      </trkpt>
      <trkpt lat="45.9954" lon="13.63799">
        <ele>103.366494</ele>
        <time>2026-07-14T09:38:28.000Z</time>
      </trkpt>
      <trkpt lat="45.9953" lon="13.63808">
        <ele>103.457363</ele>
        <time>2026-07-14T09:38:30.000Z</time>
      </trkpt>
      <trkpt lat="45.99506" lon="13.6383">
        <ele>103.691826</ele>
        <time>2026-07-14T09:38:35.000Z</time>
      </trkpt>
      <trkpt lat="45.99487" lon="13.63845">
        <ele>103.869848</ele>
        <time>2026-07-14T09:38:39.000Z</time>
      </trkpt>
      <trkpt lat="45.99472" lon="13.63853">
        <ele>103.994887</ele>
        <time>2026-07-14T09:38:42.000Z</time>
      </trkpt>
      <trkpt lat="45.99444" lon="13.6387">
        <ele>104.242362</ele>
        <time>2026-07-14T09:38:48.000Z</time>
      </trkpt>
      <trkpt lat="45.99422" lon="13.63883">
        <ele>104.435461</ele>
        <time>2026-07-14T09:38:53.000Z</time>
      </trkpt>
      <trkpt lat="45.99418" lon="13.63886">
        <ele>104.477766</ele>
        <time>2026-07-14T09:38:54.000Z</time>
      </trkpt>
      <trkpt lat="45.99411" lon="13.63891">
        <ele>104.538986</ele>
        <time>2026-07-14T09:38:56.000Z</time>
      </trkpt>
      <trkpt lat="45.99404" lon="13.63896">
        <ele>104.604055</ele>
        <time>2026-07-14T09:38:58.000Z</time>
      </trkpt>
      <trkpt lat="45.99392" lon="13.63902">
        <ele>104.701482</ele>
        <time>2026-07-14T09:39:01.000Z</time>
      </trkpt>
      <trkpt lat="45.99378" lon="13.63909">
        <ele>104.737215</ele>
        <time>2026-07-14T09:39:04.000Z</time>
      </trkpt>
      <trkpt lat="45.9937" lon="13.63916">
        <ele>104.626408</ele>
        <time>2026-07-14T09:39:06.000Z</time>
      </trkpt>
      <trkpt lat="45.99361" lon="13.63925">
        <ele>104.48827</ele>
        <time>2026-07-14T09:39:08.000Z</time>
      </trkpt>
      <trkpt lat="45.99343" lon="13.63942">
        <ele>104.231441</ele>
        <time>2026-07-14T09:39:12.000Z</time>
      </trkpt>
      <trkpt lat="45.99314" lon="13.63974">
        <ele>103.776223</ele>
        <time>2026-07-14T09:39:19.000Z</time>
      </trkpt>
      <trkpt lat="45.99287" lon="13.64">
        <ele>103.381396</ele>
        <time>2026-07-14T09:39:25.000Z</time>
      </trkpt>
      <trkpt lat="45.99262" lon="13.64029">
        <ele>102.988194</ele>
        <time>2026-07-14T09:39:31.000Z</time>
      </trkpt>
      <trkpt lat="45.99253" lon="13.6404">
        <ele>102.848147</ele>
        <time>2026-07-14T09:39:33.000Z</time>
      </trkpt>
      <trkpt lat="45.99236" lon="13.6406">
        <ele>102.59059</ele>
        <time>2026-07-14T09:39:37.000Z</time>
      </trkpt>
      <trkpt lat="45.9921" lon="13.64092">
        <ele>102.517253</ele>
        <time>2026-07-14T09:39:43.000Z</time>
      </trkpt>
      <trkpt lat="45.99206" lon="13.64097">
        <ele>102.50404</ele>
        <time>2026-07-14T09:39:44.000Z</time>
      </trkpt>
      <trkpt lat="45.99168" lon="13.64138">
        <ele>102.40073</ele>
        <time>2026-07-14T09:39:52.000Z</time>
      </trkpt>
      <trkpt lat="45.99165" lon="13.64142">
        <ele>102.391452</ele>
        <time>2026-07-14T09:39:53.000Z</time>
      </trkpt>
      <trkpt lat="45.9912" lon="13.64186">
        <ele>102.272304</ele>
        <time>2026-07-14T09:40:03.000Z</time>
      </trkpt>
      <trkpt lat="45.99116" lon="13.6419">
        <ele>102.261107</ele>
        <time>2026-07-14T09:40:04.000Z</time>
      </trkpt>
      <trkpt lat="45.99102" lon="13.64202">
        <ele>102.225628</ele>
        <time>2026-07-14T09:40:07.000Z</time>
      </trkpt>
      <trkpt lat="45.99084" lon="13.64221">
        <ele>102.156171</ele>
        <time>2026-07-14T09:40:11.000Z</time>
      </trkpt>
      <trkpt lat="45.99056" lon="13.64257">
        <ele>101.991153</ele>
        <time>2026-07-14T09:40:18.000Z</time>
      </trkpt>
      <trkpt lat="45.99039" lon="13.64286">
        <ele>101.87762</ele>
        <time>2026-07-14T09:40:23.000Z</time>
      </trkpt>
      <trkpt lat="45.99033" lon="13.64298">
        <ele>101.833059</ele>
        <time>2026-07-14T09:40:25.000Z</time>
      </trkpt>
      <trkpt lat="45.99029" lon="13.64303">
        <ele>101.809705</ele>
        <time>2026-07-14T09:40:26.000Z</time>
      </trkpt>
      <trkpt lat="45.99014" lon="13.64325">
        <ele>101.717894</ele>
        <time>2026-07-14T09:40:30.000Z</time>
      </trkpt>
      <trkpt lat="45.98983" lon="13.64369">
        <ele>101.530758</ele>
        <time>2026-07-14T09:40:38.000Z</time>
      </trkpt>
      <trkpt lat="45.98953" lon="13.64417">
        <ele>101.162323</ele>
        <time>2026-07-14T09:40:46.000Z</time>
      </trkpt>
      <trkpt lat="45.98931" lon="13.64456">
        <ele>100.697489</ele>
        <time>2026-07-14T09:40:52.000Z</time>
      </trkpt>
      <trkpt lat="45.98901" lon="13.64501">
        <ele>100.126558</ele>
        <time>2026-07-14T09:41:00.000Z</time>
      </trkpt>
      <trkpt lat="45.98876" lon="13.64548">
        <ele>99.582043</ele>
        <time>2026-07-14T09:41:08.000Z</time>
      </trkpt>
      <trkpt lat="45.98852" lon="13.64591">
        <ele>99.074826</ele>
        <time>2026-07-14T09:41:15.000Z</time>
      </trkpt>
      <trkpt lat="45.98828" lon="13.64641">
        <ele>99.625766</ele>
        <time>2026-07-14T09:41:23.000Z</time>
      </trkpt>
      <trkpt lat="45.98807" lon="13.64685">
        <ele>100.186006</ele>
        <time>2026-07-14T09:41:30.000Z</time>
      </trkpt>
      <trkpt lat="45.98792" lon="13.64717">
        <ele>100.579959</ele>
        <time>2026-07-14T09:41:36.000Z</time>
      </trkpt>
      <trkpt lat="45.9878" lon="13.64739">
        <ele>100.868846</ele>
        <time>2026-07-14T09:41:40.000Z</time>
      </trkpt>
      <trkpt lat="45.98766" lon="13.64766">
        <ele>101.220212</ele>
        <time>2026-07-14T09:41:45.000Z</time>
      </trkpt>
      <trkpt lat="45.98756" lon="13.64789">
        <ele>101.506143</ele>
        <time>2026-07-14T09:41:49.000Z</time>
      </trkpt>
      <trkpt lat="45.98753" lon="13.64803">
        <ele>101.659146</ele>
        <time>2026-07-14T09:41:51.000Z</time>
      </trkpt>
      <trkpt lat="45.98751" lon="13.6481">
        <ele>101.716827</ele>
        <time>2026-07-14T09:41:52.000Z</time>
      </trkpt>
      <trkpt lat="45.98743" lon="13.64834">
        <ele>101.477388</ele>
        <time>2026-07-14T09:41:55.000Z</time>
      </trkpt>
      <trkpt lat="45.98729" lon="13.64886">
        <ele>100.978484</ele>
        <time>2026-07-14T09:42:00.000Z</time>
      </trkpt>
      <trkpt lat="45.98704" lon="13.64936">
        <ele>100.421941</ele>
        <time>2026-07-14T09:42:06.000Z</time>
      </trkpt>
      <trkpt lat="45.98686" lon="13.64972">
        <ele>100.010157</ele>
        <time>2026-07-14T09:42:11.000Z</time>
      </trkpt>
      <trkpt lat="45.98679" lon="13.64986">
        <ele>99.860051</ele>
        <time>2026-07-14T09:42:13.000Z</time>
      </trkpt>
      <trkpt lat="45.98669" lon="13.65005">
        <ele>99.642179</ele>
        <time>2026-07-14T09:42:16.000Z</time>
      </trkpt>
      <trkpt lat="45.9864" lon="13.65056">
        <ele>99.738857</ele>
        <time>2026-07-14T09:42:25.000Z</time>
      </trkpt>
      <trkpt lat="45.98612" lon="13.65099">
        <ele>100.299942</ele>
        <time>2026-07-14T09:42:33.000Z</time>
      </trkpt>
      <trkpt lat="45.98606" lon="13.65109">
        <ele>100.429467</ele>
        <time>2026-07-14T09:42:35.000Z</time>
      </trkpt>
      <trkpt lat="45.98596" lon="13.65125">
        <ele>100.635653</ele>
        <time>2026-07-14T09:42:38.000Z</time>
      </trkpt>
      <trkpt lat="45.98591" lon="13.65134">
        <ele>100.74744</ele>
        <time>2026-07-14T09:42:40.000Z</time>
      </trkpt>
      <trkpt lat="45.98579" lon="13.65151">
        <ele>100.976124</ele>
        <time>2026-07-14T09:42:44.000Z</time>
      </trkpt>
      <trkpt lat="45.98564" lon="13.65176">
        <ele>101.281854</ele>
        <time>2026-07-14T09:42:49.000Z</time>
      </trkpt>
      <trkpt lat="45.98551" lon="13.65197">
        <ele>101.553669</ele>
        <time>2026-07-14T09:42:53.000Z</time>
      </trkpt>
      <trkpt lat="45.9853" lon="13.65223">
        <ele>101.97666</ele>
        <time>2026-07-14T09:42:59.000Z</time>
      </trkpt>
      <trkpt lat="45.98516" lon="13.6524">
        <ele>102.37781</ele>
        <time>2026-07-14T09:43:03.000Z</time>
      </trkpt>
      <trkpt lat="45.98513" lon="13.65244">
        <ele>102.468889</ele>
        <time>2026-07-14T09:43:04.000Z</time>
      </trkpt>
      <trkpt lat="45.98506" lon="13.65251">
        <ele>102.652755</ele>
        <time>2026-07-14T09:43:06.000Z</time>
      </trkpt>
      <trkpt lat="45.98487" lon="13.65271">
        <ele>103.161107</ele>
        <time>2026-07-14T09:43:12.000Z</time>
      </trkpt>
      <trkpt lat="45.98459" lon="13.65295">
        <ele>103.87215</ele>
        <time>2026-07-14T09:43:18.000Z</time>
      </trkpt>
      <trkpt lat="45.98454" lon="13.65299">
        <ele>103.994471</ele>
        <time>2026-07-14T09:43:19.000Z</time>
      </trkpt>
      <trkpt lat="45.98432" lon="13.65315">
        <ele>104.518637</ele>
        <time>2026-07-14T09:43:23.000Z</time>
      </trkpt>
      <trkpt lat="45.98421" lon="13.65322">
        <ele>104.778088</ele>
        <time>2026-07-14T09:43:25.000Z</time>
      </trkpt>
      <trkpt lat="45.984" lon="13.65338">
        <ele>105.304314</ele>
        <time>2026-07-14T09:43:30.000Z</time>
      </trkpt>
      <trkpt lat="45.98395" lon="13.65342">
        <ele>105.42526</ele>
        <time>2026-07-14T09:43:31.000Z</time>
      </trkpt>
      <trkpt lat="45.98388" lon="13.65345">
        <ele>105.586582</ele>
        <time>2026-07-14T09:43:32.000Z</time>
      </trkpt>
      <trkpt lat="45.98356" lon="13.65361">
        <ele>105.720834</ele>
        <time>2026-07-14T09:43:38.000Z</time>
      </trkpt>
      <trkpt lat="45.98324" lon="13.65384">
        <ele>105.694945</ele>
        <time>2026-07-14T09:43:45.000Z</time>
      </trkpt>
      <trkpt lat="45.9832" lon="13.65387">
        <ele>105.691569</ele>
        <time>2026-07-14T09:43:46.000Z</time>
      </trkpt>
      <trkpt lat="45.98286" lon="13.65399">
        <ele>105.66573</ele>
        <time>2026-07-14T09:43:54.000Z</time>
      </trkpt>
      <trkpt lat="45.98262" lon="13.65404">
        <ele>105.648477</ele>
        <time>2026-07-14T09:43:59.000Z</time>
      </trkpt>
      <trkpt lat="45.98247" lon="13.65402">
        <ele>105.637296</ele>
        <time>2026-07-14T09:44:02.000Z</time>
      </trkpt>
      <trkpt lat="45.98211" lon="13.65396">
        <ele>105.610853</ele>
        <time>2026-07-14T09:44:09.000Z</time>
      </trkpt>
      <trkpt lat="45.98202" lon="13.65391">
        <ele>105.649811</ele>
        <time>2026-07-14T09:44:11.000Z</time>
      </trkpt>
      <trkpt lat="45.98179" lon="13.65375">
        <ele>105.795284</ele>
        <time>2026-07-14T09:44:16.000Z</time>
      </trkpt>
      <trkpt lat="45.9817" lon="13.65368">
        <ele>105.853642</ele>
        <time>2026-07-14T09:44:18.000Z</time>
      </trkpt>
      <trkpt lat="45.98152" lon="13.65353">
        <ele>105.973724</ele>
        <time>2026-07-14T09:44:22.000Z</time>
      </trkpt>
      <trkpt lat="45.98143" lon="13.65347">
        <ele>106.032677</ele>
        <time>2026-07-14T09:44:24.000Z</time>
      </trkpt>
      <trkpt lat="45.9813" lon="13.65336">
        <ele>106.118066</ele>
        <time>2026-07-14T09:44:27.000Z</time>
      </trkpt>
      <trkpt lat="45.98126" lon="13.65332">
        <ele>106.144638</ele>
        <time>2026-07-14T09:44:28.000Z</time>
      </trkpt>
      <trkpt lat="45.98115" lon="13.65321">
        <ele>106.221686</ele>
        <time>2026-07-14T09:44:31.000Z</time>
      </trkpt>
      <trkpt lat="45.98106" lon="13.6531">
        <ele>106.288273</ele>
        <time>2026-07-14T09:44:34.000Z</time>
      </trkpt>
      <trkpt lat="45.9808" lon="13.65271">
        <ele>106.501599</ele>
        <time>2026-07-14T09:44:43.000Z</time>
      </trkpt>
      <trkpt lat="45.98073" lon="13.6526">
        <ele>106.561927</ele>
        <time>2026-07-14T09:44:45.000Z</time>
      </trkpt>
      <trkpt lat="45.98064" lon="13.65249">
        <ele>106.632752</ele>
        <time>2026-07-14T09:44:47.000Z</time>
      </trkpt>
      <trkpt lat="45.98039" lon="13.65223">
        <ele>105.028354</ele>
        <time>2026-07-14T09:44:51.000Z</time>
      </trkpt>
      <trkpt lat="45.98022" lon="13.6521">
        <ele>103.962419</ele>
        <time>2026-07-14T09:44:53.000Z</time>
      </trkpt>
      <trkpt lat="45.98003" lon="13.65199">
        <ele>102.774701</ele>
        <time>2026-07-14T09:44:55.000Z</time>
      </trkpt>
      <trkpt lat="45.97961" lon="13.6517">
        <ele>100.208797</ele>
        <time>2026-07-14T09:44:59.000Z</time>
      </trkpt>
      <trkpt lat="45.97935" lon="13.65146">
        <ele>98.496574</ele>
        <time>2026-07-14T09:45:02.000Z</time>
      </trkpt>
      <trkpt lat="45.97929" lon="13.65137">
        <ele>98.002852</ele>
        <time>2026-07-14T09:45:03.000Z</time>
      </trkpt>
      <trkpt lat="45.97918" lon="13.65118">
        <ele>97.047581</ele>
        <time>2026-07-14T09:45:05.000Z</time>
      </trkpt>
      <trkpt lat="45.97914" lon="13.65107">
        <ele>96.554375</ele>
        <time>2026-07-14T09:45:06.000Z</time>
      </trkpt>
      <trkpt lat="45.97893" lon="13.65059">
        <ele>94.554985</ele>
        <time>2026-07-14T09:45:10.000Z</time>
      </trkpt>
      <trkpt lat="45.97881" lon="13.65038">
        <ele>93.568994</ele>
        <time>2026-07-14T09:45:12.000Z</time>
      </trkpt>
      <trkpt lat="45.97857" lon="13.64997">
        <ele>91.68885</ele>
        <time>2026-07-14T09:45:16.000Z</time>
      </trkpt>
      <trkpt lat="45.97823" lon="13.64938">
        <ele>88.93365</ele>
        <time>2026-07-14T09:45:22.000Z</time>
      </trkpt>
      <trkpt lat="45.97804" lon="13.64899">
        <ele>87.405826</ele>
        <time>2026-07-14T09:45:26.000Z</time>
      </trkpt>
      <trkpt lat="45.978" lon="13.64891">
        <ele>87.368015</ele>
        <time>2026-07-14T09:45:27.000Z</time>
      </trkpt>
      <trkpt lat="45.97791" lon="13.64875">
        <ele>87.296902</ele>
        <time>2026-07-14T09:45:29.000Z</time>
      </trkpt>
      <trkpt lat="45.97778" lon="13.64856">
        <ele>87.202919</ele>
        <time>2026-07-14T09:45:32.000Z</time>
      </trkpt>
      <trkpt lat="45.97755" lon="13.64823">
        <ele>87.036221</ele>
        <time>2026-07-14T09:45:38.000Z</time>
      </trkpt>
      <trkpt lat="45.97747" lon="13.64812">
        <ele>86.979498</ele>
        <time>2026-07-14T09:45:40.000Z</time>
      </trkpt>
      <trkpt lat="45.97728" lon="13.6479">
        <ele>86.852466</ele>
        <time>2026-07-14T09:45:44.000Z</time>
      </trkpt>
      <trkpt lat="45.977" lon="13.64741">
        <ele>86.627841</ele>
        <time>2026-07-14T09:45:51.000Z</time>
      </trkpt>
      <trkpt lat="45.9767" lon="13.64694">
        <ele>87.419103</ele>
        <time>2026-07-14T09:45:58.000Z</time>
      </trkpt>
      <trkpt lat="45.97666" lon="13.64688">
        <ele>87.693622</ele>
        <time>2026-07-14T09:45:59.000Z</time>
      </trkpt>
      <trkpt lat="45.9765" lon="13.64665">
        <ele>88.739685</ele>
        <time>2026-07-14T09:46:03.000Z</time>
      </trkpt>
      <trkpt lat="45.97644" lon="13.64653">
        <ele>89.230698</ele>
        <time>2026-07-14T09:46:05.000Z</time>
      </trkpt>
      <trkpt lat="45.97637" lon="13.64637">
        <ele>89.854762</ele>
        <time>2026-07-14T09:46:08.000Z</time>
      </trkpt>
      <trkpt lat="45.97631" lon="13.6463">
        <ele>90.226388</ele>
        <time>2026-07-14T09:46:10.000Z</time>
      </trkpt>
      <trkpt lat="45.97615" lon="13.64624">
        <ele>90.98133</ele>
        <time>2026-07-14T09:46:14.000Z</time>
      </trkpt>
      <trkpt lat="45.97606" lon="13.64617">
        <ele>91.465617</ele>
        <time>2026-07-14T09:46:17.000Z</time>
      </trkpt>
      <trkpt lat="45.97601" lon="13.64609">
        <ele>91.815086</ele>
        <time>2026-07-14T09:46:19.000Z</time>
      </trkpt>
      <trkpt lat="45.97588" lon="13.64586">
        <ele>92.776604</ele>
        <time>2026-07-14T09:46:24.000Z</time>
      </trkpt>
      <trkpt lat="45.97586" lon="13.64582">
        <ele>92.961522</ele>
        <time>2026-07-14T09:46:25.000Z</time>
      </trkpt>
      <trkpt lat="45.97578" lon="13.64561">
        <ele>93.737877</ele>
        <time>2026-07-14T09:46:29.000Z</time>
      </trkpt>
      <trkpt lat="45.97574" lon="13.64551">
        <ele>94.12663</ele>
        <time>2026-07-14T09:46:31.000Z</time>
      </trkpt>
      <trkpt lat="45.97563" lon="13.64522">
        <ele>95.093855</ele>
        <time>2026-07-14T09:46:37.000Z</time>
      </trkpt>
      <trkpt lat="45.97554" lon="13.64497">
        <ele>95.718872</ele>
        <time>2026-07-14T09:46:43.000Z</time>
      </trkpt>
      <trkpt lat="45.97543" lon="13.64464">
        <ele>96.52763</ele>
        <time>2026-07-14T09:46:51.000Z</time>
      </trkpt>
      <trkpt lat="45.97548" lon="13.64434">
        <ele>97.213188</ele>
        <time>2026-07-14T09:46:57.000Z</time>
      </trkpt>
      <trkpt lat="45.9755" lon="13.64423">
        <ele>97.467513</ele>
        <time>2026-07-14T09:46:59.000Z</time>
      </trkpt>
      <trkpt lat="45.9755" lon="13.64407">
        <ele>97.818393</ele>
        <time>2026-07-14T09:47:01.000Z</time>
      </trkpt>
      <trkpt lat="45.9755" lon="13.64368">
        <ele>98.683144</ele>
        <time>2026-07-14T09:47:06.000Z</time>
      </trkpt>
      <trkpt lat="45.97549" lon="13.64359">
        <ele>98.882025</ele>
        <time>2026-07-14T09:47:07.000Z</time>
      </trkpt>
      <trkpt lat="45.97546" lon="13.64341">
        <ele>99.276142</ele>
        <time>2026-07-14T09:47:09.000Z</time>
      </trkpt>
      <trkpt lat="45.97539" lon="13.6432">
        <ele>99.801254</ele>
        <time>2026-07-14T09:47:12.000Z</time>
      </trkpt>
      <trkpt lat="45.97534" lon="13.64307">
        <ele>100.115599</ele>
        <time>2026-07-14T09:47:14.000Z</time>
      </trkpt>
      <trkpt lat="45.97528" lon="13.64298">
        <ele>100.393588</ele>
        <time>2026-07-14T09:47:16.000Z</time>
      </trkpt>
      <trkpt lat="45.97516" lon="13.64287">
        <ele>100.568961</ele>
        <time>2026-07-14T09:47:20.000Z</time>
      </trkpt>
      <trkpt lat="45.97508" lon="13.64271">
        <ele>100.378604</ele>
        <time>2026-07-14T09:47:25.000Z</time>
      </trkpt>
      <trkpt lat="45.97499" lon="13.64255">
        <ele>100.176173</ele>
        <time>2026-07-14T09:47:30.000Z</time>
      </trkpt>
      <trkpt lat="45.97496" lon="13.6424">
        <ele>100.025418</ele>
        <time>2026-07-14T09:47:34.000Z</time>
      </trkpt>
      <trkpt lat="45.97496" lon="13.64232">
        <ele>99.941841</ele>
        <time>2026-07-14T09:47:36.000Z</time>
      </trkpt>
      <trkpt lat="45.97495" lon="13.64223">
        <ele>99.861071</ele>
        <time>2026-07-14T09:47:38.000Z</time>
      </trkpt>
      <trkpt lat="45.97495" lon="13.6421">
        <ele>99.736553</ele>
        <time>2026-07-14T09:47:41.000Z</time>
      </trkpt>
      <trkpt lat="45.97494" lon="13.64199">
        <ele>99.626984</ele>
        <time>2026-07-14T09:47:45.000Z</time>
      </trkpt>
      <trkpt lat="45.97493" lon="13.64197">
        <ele>99.60622</ele>
        <time>2026-07-14T09:47:46.000Z</time>
      </trkpt>
      <trkpt lat="45.97488" lon="13.64191">
        <ele>99.509615</ele>
        <time>2026-07-14T09:47:52.000Z</time>
      </trkpt>
      <trkpt lat="45.9748" lon="13.6419">
        <ele>99.39515</ele>
        <time>2026-07-14T09:51:32.000Z</time>
      </trkpt>
      <trkpt lat="45.97477" lon="13.64188">
        <ele>99.348405</ele>
        <time>2026-07-14T09:51:33.000Z</time>
      </trkpt>
      <trkpt lat="45.97464" lon="13.64179">
        <ele>99.155487</ele>
        <time>2026-07-14T09:51:36.000Z</time>
      </trkpt>
      <trkpt lat="45.97438" lon="13.64159">
        <ele>98.742302</ele>
        <time>2026-07-14T09:51:40.000Z</time>
      </trkpt>
      <trkpt lat="45.97432" lon="13.64153">
        <ele>98.640094</ele>
        <time>2026-07-14T09:51:41.000Z</time>
      </trkpt>
      <trkpt lat="45.97418" lon="13.64137">
        <ele>98.389155</ele>
        <time>2026-07-14T09:51:44.000Z</time>
      </trkpt>
      <trkpt lat="45.97408" lon="13.64127">
        <ele>98.219999</ele>
        <time>2026-07-14T09:51:46.000Z</time>
      </trkpt>
      <trkpt lat="45.97397" lon="13.64118">
        <ele>97.570036</ele>
        <time>2026-07-14T09:51:48.000Z</time>
      </trkpt>
      <trkpt lat="45.97377" lon="13.64112">
        <ele>96.040634</ele>
        <time>2026-07-14T09:51:51.000Z</time>
      </trkpt>
      <trkpt lat="45.97365" lon="13.64111">
        <ele>95.11751</ele>
        <time>2026-07-14T09:51:53.000Z</time>
      </trkpt>
      <trkpt lat="45.97338" lon="13.64108">
        <ele>93.08323</ele>
        <time>2026-07-14T09:51:58.000Z</time>
      </trkpt>
      <trkpt lat="45.97334" lon="13.64106">
        <ele>92.760506</ele>
        <time>2026-07-14T09:51:59.000Z</time>
      </trkpt>
      <trkpt lat="45.97326" lon="13.64101">
        <ele>92.099935</ele>
        <time>2026-07-14T09:52:01.000Z</time>
      </trkpt>
      <trkpt lat="45.9732" lon="13.64103">
        <ele>91.572021</ele>
        <time>2026-07-14T09:52:03.000Z</time>
      </trkpt>
      <trkpt lat="45.97317" lon="13.64112">
        <ele>91.041076</ele>
        <time>2026-07-14T09:52:05.000Z</time>
      </trkpt>
      <trkpt lat="45.97318" lon="13.64117">
        <ele>90.775868</ele>
        <time>2026-07-14T09:52:06.000Z</time>
      </trkpt>
      <trkpt lat="45.97321" lon="13.6412">
        <ele>90.506618</ele>
        <time>2026-07-14T09:52:07.000Z</time>
      </trkpt>
      <trkpt lat="45.97329" lon="13.64124">
        <ele>89.825061</ele>
        <time>2026-07-14T09:52:09.000Z</time>
      </trkpt>
      <trkpt lat="45.9734" lon="13.64128">
        <ele>89.020733</ele>
        <time>2026-07-14T09:52:11.000Z</time>
      </trkpt>
      <trkpt lat="45.97357" lon="13.6414">
        <ele>87.58457</ele>
        <time>2026-07-14T09:52:14.000Z</time>
      </trkpt>
      <trkpt lat="45.97361" lon="13.64144">
        <ele>87.193477</ele>
        <time>2026-07-14T09:52:15.000Z</time>
      </trkpt>
      <trkpt lat="45.97372" lon="13.64155">
        <ele>86.14484</ele>
        <time>2026-07-14T09:52:18.000Z</time>
      </trkpt>
      <trkpt lat="45.97383" lon="13.6417">
        <ele>85.011484</ele>
        <time>2026-07-14T09:52:23.000Z</time>
      </trkpt>
      <trkpt lat="45.97384" lon="13.64173">
        <ele>84.822229</ele>
        <time>2026-07-14T09:52:24.000Z</time>
      </trkpt>
      <trkpt lat="45.97381" lon="13.64178">
        <ele>84.504647</ele>
        <time>2026-07-14T09:52:26.000Z</time>
      </trkpt>
      <trkpt lat="45.97374" lon="13.64171">
        <ele>83.928472</ele>
        <time>2026-07-14T09:52:29.000Z</time>
      </trkpt>
      <trkpt lat="45.97365" lon="13.6416">
        <ele>83.14882</ele>
        <time>2026-07-14T09:52:32.000Z</time>
      </trkpt>
      <trkpt lat="45.9736" lon="13.64157">
        <ele>82.838436</ele>
        <time>2026-07-14T09:52:33.000Z</time>
      </trkpt>
      <trkpt lat="45.9735" lon="13.6415">
        <ele>82.094333</ele>
        <time>2026-07-14T09:52:35.000Z</time>
      </trkpt>
      <trkpt lat="45.97338" lon="13.64147">
        <ele>81.32606</ele>
        <time>2026-07-14T09:52:37.000Z</time>
      </trkpt>
      <trkpt lat="45.97328" lon="13.64149">
        <ele>80.65446</ele>
        <time>2026-07-14T09:52:39.000Z</time>
      </trkpt>
      <trkpt lat="45.97318" lon="13.64151">
        <ele>80.003706</ele>
        <time>2026-07-14T09:52:41.000Z</time>
      </trkpt>
      <trkpt lat="45.97309" lon="13.6415">
        <ele>79.429184</ele>
        <time>2026-07-14T09:52:43.000Z</time>
      </trkpt>
      <trkpt lat="45.97305" lon="13.64148">
        <ele>79.146906</ele>
        <time>2026-07-14T09:52:44.000Z</time>
      </trkpt>
      <trkpt lat="45.97292" lon="13.6414">
        <ele>78.293136</ele>
        <time>2026-07-14T09:52:48.000Z</time>
      </trkpt>
      <trkpt lat="45.97283" lon="13.64141">
        <ele>77.711715</ele>
        <time>2026-07-14T09:52:51.000Z</time>
      </trkpt>
      <trkpt lat="45.97273" lon="13.64144">
        <ele>77.049763</ele>
        <time>2026-07-14T09:52:54.000Z</time>
      </trkpt>
      <trkpt lat="45.97237" lon="13.64154">
        <ele>74.672139</ele>
        <time>2026-07-14T09:53:04.000Z</time>
      </trkpt>
      <trkpt lat="45.97203" lon="13.64167">
        <ele>73.374912</ele>
        <time>2026-07-14T09:53:13.000Z</time>
      </trkpt>
      <trkpt lat="45.9717" lon="13.64172">
        <ele>75.590333</ele>
        <time>2026-07-14T09:53:21.000Z</time>
      </trkpt>
      <trkpt lat="45.9716" lon="13.64164">
        <ele>76.367668</ele>
        <time>2026-07-14T09:53:25.000Z</time>
      </trkpt>
      <trkpt lat="45.97152" lon="13.64154">
        <ele>77.085062</ele>
        <time>2026-07-14T09:53:30.000Z</time>
      </trkpt>
      <trkpt lat="45.97147" lon="13.64148">
        <ele>77.495768</ele>
        <time>2026-07-14T09:53:33.000Z</time>
      </trkpt>
      <trkpt lat="45.9714" lon="13.64137">
        <ele>78.172146</ele>
        <time>2026-07-14T09:53:39.000Z</time>
      </trkpt>
      <trkpt lat="45.97134" lon="13.64124">
        <ele>78.905376</ele>
        <time>2026-07-14T09:53:46.000Z</time>
      </trkpt>
      <trkpt lat="45.97127" lon="13.64112">
        <ele>79.592692</ele>
        <time>2026-07-14T09:53:52.000Z</time>
      </trkpt>
      <trkpt lat="45.97124" lon="13.64105">
        <ele>79.983397</ele>
        <time>2026-07-14T09:53:55.000Z</time>
      </trkpt>
      <trkpt lat="45.97121" lon="13.64102">
        <ele>80.229709</ele>
        <time>2026-07-14T09:53:57.000Z</time>
      </trkpt>
      <trkpt lat="45.97114" lon="13.6409">
        <ele>80.96492</ele>
        <time>2026-07-14T09:54:03.000Z</time>
      </trkpt>
      <trkpt lat="45.97114" lon="13.64088">
        <ele>81.067407</ele>
        <time>2026-07-14T09:54:04.000Z</time>
      </trkpt>
      <trkpt lat="45.97108" lon="13.64077">
        <ele>81.700313</ele>
        <time>2026-07-14T09:54:09.000Z</time>
      </trkpt>
      <trkpt lat="45.97106" lon="13.64075">
        <ele>81.818123</ele>
        <time>2026-07-14T09:54:10.000Z</time>
      </trkpt>
      <trkpt lat="45.97103" lon="13.64068">
        <ele>82.24312</ele>
        <time>2026-07-14T09:54:14.000Z</time>
      </trkpt>
      <trkpt lat="45.971" lon="13.64063">
        <ele>82.528275</ele>
        <time>2026-07-14T09:54:17.000Z</time>
      </trkpt>
      <trkpt lat="45.97099" lon="13.64056">
        <ele>82.857819</ele>
        <time>2026-07-14T09:54:20.000Z</time>
      </trkpt>
      <trkpt lat="45.97098" lon="13.6405">
        <ele>83.108343</ele>
        <time>2026-07-14T09:54:22.000Z</time>
      </trkpt>
      <trkpt lat="45.97099" lon="13.64045">
        <ele>83.359191</ele>
        <time>2026-07-14T09:54:24.000Z</time>
      </trkpt>
      <trkpt lat="45.97099" lon="13.64039">
        <ele>83.633741</ele>
        <time>2026-07-14T09:54:28.000Z</time>
      </trkpt>
      <trkpt lat="45.97098" lon="13.64035">
        <ele>83.836499</ele>
        <time>2026-07-14T09:54:43.000Z</time>
      </trkpt>
      <trkpt lat="45.97096" lon="13.64022">
        <ele>84.441787</ele>
        <time>2026-07-14T09:54:48.000Z</time>
      </trkpt>
      <trkpt lat="45.9709" lon="13.64005">
        <ele>85.185669</ele>
        <time>2026-07-14T09:54:54.000Z</time>
      </trkpt>
      <trkpt lat="45.97082" lon="13.63996">
        <ele>85.706361</ele>
        <time>2026-07-14T09:55:00.000Z</time>
      </trkpt>
      <trkpt lat="45.97079" lon="13.63996">
        <ele>85.806183</ele>
        <time>2026-07-14T09:55:01.000Z</time>
      </trkpt>
      <trkpt lat="45.97076" lon="13.63997">
        <ele>85.987128</ele>
        <time>2026-07-14T09:55:04.000Z</time>
      </trkpt>
      <trkpt lat="45.97072" lon="13.63995">
        <ele>86.189966</ele>
        <time>2026-07-14T09:55:06.000Z</time>
      </trkpt>
      <trkpt lat="45.97066" lon="13.63978">
        <ele>86.812317</ele>
        <time>2026-07-14T09:55:11.000Z</time>
      </trkpt>
      <trkpt lat="45.97063" lon="13.63953">
        <ele>87.652477</ele>
        <time>2026-07-14T09:55:17.000Z</time>
      </trkpt>
      <trkpt lat="45.9706" lon="13.63934">
        <ele>88.3047</ele>
        <time>2026-07-14T09:55:22.000Z</time>
      </trkpt>
      <trkpt lat="45.97057" lon="13.63908">
        <ele>89.170131</ele>
        <time>2026-07-14T09:55:28.000Z</time>
      </trkpt>
      <trkpt lat="45.97062" lon="13.63879">
        <ele>90.131943</ele>
        <time>2026-07-14T09:55:34.000Z</time>
      </trkpt>
      <trkpt lat="45.97068" lon="13.63837">
        <ele>91.569077</ele>
        <time>2026-07-14T09:55:43.000Z</time>
      </trkpt>
      <trkpt lat="45.9707" lon="13.63812">
        <ele>92.397876</ele>
        <time>2026-07-14T09:55:48.000Z</time>
      </trkpt>
      <trkpt lat="45.9707" lon="13.63807">
        <ele>92.571212</ele>
        <time>2026-07-14T09:55:49.000Z</time>
      </trkpt>
      <trkpt lat="45.97067" lon="13.63786">
        <ele>93.270779</ele>
        <time>2026-07-14T09:55:53.000Z</time>
      </trkpt>
      <trkpt lat="45.97066" lon="13.63776">
        <ele>93.432381</ele>
        <time>2026-07-14T09:55:55.000Z</time>
      </trkpt>
      <trkpt lat="45.97057" lon="13.63747">
        <ele>93.60342</ele>
        <time>2026-07-14T09:56:01.000Z</time>
      </trkpt>
      <trkpt lat="45.97047" lon="13.63721">
        <ele>93.765296</ele>
        <time>2026-07-14T09:56:07.000Z</time>
      </trkpt>
      <trkpt lat="45.9704" lon="13.63713">
        <ele>93.835351</ele>
        <time>2026-07-14T09:56:10.000Z</time>
      </trkpt>
      <trkpt lat="45.97038" lon="13.63713">
        <ele>93.854146</ele>
        <time>2026-07-14T09:56:11.000Z</time>
      </trkpt>
      <trkpt lat="45.97026" lon="13.63721">
        <ele>93.953921</ele>
        <time>2026-07-14T09:56:15.000Z</time>
      </trkpt>
      <trkpt lat="45.97001" lon="13.63741">
        <ele>94.176052</ele>
        <time>2026-07-14T09:56:23.000Z</time>
      </trkpt>
      <trkpt lat="45.96982" lon="13.63754">
        <ele>94.34286</ele>
        <time>2026-07-14T09:56:28.000Z</time>
      </trkpt>
      <trkpt lat="45.96979" lon="13.63758">
        <ele>94.376274</ele>
        <time>2026-07-14T09:56:29.000Z</time>
      </trkpt>
      <trkpt lat="45.96966" lon="13.63773">
        <ele>94.506287</ele>
        <time>2026-07-14T09:56:33.000Z</time>
      </trkpt>
      <trkpt lat="45.96963" lon="13.63777">
        <ele>94.536483</ele>
        <time>2026-07-14T09:56:34.000Z</time>
      </trkpt>
      <trkpt lat="45.96951" lon="13.6379">
        <ele>94.65913</ele>
        <time>2026-07-14T09:56:38.000Z</time>
      </trkpt>
      <trkpt lat="45.96935" lon="13.63795">
        <ele>94.782697</ele>
        <time>2026-07-14T09:56:42.000Z</time>
      </trkpt>
      <trkpt lat="45.96921" lon="13.6378">
        <ele>94.747395</ele>
        <time>2026-07-14T09:56:46.000Z</time>
      </trkpt>
      <trkpt lat="45.96909" lon="13.63752">
        <ele>94.651633</ele>
        <time>2026-07-14T09:56:51.000Z</time>
      </trkpt>
      <trkpt lat="45.96907" lon="13.63748">
        <ele>94.634991</ele>
        <time>2026-07-14T09:56:52.000Z</time>
      </trkpt>
      <trkpt lat="45.969" lon="13.63743">
        <ele>94.606188</ele>
        <time>2026-07-14T09:56:54.000Z</time>
      </trkpt>
      <trkpt lat="45.96893" lon="13.63747">
        <ele>94.571544</ele>
        <time>2026-07-14T09:56:56.000Z</time>
      </trkpt>
      <trkpt lat="45.96889" lon="13.63749">
        <ele>94.554412</ele>
        <time>2026-07-14T09:56:57.000Z</time>
      </trkpt>
      <trkpt lat="45.96885" lon="13.63752">
        <ele>94.536997</ele>
        <time>2026-07-14T09:56:58.000Z</time>
      </trkpt>
      <trkpt lat="45.96865" lon="13.63763">
        <ele>94.444246</ele>
        <time>2026-07-14T09:57:04.000Z</time>
      </trkpt>
      <trkpt lat="45.96862" lon="13.63759">
        <ele>94.430028</ele>
        <time>2026-07-14T09:57:05.000Z</time>
      </trkpt>
      <trkpt lat="45.9686" lon="13.6375">
        <ele>94.399526</ele>
        <time>2026-07-14T09:57:07.000Z</time>
      </trkpt>
      <trkpt lat="45.96848" lon="13.63709">
        <ele>94.272188</ele>
        <time>2026-07-14T09:57:14.000Z</time>
      </trkpt>
      <trkpt lat="45.96842" lon="13.63689">
        <ele>94.205015</ele>
        <time>2026-07-14T09:57:18.000Z</time>
      </trkpt>
      <trkpt lat="45.96838" lon="13.63685">
        <ele>94.186997</ele>
        <time>2026-07-14T09:57:19.000Z</time>
      </trkpt>
      <trkpt lat="45.96834" lon="13.63684">
        <ele>94.167766</ele>
        <time>2026-07-14T09:57:20.000Z</time>
      </trkpt>
      <trkpt lat="45.96826" lon="13.63685">
        <ele>94.133394</ele>
        <time>2026-07-14T09:57:22.000Z</time>
      </trkpt>
      <trkpt lat="45.96819" lon="13.63687">
        <ele>94.105273</ele>
        <time>2026-07-14T09:57:24.000Z</time>
      </trkpt>
      <trkpt lat="45.96814" lon="13.63691">
        <ele>94.082424</ele>
        <time>2026-07-14T09:57:26.000Z</time>
      </trkpt>
      <trkpt lat="45.96813" lon="13.63693">
        <ele>94.072545</ele>
        <time>2026-07-14T09:57:27.000Z</time>
      </trkpt>
      <trkpt lat="45.96814" lon="13.63702">
        <ele>94.048645</ele>
        <time>2026-07-14T09:57:30.000Z</time>
      </trkpt>
      <trkpt lat="45.96812" lon="13.63706">
        <ele>94.053817</ele>
        <time>2026-07-14T09:57:32.000Z</time>
      </trkpt>
      <trkpt lat="45.96808" lon="13.63706">
        <ele>94.062105</ele>
        <time>2026-07-14T09:57:34.000Z</time>
      </trkpt>
      <trkpt lat="45.9679" lon="13.63704">
        <ele>94.096621</ele>
        <time>2026-07-14T09:57:40.000Z</time>
      </trkpt>
      <trkpt lat="45.96768" lon="13.6371">
        <ele>94.140812</ele>
        <time>2026-07-14T09:57:46.000Z</time>
      </trkpt>
      <trkpt lat="45.9675" lon="13.63724">
        <ele>94.179293</ele>
        <time>2026-07-14T09:57:51.000Z</time>
      </trkpt>
      <trkpt lat="45.96747" lon="13.63727">
        <ele>94.186643</ele>
        <time>2026-07-14T09:57:52.000Z</time>
      </trkpt>
      <trkpt lat="45.9672" lon="13.63745">
        <ele>94.243567</ele>
        <time>2026-07-14T09:58:00.000Z</time>
      </trkpt>
      <trkpt lat="45.96695" lon="13.6376">
        <ele>94.295213</ele>
        <time>2026-07-14T09:58:07.000Z</time>
      </trkpt>
      <trkpt lat="45.96684" lon="13.6376">
        <ele>94.317471</ele>
        <time>2026-07-14T09:58:10.000Z</time>
      </trkpt>
      <trkpt lat="45.96676" lon="13.63756">
        <ele>94.333495</ele>
        <time>2026-07-14T09:58:12.000Z</time>
      </trkpt>
      <trkpt lat="45.96661" lon="13.63752">
        <ele>94.362789</ele>
        <time>2026-07-14T09:58:16.000Z</time>
      </trkpt>
      <trkpt lat="45.96657" lon="13.6375">
        <ele>94.369835</ele>
        <time>2026-07-14T09:58:17.000Z</time>
      </trkpt>
      <trkpt lat="45.96654" lon="13.63748">
        <ele>94.376654</ele>
        <time>2026-07-14T09:58:18.000Z</time>
      </trkpt>
      <trkpt lat="45.96651" lon="13.63746">
        <ele>94.383748</ele>
        <time>2026-07-14T09:58:19.000Z</time>
      </trkpt>
      <trkpt lat="45.96644" lon="13.63743">
        <ele>94.368988</ele>
        <time>2026-07-14T09:58:21.000Z</time>
      </trkpt>
      <trkpt lat="45.96641" lon="13.63742">
        <ele>94.323559</ele>
        <time>2026-07-14T09:58:22.000Z</time>
      </trkpt>
      <trkpt lat="45.96633" lon="13.63742">
        <ele>94.215858</ele>
        <time>2026-07-14T09:58:25.000Z</time>
      </trkpt>
      <trkpt lat="45.96611" lon="13.63733">
        <ele>93.916631</ele>
        <time>2026-07-14T09:58:30.000Z</time>
      </trkpt>
      <trkpt lat="45.96597" lon="13.63708">
        <ele>93.624442</ele>
        <time>2026-07-14T09:58:36.000Z</time>
      </trkpt>
      <trkpt lat="45.96585" lon="13.63688">
        <ele>93.373877</ele>
        <time>2026-07-14T09:58:41.000Z</time>
      </trkpt>
      <trkpt lat="45.96579" lon="13.63683">
        <ele>93.276401</ele>
        <time>2026-07-14T09:58:43.000Z</time>
      </trkpt>
      <trkpt lat="45.96574" lon="13.63682">
        <ele>93.216558</ele>
        <time>2026-07-14T09:58:44.000Z</time>
      </trkpt>
      <trkpt lat="45.96571" lon="13.63684">
        <ele>93.168511</ele>
        <time>2026-07-14T09:58:45.000Z</time>
      </trkpt>
      <trkpt lat="45.96552" lon="13.63702">
        <ele>92.872802</ele>
        <time>2026-07-14T09:58:51.000Z</time>
      </trkpt>
      <trkpt lat="45.96525" lon="13.6374">
        <ele>92.367241</ele>
        <time>2026-07-14T09:59:01.000Z</time>
      </trkpt>
      <trkpt lat="45.96508" lon="13.63761">
        <ele>92.065175</ele>
        <time>2026-07-14T09:59:07.000Z</time>
      </trkpt>
      <trkpt lat="45.96499" lon="13.63772">
        <ele>91.98627</ele>
        <time>2026-07-14T09:59:10.000Z</time>
      </trkpt>
      <trkpt lat="45.96487" lon="13.63786">
        <ele>91.949307</ele>
        <time>2026-07-14T09:59:14.000Z</time>
      </trkpt>
      <trkpt lat="45.96477" lon="13.63801">
        <ele>91.91615</ele>
        <time>2026-07-14T09:59:18.000Z</time>
      </trkpt>
      <trkpt lat="45.96472" lon="13.63805">
        <ele>91.902574</ele>
        <time>2026-07-14T09:59:20.000Z</time>
      </trkpt>
      <trkpt lat="45.96467" lon="13.63806">
        <ele>91.891001</ele>
        <time>2026-07-14T09:59:22.000Z</time>
      </trkpt>
      <trkpt lat="45.96448" lon="13.63793">
        <ele>91.841198</ele>
        <time>2026-07-14T09:59:29.000Z</time>
      </trkpt>
      <trkpt lat="45.96437" lon="13.63776">
        <ele>91.803889</ele>
        <time>2026-07-14T09:59:36.000Z</time>
      </trkpt>
      <trkpt lat="45.96425" lon="13.63761">
        <ele>91.765957</ele>
        <time>2026-07-14T09:59:41.000Z</time>
      </trkpt>
      <trkpt lat="45.9642" lon="13.63754">
        <ele>91.748937</ele>
        <time>2026-07-14T09:59:43.000Z</time>
      </trkpt>
      <trkpt lat="45.9641" lon="13.63735">
        <ele>91.711097</ele>
        <time>2026-07-14T09:59:47.000Z</time>
      </trkpt>
      <trkpt lat="45.96404" lon="13.63726">
        <ele>91.689948</ele>
        <time>2026-07-14T09:59:49.000Z</time>
      </trkpt>
      <trkpt lat="45.96401" lon="13.63722">
        <ele>91.680262</ele>
        <time>2026-07-14T09:59:50.000Z</time>
      </trkpt>
      <trkpt lat="45.96397" lon="13.63712">
        <ele>91.662144</ele>
        <time>2026-07-14T09:59:52.000Z</time>
      </trkpt>
      <trkpt lat="45.96395" lon="13.63708">
        <ele>91.654226</ele>
        <time>2026-07-14T09:59:53.000Z</time>
      </trkpt>
      <trkpt lat="45.96392" lon="13.63706">
        <ele>91.646767</ele>
        <time>2026-07-14T09:59:54.000Z</time>
      </trkpt>
      <trkpt lat="45.96384" lon="13.63707">
        <ele>91.628815</ele>
        <time>2026-07-14T09:59:56.000Z</time>
      </trkpt>
      <trkpt lat="45.96363" lon="13.63717">
        <ele>91.576937</ele>
        <time>2026-07-14T10:00:01.000Z</time>
      </trkpt>
      <trkpt lat="45.9636" lon="13.63717">
        <ele>91.569082</ele>
        <time>2026-07-14T10:00:02.000Z</time>
      </trkpt>
      <trkpt lat="45.96353" lon="13.63711">
        <ele>91.552922</ele>
        <time>2026-07-14T10:00:04.000Z</time>
      </trkpt>
      <trkpt lat="45.96338" lon="13.63683">
        <ele>91.501832</ele>
        <time>2026-07-14T10:00:10.000Z</time>
      </trkpt>
      <trkpt lat="45.96336" lon="13.63678">
        <ele>91.493573</ele>
        <time>2026-07-14T10:00:11.000Z</time>
      </trkpt>
      <trkpt lat="45.96333" lon="13.63667">
        <ele>91.476194</ele>
        <time>2026-07-14T10:00:13.000Z</time>
      </trkpt>
      <trkpt lat="45.96329" lon="13.6365">
        <ele>91.450678</ele>
        <time>2026-07-14T10:00:16.000Z</time>
      </trkpt>
      <trkpt lat="45.96323" lon="13.63636">
        <ele>91.426997</ele>
        <time>2026-07-14T10:00:19.000Z</time>
      </trkpt>
      <trkpt lat="45.9632" lon="13.63634">
        <ele>91.419795</ele>
        <time>2026-07-14T10:00:20.000Z</time>
      </trkpt>
      <trkpt lat="45.96305" lon="13.63644">
        <ele>91.386184</ele>
        <time>2026-07-14T10:00:24.000Z</time>
      </trkpt>
      <trkpt lat="45.96288" lon="13.63653">
        <ele>91.348648</ele>
        <time>2026-07-14T10:00:28.000Z</time>
      </trkpt>
      <trkpt lat="45.96284" lon="13.63652">
        <ele>91.339799</ele>
        <time>2026-07-14T10:00:29.000Z</time>
      </trkpt>
      <trkpt lat="45.9628" lon="13.63649">
        <ele>91.331341</ele>
        <time>2026-07-14T10:00:30.000Z</time>
      </trkpt>
      <trkpt lat="45.96275" lon="13.63641">
        <ele>91.314967</ele>
        <time>2026-07-14T10:00:32.000Z</time>
      </trkpt>
      <trkpt lat="45.96269" lon="13.63624">
        <ele>91.288471</ele>
        <time>2026-07-14T10:00:35.000Z</time>
      </trkpt>
      <trkpt lat="45.96263" lon="13.63616">
        <ele>91.271564</ele>
        <time>2026-07-14T10:00:37.000Z</time>
      </trkpt>
      <trkpt lat="45.96252" lon="13.63612">
        <ele>91.248286</ele>
        <time>2026-07-14T10:00:40.000Z</time>
      </trkpt>
      <trkpt lat="45.96248" lon="13.63613">
        <ele>91.238772</ele>
        <time>2026-07-14T10:00:41.000Z</time>
      </trkpt>
      <trkpt lat="45.96239" lon="13.63626">
        <ele>91.212414</ele>
        <time>2026-07-14T10:00:44.000Z</time>
      </trkpt>
      <trkpt lat="45.96236" lon="13.63638">
        <ele>91.286486</ele>
        <time>2026-07-14T10:00:46.000Z</time>
      </trkpt>
      <trkpt lat="45.96231" lon="13.63664">
        <ele>91.501515</ele>
        <time>2026-07-14T10:00:50.000Z</time>
      </trkpt>
      <trkpt lat="45.96226" lon="13.63706">
        <ele>91.849395</ele>
        <time>2026-07-14T10:00:57.000Z</time>
      </trkpt>
      <trkpt lat="45.96224" lon="13.63719">
        <ele>91.959052</ele>
        <time>2026-07-14T10:01:01.000Z</time>
      </trkpt>
      <trkpt lat="45.96224" lon="13.63721">
        <ele>91.976319</ele>
        <time>2026-07-14T10:01:04.000Z</time>
      </trkpt>
      <trkpt lat="45.9622" lon="13.63726">
        <ele>92.038744</ele>
        <time>2026-07-14T10:01:07.000Z</time>
      </trkpt>
      <trkpt lat="45.96218" lon="13.63729">
        <ele>92.064198</ele>
        <time>2026-07-14T10:01:08.000Z</time>
      </trkpt>
      <trkpt lat="45.96212" lon="13.63738">
        <ele>92.169471</ele>
        <time>2026-07-14T10:01:12.000Z</time>
      </trkpt>
      <trkpt lat="45.96207" lon="13.63738">
        <ele>92.227912</ele>
        <time>2026-07-14T10:01:14.000Z</time>
      </trkpt>
      <trkpt lat="45.96188" lon="13.63728">
        <ele>92.469311</ele>
        <time>2026-07-14T10:01:20.000Z</time>
      </trkpt>
      <trkpt lat="45.96171" lon="13.63719">
        <ele>92.68406</ele>
        <time>2026-07-14T10:01:24.000Z</time>
      </trkpt>
      <trkpt lat="45.96164" lon="13.63711">
        <ele>92.784161</ele>
        <time>2026-07-14T10:01:26.000Z</time>
      </trkpt>
      <trkpt lat="45.96156" lon="13.63691">
        <ele>92.971823</ele>
        <time>2026-07-14T10:01:30.000Z</time>
      </trkpt>
      <trkpt lat="45.96154" lon="13.63685">
        <ele>93.02641</ele>
        <time>2026-07-14T10:01:31.000Z</time>
      </trkpt>
      <trkpt lat="45.96148" lon="13.63677">
        <ele>93.123748</ele>
        <time>2026-07-14T10:01:33.000Z</time>
      </trkpt>
      <trkpt lat="45.96144" lon="13.63675">
        <ele>93.169592</ele>
        <time>2026-07-14T10:01:34.000Z</time>
      </trkpt>
      <trkpt lat="45.96118" lon="13.63673">
        <ele>93.138333</ele>
        <time>2026-07-14T10:01:40.000Z</time>
      </trkpt>
      <trkpt lat="45.96109" lon="13.63671">
        <ele>93.026327</ele>
        <time>2026-07-14T10:01:42.000Z</time>
      </trkpt>
      <trkpt lat="45.96064" lon="13.63659">
        <ele>92.46218</ele>
        <time>2026-07-14T10:01:51.000Z</time>
      </trkpt>
      <trkpt lat="45.96024" lon="13.63647">
        <ele>91.949191</ele>
        <time>2026-07-14T10:01:59.000Z</time>
      </trkpt>
      <trkpt lat="45.96005" lon="13.63642">
        <ele>91.717316</ele>
        <time>2026-07-14T10:02:03.000Z</time>
      </trkpt>
      <trkpt lat="45.95997" lon="13.63636">
        <ele>91.600235</ele>
        <time>2026-07-14T10:02:05.000Z</time>
      </trkpt>
      <trkpt lat="45.95987" lon="13.63632">
        <ele>91.472898</ele>
        <time>2026-07-14T10:02:07.000Z</time>
      </trkpt>
      <trkpt lat="45.95967" lon="13.63626">
        <ele>91.21948</ele>
        <time>2026-07-14T10:02:11.000Z</time>
      </trkpt>
      <trkpt lat="45.95936" lon="13.6361">
        <ele>90.872541</ele>
        <time>2026-07-14T10:02:17.000Z</time>
      </trkpt>
      <trkpt lat="45.9591" lon="13.63599">
        <ele>90.598124</ele>
        <time>2026-07-14T10:02:23.000Z</time>
      </trkpt>
      <trkpt lat="45.95878" lon="13.6359">
        <ele>90.261368</ele>
        <time>2026-07-14T10:02:30.000Z</time>
      </trkpt>
      <trkpt lat="45.95873" lon="13.63588">
        <ele>90.206945</ele>
        <time>2026-07-14T10:02:31.000Z</time>
      </trkpt>
      <trkpt lat="45.95858" lon="13.63582">
        <ele>90.055364</ele>
        <time>2026-07-14T10:02:34.000Z</time>
      </trkpt>
      <trkpt lat="45.95854" lon="13.6358">
        <ele>90.006838</ele>
        <time>2026-07-14T10:02:35.000Z</time>
      </trkpt>
      <trkpt lat="45.95844" lon="13.63575">
        <ele>89.904211</ele>
        <time>2026-07-14T10:02:37.000Z</time>
      </trkpt>
      <trkpt lat="45.9582" lon="13.63567">
        <ele>89.652002</ele>
        <time>2026-07-14T10:02:42.000Z</time>
      </trkpt>
      <trkpt lat="45.958" lon="13.63564">
        <ele>89.449766</ele>
        <time>2026-07-14T10:02:47.000Z</time>
      </trkpt>
      <trkpt lat="45.9578" lon="13.63561">
        <ele>89.257902</ele>
        <time>2026-07-14T10:02:52.000Z</time>
      </trkpt>
      <trkpt lat="45.95776" lon="13.63558">
        <ele>89.227285</ele>
        <time>2026-07-14T10:02:53.000Z</time>
      </trkpt>
      <trkpt lat="45.95743" lon="13.63544">
        <ele>88.997814</ele>
        <time>2026-07-14T10:03:00.000Z</time>
      </trkpt>
      <trkpt lat="45.95721" lon="13.63537">
        <ele>88.844253</ele>
        <time>2026-07-14T10:03:05.000Z</time>
      </trkpt>
      <trkpt lat="45.95711" lon="13.63533">
        <ele>88.778351</ele>
        <time>2026-07-14T10:03:07.000Z</time>
      </trkpt>
      <trkpt lat="45.95701" lon="13.63529">
        <ele>88.709238</ele>
        <time>2026-07-14T10:03:09.000Z</time>
      </trkpt>
      <trkpt lat="45.95683" lon="13.63522">
        <ele>88.585506</ele>
        <time>2026-07-14T10:03:13.000Z</time>
      </trkpt>
      <trkpt lat="45.9568" lon="13.63519">
        <ele>88.557736</ele>
        <time>2026-07-14T10:03:14.000Z</time>
      </trkpt>
      <trkpt lat="45.95666" lon="13.63506">
        <ele>88.44947</ele>
        <time>2026-07-14T10:03:18.000Z</time>
      </trkpt>
      <trkpt lat="45.95658" lon="13.63502">
        <ele>88.38944</ele>
        <time>2026-07-14T10:03:20.000Z</time>
      </trkpt>
      <trkpt lat="45.95654" lon="13.63501">
        <ele>88.359266</ele>
        <time>2026-07-14T10:03:21.000Z</time>
      </trkpt>
      <trkpt lat="45.95635" lon="13.63494">
        <ele>88.230768</ele>
        <time>2026-07-14T10:03:26.000Z</time>
      </trkpt>
      <trkpt lat="45.95616" lon="13.63488">
        <ele>88.101615</ele>
        <time>2026-07-14T10:03:32.000Z</time>
      </trkpt>
      <trkpt lat="45.95597" lon="13.63482">
        <ele>88.639434</ele>
        <time>2026-07-14T10:03:38.000Z</time>
      </trkpt>
      <trkpt lat="45.9559" lon="13.63481">
        <ele>88.894978</ele>
        <time>2026-07-14T10:03:40.000Z</time>
      </trkpt>
      <trkpt lat="45.95568" lon="13.6348">
        <ele>89.705857</ele>
        <time>2026-07-14T10:03:46.000Z</time>
      </trkpt>
      <trkpt lat="45.95555" lon="13.63476">
        <ele>90.195576</ele>
        <time>2026-07-14T10:03:50.000Z</time>
      </trkpt>
      <trkpt lat="45.95549" lon="13.63477">
        <ele>90.423002</ele>
        <time>2026-07-14T10:03:52.000Z</time>
      </trkpt>
      <trkpt lat="45.95547" lon="13.6348">
        <ele>90.527705</ele>
        <time>2026-07-14T10:03:53.000Z</time>
      </trkpt>
      <trkpt lat="45.95546" lon="13.63484">
        <ele>90.637661</ele>
        <time>2026-07-14T10:03:54.000Z</time>
      </trkpt>
      <trkpt lat="45.95545" lon="13.63487">
        <ele>90.728733</ele>
        <time>2026-07-14T10:03:55.000Z</time>
      </trkpt>
      <trkpt lat="45.95545" lon="13.63494">
        <ele>90.904119</ele>
        <time>2026-07-14T10:03:57.000Z</time>
      </trkpt>
      <trkpt lat="45.95544" lon="13.635">
        <ele>91.058408</ele>
        <time>2026-07-14T10:03:59.000Z</time>
      </trkpt>
      <trkpt lat="45.95541" lon="13.63505">
        <ele>91.231483</ele>
        <time>2026-07-14T10:04:02.000Z</time>
      </trkpt>
      <trkpt lat="45.95539" lon="13.63508">
        <ele>91.328604</ele>
        <time>2026-07-14T10:04:04.000Z</time>
      </trkpt>
      <trkpt lat="45.95537" lon="13.63509">
        <ele>91.418594</ele>
        <time>2026-07-14T10:04:07.000Z</time>
      </trkpt>
      <trkpt lat="45.95537" lon="13.63509">
        <ele>91.418594</ele>
        <time>2026-07-14T10:04:08.000Z</time>
      </trkpt>
      <trkpt lat="45.95533" lon="13.63513">
        <ele>91.603603</ele>
        <time>2026-07-14T10:04:24.000Z</time>
      </trkpt>
      <trkpt lat="45.95532" lon="13.63515">
        <ele>91.666419</ele>
        <time>2026-07-14T10:04:25.000Z</time>
      </trkpt>
      <trkpt lat="45.95531" lon="13.63517">
        <ele>91.72409</ele>
        <time>2026-07-14T10:04:27.000Z</time>
      </trkpt>
      <trkpt lat="45.95525" lon="13.63507">
        <ele>92.074963</ele>
        <time>2026-07-14T10:05:24.000Z</time>
      </trkpt>
      <trkpt lat="45.95523" lon="13.63505">
        <ele>92.193493</ele>
        <time>2026-07-14T10:05:25.000Z</time>
      </trkpt>
      <trkpt lat="45.95507" lon="13.63494">
        <ele>92.824325</ele>
        <time>2026-07-14T10:05:31.000Z</time>
      </trkpt>
      <trkpt lat="45.95506" lon="13.63494">
        <ele>92.862029</ele>
        <time>2026-07-14T10:05:32.000Z</time>
      </trkpt>
      <trkpt lat="45.95506" lon="13.63494">
        <ele>92.873233</ele>
        <time>2026-07-14T10:05:34.000Z</time>
      </trkpt>
      <trkpt lat="45.95501" lon="13.63492">
        <ele>93.082353</ele>
        <time>2026-07-14T10:08:14.000Z</time>
      </trkpt>
      <trkpt lat="45.95499" lon="13.63491">
        <ele>93.163481</ele>
        <time>2026-07-14T10:08:15.000Z</time>
      </trkpt>
      <trkpt lat="45.95483" lon="13.63486">
        <ele>93.751934</ele>
        <time>2026-07-14T10:08:21.000Z</time>
      </trkpt>
      <trkpt lat="45.95457" lon="13.63481">
        <ele>94.72557</ele>
        <time>2026-07-14T10:08:29.000Z</time>
      </trkpt>
      <trkpt lat="45.95443" lon="13.63475">
        <ele>94.598269</ele>
        <time>2026-07-14T10:08:33.000Z</time>
      </trkpt>
      <trkpt lat="45.95437" lon="13.63475">
        <ele>94.499759</ele>
        <time>2026-07-14T10:08:35.000Z</time>
      </trkpt>
      <trkpt lat="45.95419" lon="13.63469">
        <ele>94.237041</ele>
        <time>2026-07-14T10:08:40.000Z</time>
      </trkpt>
      <trkpt lat="45.95404" lon="13.63464">
        <ele>94.001566</ele>
        <time>2026-07-14T10:08:44.000Z</time>
      </trkpt>
      <trkpt lat="45.95374" lon="13.63451">
        <ele>93.539883</ele>
        <time>2026-07-14T10:08:52.000Z</time>
      </trkpt>
      <trkpt lat="45.95345" lon="13.63439">
        <ele>93.108155</ele>
        <time>2026-07-14T10:08:59.000Z</time>
      </trkpt>
      <trkpt lat="45.95338" lon="13.63437">
        <ele>92.991187</ele>
        <time>2026-07-14T10:09:01.000Z</time>
      </trkpt>
      <trkpt lat="45.95308" lon="13.63426">
        <ele>92.544255</ele>
        <time>2026-07-14T10:09:09.000Z</time>
      </trkpt>
      <trkpt lat="45.95288" lon="13.6342">
        <ele>92.238165</ele>
        <time>2026-07-14T10:09:14.000Z</time>
      </trkpt>
      <trkpt lat="45.95284" lon="13.63419">
        <ele>92.184799</ele>
        <time>2026-07-14T10:09:15.000Z</time>
      </trkpt>
      <trkpt lat="45.95281" lon="13.63419">
        <ele>92.141506</ele>
        <time>2026-07-14T10:09:16.000Z</time>
      </trkpt>
      <trkpt lat="45.95265" lon="13.63426">
        <ele>92.074536</ele>
        <time>2026-07-14T10:09:21.000Z</time>
      </trkpt>
      <trkpt lat="45.95263" lon="13.63428">
        <ele>92.062165</ele>
        <time>2026-07-14T10:09:23.000Z</time>
      </trkpt>
      <trkpt lat="45.95263" lon="13.63429">
        <ele>92.060482</ele>
        <time>2026-07-14T10:09:25.000Z</time>
      </trkpt>
      <trkpt lat="45.95258" lon="13.6343">
        <ele>92.042705</ele>
        <time>2026-07-14T10:09:38.000Z</time>
      </trkpt>
      <trkpt lat="45.95254" lon="13.63432">
        <ele>92.022219</ele>
        <time>2026-07-14T10:09:40.000Z</time>
      </trkpt>
      <trkpt lat="45.95253" lon="13.63438">
        <ele>92.004054</ele>
        <time>2026-07-14T10:09:42.000Z</time>
      </trkpt>
      <trkpt lat="45.9526" lon="13.63459">
        <ele>91.937866</ele>
        <time>2026-07-14T10:09:48.000Z</time>
      </trkpt>
      <trkpt lat="45.95262" lon="13.6346">
        <ele>91.927993</ele>
        <time>2026-07-14T10:09:49.000Z</time>
      </trkpt>
      <trkpt lat="45.95265" lon="13.63451">
        <ele>91.898825</ele>
        <time>2026-07-14T10:09:52.000Z</time>
      </trkpt>
      <trkpt lat="45.9526" lon="13.63426">
        <ele>91.82158</ele>
        <time>2026-07-14T10:09:57.000Z</time>
      </trkpt>
      <trkpt lat="45.95252" lon="13.63391">
        <ele>91.715013</ele>
        <time>2026-07-14T10:10:03.000Z</time>
      </trkpt>
      <trkpt lat="45.95243" lon="13.63366">
        <ele>91.632948</ele>
        <time>2026-07-14T10:10:07.000Z</time>
      </trkpt>
      <trkpt lat="45.95243" lon="13.63358">
        <ele>91.610677</ele>
        <time>2026-07-14T10:10:08.000Z</time>
      </trkpt>
      <trkpt lat="45.95241" lon="13.6334">
        <ele>91.555704</ele>
        <time>2026-07-14T10:10:12.000Z</time>
      </trkpt>
      <trkpt lat="45.95236" lon="13.63322">
        <ele>91.499809</ele>
        <time>2026-07-14T10:10:15.000Z</time>
      </trkpt>
      <trkpt lat="45.9523" lon="13.63309">
        <ele>91.455663</ele>
        <time>2026-07-14T10:10:17.000Z</time>
      </trkpt>
      <trkpt lat="45.95227" lon="13.63302">
        <ele>91.432168</ele>
        <time>2026-07-14T10:10:18.000Z</time>
      </trkpt>
      <trkpt lat="45.9522" lon="13.6328">
        <ele>91.495478</ele>
        <time>2026-07-14T10:10:21.000Z</time>
      </trkpt>
      <trkpt lat="45.95219" lon="13.63273">
        <ele>91.57951</ele>
        <time>2026-07-14T10:10:22.000Z</time>
      </trkpt>
      <trkpt lat="45.95218" lon="13.63267">
        <ele>91.654521</ele>
        <time>2026-07-14T10:10:23.000Z</time>
      </trkpt>
      <trkpt lat="45.95213" lon="13.63239">
        <ele>91.983932</ele>
        <time>2026-07-14T10:10:27.000Z</time>
      </trkpt>
      <trkpt lat="45.9521" lon="13.63226">
        <ele>92.139295</ele>
        <time>2026-07-14T10:10:29.000Z</time>
      </trkpt>
      <trkpt lat="45.95207" lon="13.63214">
        <ele>92.287523</ele>
        <time>2026-07-14T10:10:31.000Z</time>
      </trkpt>
      <trkpt lat="45.95204" lon="13.63202">
        <ele>92.438474</ele>
        <time>2026-07-14T10:10:33.000Z</time>
      </trkpt>
      <trkpt lat="45.952" lon="13.63188">
        <ele>92.606687</ele>
        <time>2026-07-14T10:10:35.000Z</time>
      </trkpt>
      <trkpt lat="45.95198" lon="13.63181">
        <ele>92.690222</ele>
        <time>2026-07-14T10:10:36.000Z</time>
      </trkpt>
      <trkpt lat="45.95181" lon="13.63136">
        <ele>93.274277</ele>
        <time>2026-07-14T10:10:43.000Z</time>
      </trkpt>
      <trkpt lat="45.9517" lon="13.63094">
        <ele>93.788744</ele>
        <time>2026-07-14T10:10:49.000Z</time>
      </trkpt>
      <trkpt lat="45.95166" lon="13.63083">
        <ele>93.934158</ele>
        <time>2026-07-14T10:10:51.000Z</time>
      </trkpt>
      <trkpt lat="45.95164" lon="13.63076">
        <ele>94.012104</ele>
        <time>2026-07-14T10:10:52.000Z</time>
      </trkpt>
      <trkpt lat="45.95157" lon="13.63052">
        <ele>94.308562</ele>
        <time>2026-07-14T10:10:56.000Z</time>
      </trkpt>
      <trkpt lat="45.9515" lon="13.63035">
        <ele>94.308682</ele>
        <time>2026-07-14T10:10:59.000Z</time>
      </trkpt>
      <trkpt lat="45.95148" lon="13.63028">
        <ele>94.295965</ele>
        <time>2026-07-14T10:11:00.000Z</time>
      </trkpt>
      <trkpt lat="45.95143" lon="13.63006">
        <ele>94.256154</ele>
        <time>2026-07-14T10:11:03.000Z</time>
      </trkpt>
      <trkpt lat="45.95137" lon="13.62985">
        <ele>94.214973</ele>
        <time>2026-07-14T10:11:06.000Z</time>
      </trkpt>
      <trkpt lat="45.95132" lon="13.62964">
        <ele>94.175672</ele>
        <time>2026-07-14T10:11:09.000Z</time>
      </trkpt>
      <trkpt lat="45.95128" lon="13.6295">
        <ele>94.148449</ele>
        <time>2026-07-14T10:11:11.000Z</time>
      </trkpt>
      <trkpt lat="45.95126" lon="13.62943">
        <ele>94.135142</ele>
        <time>2026-07-14T10:11:12.000Z</time>
      </trkpt>
      <trkpt lat="45.95125" lon="13.62935">
        <ele>94.121341</ele>
        <time>2026-07-14T10:11:13.000Z</time>
      </trkpt>
      <trkpt lat="45.95117" lon="13.62898">
        <ele>94.052888</ele>
        <time>2026-07-14T10:11:18.000Z</time>
      </trkpt>
      <trkpt lat="45.95114" lon="13.62884">
        <ele>94.026033</ele>
        <time>2026-07-14T10:11:20.000Z</time>
      </trkpt>
      <trkpt lat="45.95112" lon="13.62868">
        <ele>93.998734</ele>
        <time>2026-07-14T10:11:22.000Z</time>
      </trkpt>
      <trkpt lat="45.95114" lon="13.62847">
        <ele>93.960803</ele>
        <time>2026-07-14T10:11:25.000Z</time>
      </trkpt>
      <trkpt lat="45.95113" lon="13.62841">
        <ele>93.949116</ele>
        <time>2026-07-14T10:11:26.000Z</time>
      </trkpt>
      <trkpt lat="45.95111" lon="13.62835">
        <ele>93.937765</ele>
        <time>2026-07-14T10:11:27.000Z</time>
      </trkpt>
      <trkpt lat="45.95103" lon="13.6283">
        <ele>93.914099</ele>
        <time>2026-07-14T10:11:29.000Z</time>
      </trkpt>
      <trkpt lat="45.95093" lon="13.62834">
        <ele>93.889652</ele>
        <time>2026-07-14T10:11:31.000Z</time>
      </trkpt>
      <trkpt lat="45.95089" lon="13.62837">
        <ele>93.812099</ele>
        <time>2026-07-14T10:11:32.000Z</time>
      </trkpt>
      <trkpt lat="45.9508" lon="13.62842">
        <ele>93.517412</ele>
        <time>2026-07-14T10:11:34.000Z</time>
      </trkpt>
      <trkpt lat="45.95065" lon="13.62843">
        <ele>93.023641</ele>
        <time>2026-07-14T10:11:37.000Z</time>
      </trkpt>
      <trkpt lat="45.95041" lon="13.6284">
        <ele>92.23204</ele>
        <time>2026-07-14T10:11:41.000Z</time>
      </trkpt>
      <trkpt lat="45.95035" lon="13.62839">
        <ele>92.012001</ele>
        <time>2026-07-14T10:11:42.000Z</time>
      </trkpt>
      <trkpt lat="45.94995" lon="13.6282">
        <ele>90.638637</ele>
        <time>2026-07-14T10:11:49.000Z</time>
      </trkpt>
      <trkpt lat="45.94975" lon="13.62806">
        <ele>89.89549</ele>
        <time>2026-07-14T10:11:53.000Z</time>
      </trkpt>
      <trkpt lat="45.94965" lon="13.628">
        <ele>89.539589</ele>
        <time>2026-07-14T10:11:55.000Z</time>
      </trkpt>
      <trkpt lat="45.94955" lon="13.62794">
        <ele>89.184606</ele>
        <time>2026-07-14T10:11:57.000Z</time>
      </trkpt>
      <trkpt lat="45.94941" lon="13.62785">
        <ele>88.685021</ele>
        <time>2026-07-14T10:12:00.000Z</time>
      </trkpt>
      <trkpt lat="45.949" lon="13.62753">
        <ele>88.209004</ele>
        <time>2026-07-14T10:12:09.000Z</time>
      </trkpt>
      <trkpt lat="45.94888" lon="13.6274">
        <ele>88.356416</ele>
        <time>2026-07-14T10:12:12.000Z</time>
      </trkpt>
      <trkpt lat="45.94881" lon="13.62728">
        <ele>88.457906</ele>
        <time>2026-07-14T10:12:14.000Z</time>
      </trkpt>
      <trkpt lat="45.94875" lon="13.62717">
        <ele>88.551632</ele>
        <time>2026-07-14T10:12:16.000Z</time>
      </trkpt>
      <trkpt lat="45.94868" lon="13.62701">
        <ele>88.67635</ele>
        <time>2026-07-14T10:12:19.000Z</time>
      </trkpt>
      <trkpt lat="45.94863" lon="13.62692">
        <ele>88.758662</ele>
        <time>2026-07-14T10:12:21.000Z</time>
      </trkpt>
      <trkpt lat="45.94852" lon="13.62675">
        <ele>88.917927</ele>
        <time>2026-07-14T10:12:25.000Z</time>
      </trkpt>
      <trkpt lat="45.94845" lon="13.62666">
        <ele>89.002057</ele>
        <time>2026-07-14T10:12:27.000Z</time>
      </trkpt>
      <trkpt lat="45.94842" lon="13.62662">
        <ele>89.044408</ele>
        <time>2026-07-14T10:12:28.000Z</time>
      </trkpt>
      <trkpt lat="45.94827" lon="13.62647">
        <ele>89.217296</ele>
        <time>2026-07-14T10:12:32.000Z</time>
      </trkpt>
      <trkpt lat="45.94824" lon="13.62642">
        <ele>89.26416</ele>
        <time>2026-07-14T10:12:33.000Z</time>
      </trkpt>
      <trkpt lat="45.94818" lon="13.62632">
        <ele>89.355246</ele>
        <time>2026-07-14T10:12:35.000Z</time>
      </trkpt>
      <trkpt lat="45.94809" lon="13.62627">
        <ele>89.444336</ele>
        <time>2026-07-14T10:12:37.000Z</time>
      </trkpt>
      <trkpt lat="45.94805" lon="13.62624">
        <ele>89.491405</ele>
        <time>2026-07-14T10:12:38.000Z</time>
      </trkpt>
      <trkpt lat="45.94796" lon="13.62618">
        <ele>89.58523</ele>
        <time>2026-07-14T10:12:40.000Z</time>
      </trkpt>
      <trkpt lat="45.94791" lon="13.62616">
        <ele>89.631452</ele>
        <time>2026-07-14T10:12:41.000Z</time>
      </trkpt>
      <trkpt lat="45.94768" lon="13.62604">
        <ele>89.751517</ele>
        <time>2026-07-14T10:12:46.000Z</time>
      </trkpt>
      <trkpt lat="45.9476" lon="13.62597">
        <ele>89.777895</ele>
        <time>2026-07-14T10:12:48.000Z</time>
      </trkpt>
      <trkpt lat="45.94738" lon="13.62581">
        <ele>89.84366</ele>
        <time>2026-07-14T10:12:53.000Z</time>
      </trkpt>
      <trkpt lat="45.94734" lon="13.62578">
        <ele>89.85578</ele>
        <time>2026-07-14T10:12:54.000Z</time>
      </trkpt>
      <trkpt lat="45.9473" lon="13.62576">
        <ele>89.8672</ele>
        <time>2026-07-14T10:12:55.000Z</time>
      </trkpt>
      <trkpt lat="45.94711" lon="13.62571">
        <ele>89.918086</ele>
        <time>2026-07-14T10:12:59.000Z</time>
      </trkpt>
      <trkpt lat="45.94707" lon="13.62569">
        <ele>89.930563</ele>
        <time>2026-07-14T10:13:00.000Z</time>
      </trkpt>
      <trkpt lat="45.94698" lon="13.62562">
        <ele>89.956882</ele>
        <time>2026-07-14T10:13:02.000Z</time>
      </trkpt>
      <trkpt lat="45.9469" lon="13.62556">
        <ele>89.982407</ele>
        <time>2026-07-14T10:13:04.000Z</time>
      </trkpt>
      <trkpt lat="45.94676" lon="13.62553">
        <ele>90.020462</ele>
        <time>2026-07-14T10:13:07.000Z</time>
      </trkpt>
      <trkpt lat="45.94639" lon="13.62553">
        <ele>90.118079</ele>
        <time>2026-07-14T10:13:14.000Z</time>
      </trkpt>
      <trkpt lat="45.94617" lon="13.62558">
        <ele>90.179344</ele>
        <time>2026-07-14T10:13:19.000Z</time>
      </trkpt>
      <trkpt lat="45.94613" lon="13.62556">
        <ele>90.188572</ele>
        <time>2026-07-14T10:13:20.000Z</time>
      </trkpt>
      <trkpt lat="45.94605" lon="13.62552">
        <ele>90.188572</ele>
        <time>2026-07-14T10:13:22.000Z</time>
      </trkpt>
      <trkpt lat="45.94593" lon="13.62541">
        <ele>90.188572</ele>
        <time>2026-07-14T10:13:25.000Z</time>
      </trkpt>
      <trkpt lat="45.94565" lon="13.62517">
        <ele>90.188572</ele>
        <time>2026-07-14T10:13:32.000Z</time>
      </trkpt>
      <trkpt lat="45.94557" lon="13.62515">
        <ele>90.188572</ele>
        <time>2026-07-14T10:13:34.000Z</time>
      </trkpt>
      <trkpt lat="45.94548" lon="13.62516">
        <ele>90.188572</ele>
        <time>2026-07-14T10:13:36.000Z</time>
      </trkpt>
      <trkpt lat="45.94527" lon="13.62518">
        <ele>90.188572</ele>
        <time>2026-07-14T10:13:42.000Z</time>
      </trkpt>
      <trkpt lat="45.94525" lon="13.62518">
        <ele>90.188572</ele>
        <time>2026-07-14T10:13:43.000Z</time>
      </trkpt>
      <trkpt lat="45.94524" lon="13.6252">
        <ele>90.188572</ele>
        <time>2026-07-14T10:13:44.000Z</time>
      </trkpt>
      <trkpt lat="45.94524" lon="13.6252">
        <ele>90.188572</ele>
        <time>2026-07-14T10:13:46.000Z</time>
      </trkpt>
    </trkseg>
  </trk>
</gpx>